ftp/pub/palmer/observations_modified/2019/March/original_files/AR190315_BASE.txt

Download

Sample DateTime	Unit Id	WS Avg 2min	WD Avg 2min	WGS 10min	WGD 10min	Air Temp	Rel Humidity	Dew Point	Pyranometer	Quantum	Air Pressure	Snow Level	Rainfall	PW Current	Visibility	CBase 1	CBase 2	CBase 3	Vert Vis
2019/03/15 00:00:00	BASE	10.80	342	11.99	344	1.2	100	1.2	0	0	989.7	NA	0.0000	BR	6000	0	0	0	490
2019/03/15 00:01:00	BASE	10.95	340	11.99	344	1.2	100	1.2	0	0	989.7	NA	0.0000	BR	7000	0	0	0	520
2019/03/15 00:02:00	BASE	10.79	338	11.99	344	1.2	100	1.2	0	0	989.7	NA	0.0000	BR	5000	0	0	0	490
2019/03/15 00:03:00	BASE	10.30	338	11.99	344	1.2	100	1.2	0	0	989.7	NA	0.0000	BR	4900	0	0	0	560
2019/03/15 00:04:00	BASE	10.42	334	11.99	344	1.2	100	1.2	0	0	989.7	NA	0.0000	BR	6000	0	0	0	490
2019/03/15 00:05:00	BASE	10.77	333	12.30	329	1.3	100	1.3	0	0	989.7	NA	0.0000	BR	8000	0	0	0	520
2019/03/15 00:06:00	BASE	10.39	333	12.30	329	1.3	100	1.3	0	0	989.7	NA	0.0000	BR	8000	0	0	0	490
2019/03/15 00:07:00	BASE	10.34	333	12.30	329	1.3	100	1.3	0	0	989.7	NA	0.0000	BR	8000	0	0	0	490
2019/03/15 00:08:00	BASE	10.49	331	12.30	329	1.3	100	1.3	0	0	989.7	NA	0.0000	BR	8000	0	0	0	490
2019/03/15 00:09:00	BASE	10.03	329	12.30	329	1.4	100	1.4	0	0	989.8	NA	0.0000	BR	8000	0	0	0	520
2019/03/15 00:10:00	BASE	9.86	332	12.30	329	1.4	100	1.4	0	0	989.8	NA	0.0000	BR	8000	0	0	0	460
2019/03/15 00:11:00	BASE	9.70	335	12.30	329	1.4	100	1.4	0	0	989.8	NA	0.0000	BR	7000	0	0	0	490
2019/03/15 00:12:00	BASE	9.45	335	12.30	329	1.4	100	1.4	0	0	989.8	NA	0.0000	BR	6000	0	0	0	460
2019/03/15 00:13:00	BASE	9.57	336	12.30	329	1.4	100	1.4	0	0	989.8	NA	0.0000	BR	5000	0	0	0	460
2019/03/15 00:14:00	BASE	9.45	338	12.30	329	1.3	100	1.3	0	0	989.8	NA	0.0000	BR	4600	0	0	0	460
2019/03/15 00:15:00	BASE	9.22	341	11.73	336	1.3	100	1.3	0	0	989.8	NA	0.0000	BR	3800	0	0	0	460
2019/03/15 00:16:01	BASE	9.05	342	11.73	336	1.3	100	1.3	0	0	989.8	NA	0.0000	BR	4300	0	0	0	490
2019/03/15 00:17:00	BASE	8.79	341	11.73	336	1.3	100	1.3	0	0	989.8	NA	0.0000	BR	5000	0	0	0	460
2019/03/15 00:18:00	BASE	8.65	342	11.73	336	1.2	100	1.2	0	0	989.8	NA	0.0000	BR	4800	0	0	0	520
2019/03/15 00:19:00	BASE	8.72	342	11.73	336	1.2	100	1.2	0	0	989.8	NA	0.0000	BR	5000	0	0	0	520
2019/03/15 00:20:00	BASE	8.75	341	11.11	336	1.2	100	1.2	0	0	989.8	NA	0.0000	BR	6000	0	0	0	520
2019/03/15 00:21:00	BASE	8.81	339	11.11	336	1.2	100	1.2	0	0	989.8	NA	0.0000	BR	7000	0	0	0	560
2019/03/15 00:22:00	BASE	9.11	339	11.11	336	1.2	100	1.2	0	0	989.8	NA	0.0000	BR	7000	0	0	0	520
2019/03/15 00:23:00	BASE	9.43	338	10.08	337	1.2	100	1.2	0	0	989.9	NA	0.0000	BR	7000	0	0	0	490
2019/03/15 00:24:00	BASE	9.73	337	11.57	325	1.2	100	1.2	0	0	989.9	NA	0.0000	BR	7000	0	0	0	520
2019/03/15 00:25:00	BASE	9.98	335	11.57	325	1.2	100	1.2	0	0	990.0	NA	0.0000	BR	7000	0	0	0	560
2019/03/15 00:26:00	BASE	9.92	333	11.57	325	1.2	100	1.2	0	0	990.1	NA	0.0000	BR	8000	0	0	0	560
2019/03/15 00:27:00	BASE	9.54	331	11.57	325	1.3	100	1.3	0	0	990.1	NA	0.0000	BR	9000	0	0	0	590
2019/03/15 00:28:00	BASE	9.33	333	11.57	325	1.3	100	1.3	0	0	990.1	NA	0.0000	BR	9999	0	0	0	560
2019/03/15 00:29:00	BASE	9.48	337	11.57	325	1.3	100	1.3	0	0	990.1	NA	0.0000	BR	9999	0	0	0	560
2019/03/15 00:30:00	BASE	10.04	337	11.68	333	1.3	100	1.3	0	0	990.1	NA	0.0000	BR	9999	200	0	0	0
2019/03/15 00:31:00	BASE	10.59	331	11.73	335	1.3	100	1.3	0	0	990.1	NA	0.0000	BR	9999	200	0	0	0
2019/03/15 00:32:00	BASE	10.77	326	11.83	325	1.3	100	1.3	0	0	990.1	NA	0.0000	BR	9999	0	0	0	560
2019/03/15 00:33:00	BASE	10.65	326	11.83	325	1.3	100	1.3	0	0	990.1	NA	0.0000	BR	9999	200	0	0	0
2019/03/15 00:34:00	BASE	10.20	327	11.83	325	1.3	100	1.3	0	0	990.2	NA	0.0000	BR	9999	200	0	0	0
2019/03/15 00:35:00	BASE	10.37	328	11.83	325	1.3	100	1.3	0	0	990.2	NA	0.0000		9999	200	0	0	0
2019/03/15 00:36:00	BASE	10.63	328	12.14	314	1.3	100	1.3	0	0	990.2	NA	0.0000		9999	200	0	0	0
2019/03/15 00:37:00	BASE	10.55	326	12.30	319	1.3	100	1.3	0	0	990.3	NA	0.0000		9999	200	0	0	0
2019/03/15 00:38:00	BASE	10.26	326	12.30	319	1.3	100	1.3	0	0	990.3	NA	0.0000		9999	0	0	0	560
2019/03/15 00:39:00	BASE	9.89	328	12.30	319	1.3	100	1.3	0	0	990.3	NA	0.0000		9999	200	0	0	0
2019/03/15 00:40:00	BASE	9.99	329	12.30	319	1.3	100	1.3	0	0	990.3	NA	0.0000		9999	200	0	0	0
2019/03/15 00:41:00	BASE	10.30	331	12.30	319	1.3	100	1.3	0	0	990.3	NA	0.0000		9999	160	0	0	0
2019/03/15 00:42:00	BASE	10.96	331	12.30	319	1.3	100	1.3	0	0	990.4	NA	0.0000		9999	0	0	0	520
2019/03/15 00:43:00	BASE	11.08	327	12.30	319	1.3	100	1.3	0	0	990.4	NA	0.0000		9999	160	0	0	0
2019/03/15 00:44:00	BASE	10.65	326	12.30	319	1.3	100	1.3	0	0	990.4	NA	0.0000		9999	0	0	0	560
2019/03/15 00:45:00	BASE	10.65	329	12.30	319	1.4	100	1.4	0	0	990.4	NA	0.0000		9999	160	0	0	0
2019/03/15 00:46:00	BASE	11.05	333	12.30	319	1.4	100	1.4	0	0	990.4	NA	0.0000		9999	0	0	0	520
2019/03/15 00:47:00	BASE	11.63	334	12.71	336	1.4	100	1.4	0	0	990.4	NA	0.0000		9000	0	0	0	490
2019/03/15 00:48:00	BASE	11.67	334	12.71	336	1.4	100	1.4	0	0	990.4	NA	0.0000		8000	0	0	0	490
2019/03/15 00:49:00	BASE	11.06	335	12.71	336	1.3	100	1.3	0	0	990.4	NA	0.0000	BR	8000	0	0	0	490
2019/03/15 00:50:00	BASE	11.16	335	12.91	331	1.3	100	1.3	0	0	990.4	NA	0.0000	BR	7000	0	0	0	490
2019/03/15 00:51:00	BASE	11.67	336	12.91	331	1.3	100	1.3	0	0	990.4	NA	0.0000	BR	8000	0	0	0	490
2019/03/15 00:52:00	BASE	11.69	336	12.91	331	1.3	100	1.3	0	0	990.4	NA	0.0000	BR	8000	0	0	0	490
2019/03/15 00:53:00	BASE	11.96	337	13.94	337	1.3	100	1.3	0	0	990.4	NA	0.0000	BR	7000	0	0	0	460
2019/03/15 00:54:00	BASE	12.46	336	13.94	337	1.3	100	1.3	0	0	990.4	NA	0.0000	BR	7000	0	0	0	490
2019/03/15 00:55:00	BASE	12.59	333	13.94	337	1.3	100	1.3	0	0	990.4	NA	0.0000	BR	7000	0	0	0	460
2019/03/15 00:56:00	BASE	12.96	333	14.46	329	1.3	100	1.3	0	0	990.4	NA	0.0000	BR	7000	0	0	0	460
2019/03/15 00:57:00	BASE	13.08	333	14.46	329	1.3	100	1.3	0	0	990.5	NA	0.0000	BR	6000	0	0	0	460
2019/03/15 00:58:00	BASE	12.85	332	14.46	329	1.3	100	1.3	0	0	990.5	NA	0.0000	BR	6000	0	0	0	460
2019/03/15 00:59:00	BASE	13.16	331	14.71	329	1.3	100	1.3	0	0	990.5	NA	0.0000	BR	6000	0	0	0	460
2019/03/15 01:00:00	BASE	13.22	331	14.71	329	1.3	100	1.3	0	0	990.5	NA	0.0000	BR	7000	0	0	0	490
2019/03/15 01:01:00	BASE	13.23	334	14.71	329	1.3	100	1.3	0	0	990.5	NA	0.0000	BR	8000	0	0	0	490
2019/03/15 01:02:00	BASE	12.58	336	14.71	329	1.3	100	1.3	0	0	990.5	NA	0.0000	BR	9000	0	0	0	520
2019/03/15 01:03:00	BASE	11.84	336	14.71	329	1.3	100	1.3	0	0	990.5	NA	0.0000	BR	9000	0	0	0	520
2019/03/15 01:04:00	BASE	11.80	335	14.71	329	1.3	100	1.3	0	0	990.5	NA	0.0000	BR	9000	0	0	0	560
2019/03/15 01:05:00	BASE	11.57	332	14.71	329	1.3	100	1.3	0	0	990.6	NA	0.0000	BR	9999	230	0	0	0
2019/03/15 01:06:00	BASE	11.23	331	14.71	329	1.3	100	1.3	0	0	990.6	NA	0.0000	BR	9999	260	920	0	0
2019/03/15 01:07:00	BASE	10.70	332	14.71	329	1.3	100	1.3	0	0	990.7	NA	0.0000	BR	9999	1050	0	0	0
2019/03/15 01:08:00	BASE	10.26	333	14.71	329	1.3	100	1.3	0	0	990.7	NA	0.0000	BR	9999	360	720	0	0
2019/03/15 01:09:00	BASE	10.29	332	14.04	329	1.3	100	1.3	0	0	990.7	NA	0.0000	BR	9999	560	1210	0	0
2019/03/15 01:10:00	BASE	10.07	333	14.04	329	1.3	100	1.3	0	0	990.7	NA	0.0000		9999	460	0	0	0
2019/03/15 01:11:00	BASE	9.64	336	13.58	333	1.3	100	1.3	0	0	990.7	NA	0.0000		9999	460	1150	0	0
2019/03/15 01:12:00	BASE	9.51	338	13.58	333	1.3	100	1.3	0	0	990.7	NA	0.0000		9999	1120	0	0	0
2019/03/15 01:13:00	BASE	9.65	339	13.58	333	1.3	100	1.3	0	0	990.7	NA	0.0000		9999	460	0	0	0
2019/03/15 01:14:00	BASE	9.66	339	12.60	320	1.3	100	1.3	0	0	990.7	NA	0.0000		9999	460	1050	0	0
2019/03/15 01:15:00	BASE	9.84	338	12.40	336	1.2	100	1.2	0	0	990.7	NA	0.0000		9999	590	980	0	0
2019/03/15 01:16:00	BASE	10.02	339	11.63	329	1.2	100	1.2	0	0	990.7	NA	0.0000		9999	560	1020	0	0
2019/03/15 01:17:00	BASE	9.83	340	11.63	329	1.2	100	1.2	0	0	990.7	NA	0.0000		9999	560	0	0	0
2019/03/15 01:18:00	BASE	9.89	342	11.63	329	1.2	100	1.2	0	0	990.6	NA	0.0000		9999	520	0	0	0
2019/03/15 01:19:00	BASE	9.72	341	11.01	337	1.2	100	1.2	0	0	990.7	NA	0.0000		9999	690	0	0	0
2019/03/15 01:20:00	BASE	10.07	338	12.60	335	1.2	100	1.2	0	0	990.7	NA	0.0000		9999	560	0	0	0
2019/03/15 01:21:01	BASE	10.36	336	12.60	335	1.2	100	1.2	0	0	990.7	NA	0.0000		9999	590	0	0	0
2019/03/15 01:22:00	BASE	10.16	335	12.60	335	1.2	100	1.2	0	0	990.7	NA	0.0000		9999	590	0	0	0
2019/03/15 01:23:00	BASE	10.19	333	12.60	335	1.3	100	1.3	0	0	990.7	NA	0.0000		9999	560	0	0	0
2019/03/15 01:24:00	BASE	10.52	330	12.60	335	1.3	100	1.3	0	0	990.8	NA	0.0000		9999	560	0	0	0
2019/03/15 01:25:00	BASE	11.07	326	12.60	335	1.3	100	1.3	0	0	990.8	NA	0.0000		9999	560	0	0	0
2019/03/15 01:26:00	BASE	11.33	325	12.60	335	1.4	100	1.4	0	0	990.8	NA	0.0000		9999	430	0	0	0
2019/03/15 01:27:00	BASE	11.71	326	13.38	322	1.4	100	1.4	0	0	990.8	NA	0.0000		9999	390	0	0	0
2019/03/15 01:28:00	BASE	11.51	326	13.38	322	1.4	100	1.4	0	0	990.8	NA	0.0000		9999	390	0	0	0
2019/03/15 01:29:00	BASE	11.26	325	13.38	322	1.5	100	1.5	0	0	990.9	NA	0.0000		9999	360	0	0	0
2019/03/15 01:30:00	BASE	11.44	326	13.38	322	1.5	100	1.5	0	0	990.9	NA	0.0000		9999	390	0	0	0
2019/03/15 01:31:00	BASE	11.15	328	13.38	322	1.5	100	1.5	0	0	990.9	NA	0.0000		9999	360	0	0	0
2019/03/15 01:32:00	BASE	11.02	329	13.38	322	1.5	100	1.5	0	0	990.9	NA	0.0000		9999	330	0	0	0
2019/03/15 01:33:00	BASE	11.16	330	13.38	322	1.5	100	1.5	0	0	990.9	NA	0.0000		9999	360	0	0	0
2019/03/15 01:34:00	BASE	11.84	334	13.68	335	1.5	100	1.5	0	0	990.8	NA	0.0000		9999	330	0	0	0
2019/03/15 01:35:00	BASE	12.52	334	13.68	330	1.5	100	1.5	0	0	990.8	NA	0.0000		9999	300	0	0	0
2019/03/15 01:36:00	BASE	11.77	335	13.68	330	1.5	100	1.5	0	0	990.9	NA	0.0000		9999	300	0	0	0
2019/03/15 01:37:00	BASE	10.93	335	13.68	330	1.5	100	1.5	0	0	990.9	NA	0.0000		9999	260	0	0	0
2019/03/15 01:38:00	BASE	10.39	336	13.68	330	1.5	100	1.5	0	0	990.9	NA	0.0000		9999	300	0	0	0
2019/03/15 01:39:00	BASE	10.36	338	13.68	330	1.5	100	1.5	0	0	990.9	NA	0.0000		9999	230	0	0	0
2019/03/15 01:40:00	BASE	11.29	338	13.68	330	1.5	100	1.5	0	0	990.9	NA	0.0000		9999	260	0	0	0
2019/03/15 01:41:00	BASE	11.08	339	13.68	330	1.5	100	1.5	0	0	990.9	NA	0.0000		9999	260	0	0	0
2019/03/15 01:42:00	BASE	10.49	340	13.68	330	1.5	100	1.5	0	0	990.9	NA	0.0000		9999	260	0	0	0
2019/03/15 01:43:00	BASE	10.96	338	13.68	330	1.4	100	1.4	0	0	990.9	NA	0.0000		9999	230	0	0	0
2019/03/15 01:44:00	BASE	11.72	337	14.15	339	1.4	100	1.4	0	0	990.8	NA	0.0000		9999	260	0	0	0
2019/03/15 01:45:00	BASE	11.77	338	14.15	339	1.4	100	1.4	0	0	990.8	NA	0.0000		9999	260	0	0	0
2019/03/15 01:46:00	BASE	12.00	338	14.15	339	1.5	100	1.5	0	0	990.8	NA	0.0000		9999	300	0	0	0
2019/03/15 01:47:00	BASE	12.35	337	14.15	335	1.5	100	1.5	0	0	990.8	NA	0.0000		9999	300	0	0	0
2019/03/15 01:48:00	BASE	12.08	338	14.15	335	1.6	100	1.6	0	0	990.8	NA	0.0000		9999	300	0	0	0
2019/03/15 01:49:00	BASE	11.74	341	14.15	335	1.6	100	1.6	0	0	990.8	NA	0.0000	UP	9999	330	0	0	0
2019/03/15 01:50:00	BASE	11.42	340	14.15	335	1.6	100	1.6	0	0	990.9	NA	0.0000	UP	9999	330	0	0	0
2019/03/15 01:51:00	BASE	11.80	339	14.15	335	1.6	100	1.6	0	0	990.9	NA	0.0000	UP	9999	360	0	0	0
2019/03/15 01:52:00	BASE	12.28	338	14.15	335	1.5	100	1.5	0	0	990.9	NA	0.0000	UP	9999	330	0	0	0
2019/03/15 01:53:00	BASE	12.54	337	14.15	336	1.5	100	1.5	0	0	990.9	NA	0.0000	UP	9999	300	0	0	0
2019/03/15 01:54:00	BASE	12.56	337	14.15	336	1.5	100	1.5	0	0	990.9	NA	0.0000	UP	9999	330	0	0	0
2019/03/15 01:55:00	BASE	12.60	338	14.15	343	1.5	100	1.5	0	0	990.9	NA	0.0000	UP	9999	360	0	0	0
2019/03/15 01:56:00	BASE	12.54	340	14.15	343	1.5	100	1.5	0	0	990.9	NA	0.0000	UP	9999	330	0	0	0
2019/03/15 01:57:00	BASE	12.37	341	14.15	343	1.5	100	1.5	0	0	990.9	NA	0.0000	UP	9999	360	0	0	0
2019/03/15 01:58:00	BASE	12.48	340	14.15	343	1.5	100	1.5	0	0	990.9	NA	0.0000		9999	330	0	0	0
2019/03/15 01:59:00	BASE	12.31	339	14.15	343	1.5	100	1.5	0	0	990.9	NA	0.0000		9999	330	0	0	0
2019/03/15 02:00:00	BASE	12.45	338	14.15	343	1.5	100	1.5	0	0	990.9	NA	0.0000		9999	330	0	0	0
2019/03/15 02:01:00	BASE	12.93	338	14.15	343	1.5	100	1.5	0	0	991.0	NA	0.0000		9999	300	0	0	0
2019/03/15 02:02:00	BASE	13.03	337	14.15	343	1.5	100	1.5	0	0	991.0	NA	0.0000		9999	300	0	0	0
2019/03/15 02:03:00	BASE	13.12	338	15.64	345	1.5	100	1.5	0	0	991.0	NA	0.0000		9999	300	0	0	0
2019/03/15 02:04:00	BASE	13.52	340	15.64	345	1.5	100	1.5	0	0	991.0	NA	0.0000		9999	300	0	0	0
2019/03/15 02:05:00	BASE	14.08	340	15.64	345	1.5	100	1.5	0	0	991.0	NA	0.0000		9999	260	0	0	0
2019/03/15 02:06:00	BASE	14.43	339	16.20	337	1.5	100	1.5	0	0	991.0	NA	0.0000		9999	300	0	0	0
2019/03/15 02:07:00	BASE	14.11	338	16.20	337	1.5	100	1.5	0	0	991.1	NA	0.0000		9999	260	0	0	0
2019/03/15 02:08:00	BASE	13.39	339	16.20	337	1.5	100	1.5	0	0	991.1	NA	0.0000		9999	230	0	0	0
2019/03/15 02:09:00	BASE	13.01	338	16.20	337	1.4	100	1.4	0	0	991.2	NA	0.0000		9999	260	0	0	0
2019/03/15 02:10:00	BASE	13.79	334	16.98	332	1.5	100	1.5	0	0	991.1	NA	0.0000		9999	260	0	0	0
2019/03/15 02:11:00	BASE	14.80	333	16.98	332	1.5	100	1.5	0	0	991.1	NA	0.0000		9999	230	0	0	0
2019/03/15 02:12:00	BASE	14.50	332	16.98	332	1.5	100	1.5	0	0	991.2	NA	0.0000		9999	0	0	0	850
2019/03/15 02:13:00	BASE	14.31	330	16.98	332	1.6	100	1.6	0	0	991.1	NA	0.0000		9999	230	0	0	0
2019/03/15 02:14:00	BASE	14.86	332	16.98	332	1.7	100	1.7	0	0	991.1	NA	0.2540		9999	200	0	0	0
2019/03/15 02:15:00	BASE	15.66	333	17.75	335	1.8	100	1.8	0	0	991.1	NA	0.0000		9999	230	0	0	0
2019/03/15 02:16:00	BASE	16.02	334	17.75	335	1.8	100	1.8	0	0	991.1	NA	0.0000	UP	9999	330	0	0	0
2019/03/15 02:17:00	BASE	16.04	333	17.75	335	1.8	100	1.8	0	0	991.1	NA	0.0000	UP	9999	360	0	0	0
2019/03/15 02:18:00	BASE	16.08	333	18.21	337	1.9	100	1.9	0	0	991.2	NA	0.0000	UP	9999	360	0	0	0
2019/03/15 02:19:00	BASE	16.17	333	18.21	337	1.8	100	1.8	0	0	991.2	NA	0.0000	UP	9999	360	0	0	0
2019/03/15 02:20:00	BASE	16.69	334	18.62	337	1.9	100	1.9	0	0	991.2	NA	0.0000	UP	9999	360	0	0	0
2019/03/15 02:21:00	BASE	16.83	337	18.62	337	1.9	100	1.9	0	0	991.1	NA	0.0000	UP	9999	330	0	0	0
2019/03/15 02:22:00	BASE	16.85	335	18.93	331	1.9	100	1.9	0	0	991.1	NA	0.0000	UP	9999	360	0	0	0
2019/03/15 02:23:00	BASE	16.87	335	18.93	331	1.9	100	1.9	0	0	991.2	NA	0.0000	UP	9999	360	0	0	0
2019/03/15 02:24:00	BASE	16.47	336	18.93	331	1.9	100	1.9	0	0	991.2	NA	0.0000	UP	9999	330	0	0	0
2019/03/15 02:25:00	BASE	15.48	336	18.93	331	1.9	100	1.9	0	0	991.2	NA	0.0000	UP	9999	300	0	0	0
2019/03/15 02:26:00	BASE	15.42	336	18.93	331	1.9	100	1.9	0	0	991.2	NA	0.0000	UP	9999	330	0	0	0
2019/03/15 02:27:00	BASE	15.89	335	18.93	331	1.9	100	1.9	0	0	991.2	NA	0.0000	UP	9999	360	0	0	0
2019/03/15 02:28:00	BASE	15.98	332	18.93	331	1.9	100	1.9	0	0	991.3	NA	0.0000	UP	9999	330	0	0	0
2019/03/15 02:29:00	BASE	15.66	332	18.93	331	1.9	100	1.9	0	0	991.3	NA	0.0000	UP	9999	330	0	0	0
2019/03/15 02:30:00	BASE	15.20	332	18.93	331	1.9	100	1.9	0	0	991.3	NA	0.0000	UP	9999	330	0	0	0
2019/03/15 02:31:00	BASE	15.82	333	18.93	331	1.9	100	1.9	0	0	991.3	NA	0.0000	UP	9999	300	0	0	0
2019/03/15 02:32:00	BASE	16.89	334	18.37	329	1.9	100	1.9	0	0	991.3	NA	0.0000	UP	9999	330	0	0	0
2019/03/15 02:33:00	BASE	16.44	332	18.37	329	1.9	100	1.9	0	0	991.4	NA	0.0000	UP	9999	330	0	0	0
2019/03/15 02:34:00	BASE	15.57	332	18.37	329	1.9	100	1.9	0	0	991.4	NA	0.0000	UP	9999	360	0	0	0
2019/03/15 02:35:00	BASE	15.77	331	18.37	329	1.9	100	1.9	0	0	991.4	NA	0.0000	UP	9999	330	0	0	0
2019/03/15 02:36:00	BASE	15.86	332	18.37	329	1.9	100	1.9	0	0	991.4	NA	0.0000		9999	360	0	0	0
2019/03/15 02:37:00	BASE	15.81	332	18.37	329	1.8	100	1.8	0	0	991.5	NA	0.0000		9999	360	0	0	0
2019/03/15 02:38:00	BASE	15.10	332	18.37	329	1.8	100	1.8	0	0	991.5	NA	0.0000		9999	330	0	0	0
2019/03/15 02:39:00	BASE	14.46	333	18.37	329	1.8	100	1.8	0	0	991.5	NA	0.0000		9999	360	0	0	0
2019/03/15 02:40:00	BASE	14.88	335	18.37	329	1.8	100	1.8	0	0	991.5	NA	0.0000		9999	330	0	0	0
2019/03/15 02:41:00	BASE	15.51	337	18.37	329	1.8	100	1.8	0	0	991.5	NA	0.0000		9999	360	0	0	0
2019/03/15 02:42:00	BASE	15.44	334	17.75	333	1.8	100	1.8	0	0	991.5	NA	0.0000		9999	360	0	0	0
2019/03/15 02:43:00	BASE	14.49	333	17.75	333	1.8	100	1.8	0	0	991.6	NA	0.0000		9999	360	0	0	0
2019/03/15 02:44:00	BASE	13.67	335	17.75	333	1.8	100	1.8	0	0	991.5	NA	0.0000	UP	9999	390	0	0	0
2019/03/15 02:45:00	BASE	13.94	335	17.75	333	1.8	100	1.8	0	0	991.5	NA	0.0000	UP	9999	390	0	0	0
2019/03/15 02:46:00	BASE	13.65	336	17.75	333	1.7	100	1.7	0	0	991.6	NA	0.0000	UP	9999	430	0	0	0
2019/03/15 02:47:00	BASE	13.34	338	17.75	333	1.7	100	1.7	0	0	991.6	NA	0.0000	UP	9999	390	0	0	0
2019/03/15 02:48:00	BASE	13.07	337	17.75	333	1.7	100	1.7	0	0	991.6	NA	0.0000	UP	9999	390	0	0	0
2019/03/15 02:49:00	BASE	12.69	335	17.75	333	1.7	100	1.7	0	0	991.6	NA	0.0000	UP	9999	390	0	0	0
2019/03/15 02:50:00	BASE	12.43	337	17.75	333	1.7	100	1.7	0	0	991.6	NA	0.0000	UP	9999	620	0	0	0
2019/03/15 02:51:00	BASE	11.66	339	16.41	332	1.7	100	1.7	0	0	991.6	NA	0.0000	UP	9999	430	0	0	0
2019/03/15 02:52:00	BASE	11.14	340	16.41	332	1.7	100	1.7	0	0	991.6	NA	0.0000	UP	9999	590	1350	0	0
2019/03/15 02:53:00	BASE	10.65	341	16.41	332	1.7	100	1.7	0	0	991.6	NA	0.0000	UP	9999	590	1440	0	0
2019/03/15 02:54:00	BASE	10.21	341	16.41	332	1.7	100	1.7	0	0	991.6	NA	0.0000	UP	9999	560	0	0	0
2019/03/15 02:55:00	BASE	10.00	343	14.92	336	1.6	100	1.6	0	0	991.6	NA	0.0000	UP	9999	620	0	0	0
2019/03/15 02:56:00	BASE	10.10	343	14.51	333	1.6	100	1.6	0	0	991.6	NA	0.0000	UP	9999	890	1800	0	0
2019/03/15 02:57:00	BASE	10.27	342	14.35	325	1.6	100	1.6	0	0	991.6	NA	0.0000	UP	9999	720	1740	0	0
2019/03/15 02:58:00	BASE	10.26	342	13.58	332	1.5	100	1.5	0	0	991.6	NA	0.0000		9999	660	1540	0	0
2019/03/15 02:59:00	BASE	10.76	342	13.27	336	1.5	100	1.5	0	0	991.6	NA	0.0000		9999	1480	0	0	0
2019/03/15 03:00:00	BASE	10.64	341	12.24	339	1.6	100	1.6	0	0	991.6	NA	0.0000		9999	820	1800	0	0
2019/03/15 03:01:00	BASE	10.02	341	12.04	348	1.6	100	1.6	0	0	991.6	NA	0.0000		9999	690	1480	0	0
2019/03/15 03:02:00	BASE	10.02	342	11.57	341	1.6	100	1.6	0	0	991.6	NA	0.0000		9999	750	2000	0	0
2019/03/15 03:03:00	BASE	10.04	342	11.57	341	1.6	100	1.6	0	0	991.6	NA	0.0000		9999	790	1900	0	0
2019/03/15 03:04:00	BASE	10.64	343	11.78	343	1.6	100	1.6	0	0	991.6	NA	0.0000		9999	1900	0	0	0
2019/03/15 03:05:00	BASE	10.94	345	11.99	345	1.6	100	1.6	0	0	991.6	NA	0.0000		9999	1840	0	0	0
2019/03/15 03:06:00	BASE	10.35	345	11.99	345	1.6	100	1.6	0	0	991.6	NA	0.0000		9999	1120	1840	0	0
2019/03/15 03:07:00	BASE	10.08	345	11.99	345	1.6	100	1.6	0	0	991.6	NA	0.0000		9999	850	1940	0	0
2019/03/15 03:08:00	BASE	9.87	350	11.99	345	1.6	100	1.6	0	0	991.6	NA	0.0000		9999	1970	0	0	0
2019/03/15 03:09:00	BASE	9.33	353	11.99	345	1.6	100	1.6	0	0	991.6	NA	0.0000		9999	2000	0	0	0
2019/03/15 03:10:00	BASE	9.23	350	11.99	345	1.6	100	1.6	0	0	991.5	NA	0.0000		9999	2030	0	0	0
2019/03/15 03:11:01	BASE	9.78	347	11.99	345	1.6	100	1.6	0	0	991.5	NA	0.0000		9999	2200	0	0	0
2019/03/15 03:12:00	BASE	9.45	350	11.99	345	1.7	100	1.7	0	0	991.5	NA	0.0000		9999	2200	0	0	0
2019/03/15 03:13:00	BASE	8.43	357	11.99	345	1.7	100	1.7	0	0	991.4	NA	0.0000		9999	2230	3020	0	0
2019/03/15 03:14:00	BASE	8.24	357	11.99	345	1.7	100	1.7	0	0	991.4	NA	0.0000		9999	2330	3020	0	0
2019/03/15 03:15:00	BASE	8.21	355	11.52	342	1.7	100	1.7	0	0	991.4	NA	0.0000		9999	2360	3050	0	0
2019/03/15 03:16:00	BASE	7.98	354	11.52	342	1.7	100	1.7	0	0	991.4	NA	0.0000		9999	2360	2950	0	0
2019/03/15 03:17:00	BASE	7.79	354	10.75	346	1.7	100	1.7	0	0	991.4	NA	0.0000		9999	2430	2920	3610	0
2019/03/15 03:18:00	BASE	8.13	354	10.75	346	1.7	100	1.7	0	0	991.4	NA	0.0000		9999	2400	3710	0	0
2019/03/15 03:19:00	BASE	8.49	355	10.75	346	1.7	100	1.7	0	0	991.4	NA	0.0000		9999	2330	0	0	0
2019/03/15 03:20:00	BASE	9.04	354	10.75	353	1.7	100	1.7	0	0	991.3	NA	0.0000		9999	2950	3710	0	0
2019/03/15 03:21:00	BASE	10.03	354	10.85	352	1.7	100	1.7	0	0	991.3	NA	0.0000		9999	2950	3710	0	0
2019/03/15 03:22:00	BASE	10.26	353	10.96	343	1.7	100	1.7	0	0	991.3	NA	0.0000		9999	2990	3580	0	0
2019/03/15 03:23:00	BASE	10.01	351	10.96	343	1.8	100	1.8	0	0	991.4	NA	0.0000		9999	2820	3580	0	0
2019/03/15 03:24:00	BASE	9.84	350	10.96	343	1.8	100	1.8	0	0	991.4	NA	0.0000		9999	2820	3510	0	0
2019/03/15 03:25:00	BASE	10.50	346	12.19	348	1.8	100	1.8	0	0	991.4	NA	0.0000		9999	2530	2920	3510	0
2019/03/15 03:26:00	BASE	11.05	347	12.19	348	1.8	100	1.8	0	0	991.4	NA	0.0000		9999	2530	3510	0	0
2019/03/15 03:27:00	BASE	10.75	348	12.19	348	1.8	100	1.8	0	0	991.5	NA	0.0000		9999	2490	0	0	0
2019/03/15 03:28:00	BASE	11.00	349	12.76	346	1.8	100	1.8	0	0	991.5	NA	0.0000		9999	2560	3120	0	0
2019/03/15 03:29:00	BASE	11.33	352	12.76	346	1.8	100	1.8	0	0	991.5	NA	0.0000		9999	2560	0	0	0
2019/03/15 03:30:00	BASE	11.18	353	12.76	346	1.8	100	1.8	0	0	991.5	NA	0.0000		9999	2560	0	0	0
2019/03/15 03:31:00	BASE	11.17	352	12.76	346	1.8	100	1.8	0	0	991.6	NA	0.0000		9999	2590	3080	0	0
2019/03/15 03:32:00	BASE	11.79	353	13.22	351	1.8	100	1.8	0	0	991.6	NA	0.0000		9999	2690	0	0	0
2019/03/15 03:33:00	BASE	11.98	350	13.22	351	1.8	100	1.8	0	0	991.6	NA	0.0000		9999	2660	0	0	0
2019/03/15 03:34:00	BASE	11.68	350	13.22	349	1.9	100	1.9	0	0	991.6	NA	0.0000		9999	2620	0	0	0
2019/03/15 03:35:00	BASE	12.22	349	14.15	342	1.9	100	1.9	0	0	991.6	NA	0.0000		9999	2660	0	0	0
2019/03/15 03:36:00	BASE	12.25	352	14.15	342	1.9	100	1.9	0	0	991.6	NA	0.0000		9999	2660	0	0	0
2019/03/15 03:37:00	BASE	12.06	350	14.15	342	2.0	100	2.0	0	0	991.6	NA	0.0000		9999	2660	0	0	0
2019/03/15 03:38:00	BASE	12.22	351	14.15	342	2.0	100	2.0	0	0	991.6	NA	0.0000		9999	2720	0	0	0
2019/03/15 03:39:00	BASE	11.94	359	14.15	342	2.0	100	2.0	0	0	991.6	NA	0.0000		9999	2660	0	0	0
2019/03/15 03:40:00	BASE	11.30	360	14.15	342	2.1	100	2.1	0	0	991.5	NA	0.0000		9999	2660	0	0	0
2019/03/15 03:41:00	BASE	11.32	359	14.15	342	2.1	100	2.1	0	0	991.5	NA	0.0000		9999	2620	0	0	0
2019/03/15 03:42:00	BASE	11.39	356	14.15	342	2.1	100	2.1	0	0	991.6	NA	0.0000		9999	2690	0	0	0
2019/03/15 03:43:00	BASE	10.41	358	14.15	342	2.1	100	2.1	0	0	991.6	NA	0.0000		9999	2790	0	0	0
2019/03/15 03:44:00	BASE	9.92	2	14.15	342	2.0	100	2.0	0	0	991.6	NA	0.0000		9999	2790	0	0	0
2019/03/15 03:45:00	BASE	10.25	3	13.43	349	2.0	100	2.0	0	0	991.6	NA	0.0000		9999	2690	0	0	0
2019/03/15 03:46:00	BASE	10.73	1	13.43	349	2.0	100	2.0	0	0	991.6	NA	0.0000		9999	2620	0	0	0
2019/03/15 03:47:00	BASE	11.48	353	13.22	354	2.0	100	2.0	0	0	991.6	NA	0.0000		9999	2070	0	0	0
2019/03/15 03:48:00	BASE	11.60	349	13.12	347	2.0	100	2.0	0	0	991.6	NA	0.0000		9999	2560	0	0	0
2019/03/15 03:49:00	BASE	11.15	348	13.12	347	2.1	100	2.1	0	0	991.6	NA	0.0000		9999	2530	0	0	0
2019/03/15 03:50:00	BASE	11.69	349	13.94	344	2.1	100	2.1	0	0	991.6	NA	0.0000		9999	2590	0	0	0
2019/03/15 03:51:00	BASE	11.88	352	13.94	344	2.2	100	2.2	0	0	991.6	NA	0.0000		9999	2590	0	0	0
2019/03/15 03:52:00	BASE	11.43	353	13.94	344	2.2	100	2.2	0	0	991.6	NA	0.0000		9999	2590	0	0	0
2019/03/15 03:53:00	BASE	10.85	350	13.94	344	2.3	100	2.3	0	0	991.6	NA	0.0000		9999	2560	0	0	0
2019/03/15 03:54:00	BASE	10.11	346	13.94	344	2.3	100	2.3	0	0	991.6	NA	0.0000		9999	2590	0	0	0
2019/03/15 03:55:00	BASE	9.95	347	13.94	344	2.3	100	2.3	0	0	991.6	NA	0.0000		9999	2560	0	0	0
2019/03/15 03:56:00	BASE	10.23	350	13.94	344	2.3	100	2.3	0	0	991.5	NA	0.0000		9999	2590	0	0	0
2019/03/15 03:57:00	BASE	10.25	349	13.94	344	2.3	100	2.3	0	0	991.5	NA	0.0000		9999	2590	0	0	0
2019/03/15 03:58:00	BASE	9.54	351	13.94	344	2.3	100	2.3	0	0	991.5	NA	0.0000		9999	2660	0	0	0
2019/03/15 03:59:00	BASE	9.05	354	13.94	344	2.3	100	2.3	0	0	991.5	NA	0.0000		9999	2690	0	0	0
2019/03/15 04:00:00	BASE	9.36	351	12.81	346	2.3	100	2.3	0	0	991.5	NA	0.0000		9999	2690	0	0	0
2019/03/15 04:01:01	BASE	10.60	351	13.02	360	2.3	100	2.3	0	0	991.4	NA	0.0000		9999	2760	0	0	0
2019/03/15 04:02:00	BASE	11.66	347	13.12	346	2.4	100	2.4	0	0	991.4	NA	0.0000		9999	2920	3450	0	0
2019/03/15 04:03:00	BASE	11.77	345	13.12	346	2.4	100	2.4	0	0	991.3	NA	0.0000		9999	2660	0	0	0
2019/03/15 04:04:00	BASE	10.94	353	13.12	346	2.4	100	2.4	0	0	991.3	NA	0.0000		9999	2720	0	0	0
2019/03/15 04:05:00	BASE	9.74	353	13.12	346	2.4	100	2.4	0	0	991.3	NA	0.0000		9999	2920	0	0	0
2019/03/15 04:06:00	BASE	9.62	353	13.12	346	2.5	100	2.5	0	0	991.3	NA	0.0000		9999	3050	0	0	0
2019/03/15 04:08:00	BASE	9.56	349	13.12	346	2.4	100	2.4	0	0	991.3	NA	0.0000		9999	2920	3510	0	0
2019/03/15 04:09:00	BASE	9.83	345	13.12	346	2.4	100	2.4	0	0	991.4	NA	0.0000		9999	2950	0	0	0
2019/03/15 04:10:00	BASE	10.41	344	13.12	346	2.4	100	2.4	0	0	991.4	NA	0.0000		9999	3020	0	0	0
2019/03/15 04:11:00	BASE	10.49	343	13.12	346	2.4	100	2.4	0	0	991.4	NA	0.0000		9999	2920	0	0	0
2019/03/15 04:12:00	BASE	9.80	342	13.12	346	2.3	100	2.3	0	0	991.5	NA	0.0000		9999	2660	0	0	0
2019/03/15 04:13:00	BASE	9.42	340	12.55	340	2.3	100	2.3	0	0	991.5	NA	0.0000		9999	2620	0	0	0
2019/03/15 04:14:00	BASE	9.66	338	12.55	340	2.2	100	2.2	0	0	991.6	NA	0.0000		9999	2330	0	0	0
2019/03/15 04:15:00	BASE	9.80	338	12.55	340	2.1	100	2.1	0	0	991.6	NA	0.0000		9999	2300	0	0	0
2019/03/15 04:16:00	BASE	10.15	339	12.55	340	2.1	100	2.1	0	0	991.5	NA	0.0000		9999	2230	0	0	0
2019/03/15 04:17:00	BASE	10.27	341	12.55	340	2.1	100	2.1	0	0	991.6	NA	0.0000		9999	2260	0	0	0
2019/03/15 04:18:00	BASE	10.33	342	12.55	340	2.1	100	2.1	0	0	991.6	NA	0.0000		9999	2200	0	0	0
2019/03/15 04:19:00	BASE	10.11	343	12.55	340	2.1	100	2.1	0	0	991.6	NA	0.0000		9999	2300	3250	0	0
2019/03/15 04:20:00	BASE	9.63	342	11.47	342	2.0	100	2.0	0	0	991.6	NA	0.0000		9999	2300	3380	0	0
2019/03/15 04:21:00	BASE	9.63	342	11.47	342	2.0	100	2.0	0	0	991.6	NA	0.0000		9999	3310	0	0	0
2019/03/15 04:22:00	BASE	9.61	343	11.47	342	2.0	100	2.0	0	0	991.6	NA	0.0000		9999	2360	3080	0	0
2019/03/15 04:23:00	BASE	9.24	343	11.47	342	2.0	100	2.0	0	0	991.6	NA	0.0000		9999	3280	0	0	0
2019/03/15 04:24:00	BASE	9.06	343	11.47	342	1.9	100	1.9	0	0	991.6	NA	0.0000		9999	2300	3580	0	0
2019/03/15 04:25:00	BASE	9.03	342	11.47	342	1.9	100	1.9	0	0	991.6	NA	0.0000		9999	2360	3480	0	0
2019/03/15 04:26:00	BASE	9.49	345	12.19	346	1.9	100	1.9	0	0	991.6	NA	0.0000		9999	3450	0	0	0
2019/03/15 04:27:00	BASE	9.83	347	12.19	346	1.9	100	1.9	0	0	991.6	NA	0.0000		9999	3350	0	0	0
2019/03/15 04:28:00	BASE	9.73	348	12.19	346	1.9	100	1.9	0	0	991.6	NA	0.0000		9999	3280	0	0	0
2019/03/15 04:29:00	BASE	9.75	347	12.19	346	2.0	100	2.0	0	0	991.5	NA	0.0000		9999	3350	0	0	0
2019/03/15 04:30:00	BASE	9.50	349	12.19	346	2.0	100	2.0	0	0	991.5	NA	0.0000		9999	3120	0	0	0
2019/03/15 04:31:00	BASE	9.21	349	12.19	346	2.1	100	2.1	0	0	991.4	NA	0.0000		9999	2920	0	0	0
2019/03/15 04:32:00	BASE	8.97	346	12.19	346	2.1	100	2.1	0	0	991.4	NA	0.0000		9999	3250	0	0	0
2019/03/15 04:33:00	BASE	9.45	345	12.19	346	2.1	100	2.1	0	0	991.4	NA	0.0000		9999	3250	0	0	0
2019/03/15 04:34:00	BASE	10.47	348	12.19	346	2.2	100	2.2	0	0	991.4	NA	0.0000		9999	3220	0	0	0
2019/03/15 04:35:00	BASE	10.90	351	12.19	346	2.2	100	2.2	0	0	991.4	NA	0.0000		9999	3280	0	0	0
2019/03/15 04:36:00	BASE	10.79	350	11.99	350	2.3	100	2.3	0	0	991.4	NA	0.0000		9999	3310	0	0	0
2019/03/15 04:37:00	BASE	10.13	350	11.99	350	2.3	100	2.3	0	0	991.4	NA	0.0000		9999	3350	0	0	0
2019/03/15 04:38:00	BASE	9.48	351	11.99	350	2.3	100	2.3	0	0	991.3	NA	0.0000		9999	3250	0	0	0
2019/03/15 04:39:00	BASE	9.86	352	12.55	354	2.3	100	2.3	0	0	991.2	NA	0.0000		9999	3280	0	0	0
2019/03/15 04:40:00	BASE	10.83	349	13.07	360	2.3	100	2.3	0	0	991.2	NA	0.0000		9999	3350	0	0	0
2019/03/15 04:41:00	BASE	11.28	350	13.07	360	2.3	100	2.3	0	0	991.2	NA	0.0000		9999	3410	0	0	0
2019/03/15 04:42:00	BASE	11.24	353	13.07	360	2.3	100	2.3	0	0	991.2	NA	0.0000		9999	3510	0	0	0
2019/03/15 04:43:00	BASE	11.31	352	13.07	360	2.4	100	2.4	0	0	991.2	NA	0.0000		9999	3480	0	0	0
2019/03/15 04:44:00	BASE	11.12	350	13.07	360	2.4	100	2.4	0	0	991.1	NA	0.0000		9999	3450	0	0	0
2019/03/15 04:45:00	BASE	10.99	349	13.07	360	2.4	100	2.4	0	0	991.1	NA	0.0000		9999	3380	0	0	0
2019/03/15 04:46:00	BASE	11.24	352	13.07	360	2.4	100	2.4	0	0	991.0	NA	0.0000		9999	3380	0	0	0
2019/03/15 04:47:01	BASE	11.01	355	13.07	360	2.4	100	2.4	0	0	991.0	NA	0.0000		9999	3380	0	0	0
2019/03/15 04:48:00	BASE	10.69	355	13.07	360	2.4	100	2.3	0	0	991.1	NA	0.0000		9999	3410	0	0	0
2019/03/15 04:49:00	BASE	10.60	353	13.07	360	2.4	100	2.4	0	0	991.1	NA	0.0000		9999	3280	0	0	0
2019/03/15 04:50:00	BASE	11.36	354	13.27	353	2.4	100	2.4	0	0	991.1	NA	0.0000		9999	3220	0	0	0
2019/03/15 04:51:00	BASE	12.70	357	13.74	360	2.3	100	2.3	0	0	991.1	NA	0.0000		9999	3150	0	0	0
2019/03/15 04:52:00	BASE	13.28	357	14.92	360	2.3	100	2.3	0	0	991.1	NA	0.0000		9999	3020	0	0	0
2019/03/15 04:53:00	BASE	13.41	359	14.92	360	2.3	100	2.3	0	0	991.0	NA	0.0000		9999	3710	0	0	0
2019/03/15 04:54:01	BASE	13.83	3	16.15	3	2.3	100	2.3	0	0	991.0	NA	0.0000		9999	3740	0	0	0
2019/03/15 04:55:00	BASE	14.08	1	16.15	3	2.3	100	2.3	0	0	991.0	NA	0.0000		9999	3670	0	0	0
2019/03/15 04:56:00	BASE	14.21	0	16.15	3	2.3	100	2.3	0	0	991.0	NA	0.0000		9999	3640	0	0	0
2019/03/15 04:57:00	BASE	14.26	1	16.15	3	2.3	100	2.3	0	0	991.0	NA	0.0000		9999	3580	0	0	0
2019/03/15 04:58:00	BASE	13.19	360	16.15	3	2.3	100	2.3	0	0	991.0	NA	0.0000		9999	3480	0	0	0
2019/03/15 04:59:00	BASE	13.28	0	16.15	3	2.2	100	2.2	0	0	991.0	NA	0.0000		9999	3450	0	0	0
2019/03/15 05:00:00	BASE	13.82	2	16.15	3	2.2	100	2.2	0	0	991.0	NA	0.0000		9999	3580	0	0	0
2019/03/15 05:01:00	BASE	14.36	3	16.15	3	2.2	100	2.2	0	0	991.0	NA	0.0000		9999	3510	0	0	0
2019/03/15 05:02:00	BASE	15.37	4	16.41	7	2.2	100	2.2	0	0	991.0	NA	0.0000		9999	3480	0	0	0
2019/03/15 05:03:00	BASE	15.40	4	16.67	3	2.2	100	2.2	0	0	991.0	NA	0.0000		9999	3510	0	0	0
2019/03/15 05:04:00	BASE	15.42	5	16.67	3	2.3	100	2.3	0	0	991.0	NA	0.0000		9999	3310	0	0	0
2019/03/15 05:05:00	BASE	15.32	6	16.67	3	2.3	100	2.3	0	0	991.0	NA	0.0000		9999	2690	3310	0	0
2019/03/15 05:06:00	BASE	15.00	7	16.67	3	2.3	100	2.3	0	0	991.0	NA	0.0000		9999	3220	0	0	0
2019/03/15 05:07:00	BASE	14.16	5	16.67	3	2.3	100	2.3	0	0	991.0	NA	0.0000		9999	3450	0	0	0
2019/03/15 05:08:00	BASE	13.11	3	16.67	3	2.4	100	2.3	0	0	991.0	NA	0.0000		9999	3410	0	0	0
2019/03/15 05:09:00	BASE	12.50	8	16.67	3	2.4	100	2.4	0	0	991.0	NA	0.0000		9999	3450	0	0	0
2019/03/15 05:10:00	BASE	12.11	11	16.67	3	2.3	100	2.3	0	0	991.0	NA	0.0000		9999	3480	0	0	0
2019/03/15 05:11:00	BASE	11.82	13	16.67	3	2.3	100	2.3	0	0	991.0	NA	0.0000		9999	3380	0	0	0
2019/03/15 05:12:01	BASE	11.62	12	16.67	3	2.3	100	2.3	0	0	991.0	NA	0.0000		9999	3410	0	0	0
2019/03/15 05:13:00	BASE	11.77	9	16.51	8	2.3	100	2.3	0	0	991.0	NA	0.0000		9999	3510	0	0	0
2019/03/15 05:14:00	BASE	11.52	7	16.00	1	2.3	100	2.3	0	0	991.0	NA	0.0000		9999	3450	0	0	0
2019/03/15 05:15:00	BASE	10.96	4	15.95	5	2.3	100	2.3	0	0	991.0	NA	0.0000		9999	3740	0	0	0
2019/03/15 05:16:00	BASE	10.49	359	15.18	3	2.4	100	2.4	0	0	991.0	NA	0.0000		9999	3580	0	0	0
2019/03/15 05:17:00	BASE	10.30	347	14.40	1	2.4	100	2.4	0	0	991.0	NA	0.0000		9999	3540	0	0	0
2019/03/15 05:18:00	BASE	9.63	339	13.27	3	2.4	100	2.4	0	0	991.1	NA	0.0000		9999	3670	0	0	0
2019/03/15 05:19:00	BASE	8.81	334	13.27	3	2.5	100	2.5	0	0	991.1	NA	0.0000		9999	3610	0	0	0
2019/03/15 05:20:00	BASE	8.76	327	12.45	6	2.4	100	2.4	0	0	991.2	NA	0.0000		9999	3580	0	0	0
2019/03/15 05:21:00	BASE	9.05	325	12.45	6	2.4	100	2.4	0	0	991.2	NA	0.0000		9999	3670	0	0	0
2019/03/15 05:22:00	BASE	9.59	334	12.45	6	2.3	100	2.3	0	0	991.2	NA	0.0000		9999	3710	0	0	0
2019/03/15 05:23:00	BASE	9.86	340	12.45	6	2.2	100	2.2	0	0	991.2	NA	0.0000		9999	3710	0	0	0
2019/03/15 05:24:00	BASE	10.13	340	11.37	346	2.1	100	2.1	0	0	991.1	NA	0.0000		9999	3610	0	0	0
2019/03/15 05:25:00	BASE	10.23	340	11.37	346	2.1	100	2.1	0	0	991.2	NA	0.0000		9999	3640	0	0	0
2019/03/15 05:26:00	BASE	10.29	341	11.57	342	2.1	100	2.1	0	0	991.2	NA	0.0000		9999	3640	4270	0	0
2019/03/15 05:27:00	BASE	10.78	343	12.60	346	2.1	100	2.1	0	0	991.2	NA	0.0000		9999	3640	0	0	0
2019/03/15 05:28:00	BASE	11.28	345	12.60	346	2.1	100	2.1	0	0	991.1	NA	0.0000		9999	3580	0	0	0
2019/03/15 05:29:01	BASE	10.95	347	12.60	346	2.1	100	2.1	0	0	991.1	NA	0.0000		9999	3540	0	0	0
2019/03/15 05:30:00	BASE	11.25	350	13.48	348	2.1	100	2.1	0	0	991.1	NA	0.0000		9999	3510	0	0	0
2019/03/15 05:31:00	BASE	12.72	355	14.25	350	2.2	100	2.2	0	0	991.0	NA	0.0000		9999	3670	0	0	0
2019/03/15 05:32:00	BASE	13.16	358	14.25	350	2.2	100	2.2	0	0	991.0	NA	0.0000		9999	3610	0	0	0
2019/03/15 05:33:00	BASE	13.33	350	16.31	1	2.3	100	2.3	0	0	991.0	NA	0.0000		9999	3540	0	0	0
2019/03/15 05:34:00	BASE	13.02	347	16.31	1	2.3	100	2.3	0	0	991.0	NA	0.0000		9999	3450	4490	0	0
2019/03/15 05:35:00	BASE	12.71	353	16.31	1	2.4	100	2.4	0	0	991.0	NA	0.0000		9999	3380	0	0	0
2019/03/15 05:36:00	BASE	12.91	355	16.31	1	2.4	100	2.4	0	0	991.0	NA	0.0000		9999	3280	0	0	0
2019/03/15 05:37:00	BASE	13.01	357	16.31	1	2.4	100	2.4	0	0	991.0	NA	0.0000		9999	3180	0	0	0
2019/03/15 05:38:00	BASE	12.96	356	16.31	1	2.4	100	2.4	0	0	991.0	NA	0.0000		9999	3180	0	0	0
2019/03/15 05:39:00	BASE	13.03	352	16.31	1	2.4	100	2.4	0	0	991.0	NA	0.0000		9999	2460	3310	0	0
2019/03/15 05:40:00	BASE	13.12	351	16.31	1	2.4	100	2.4	0	0	991.0	NA	0.0000		9999	3250	0	0	0
2019/03/15 05:41:00	BASE	12.43	351	16.31	1	2.4	100	2.4	0	0	991.0	NA	0.0000		9999	3280	0	0	0
2019/03/15 05:42:00	BASE	11.70	352	16.31	1	2.4	100	2.4	0	0	991.0	NA	0.0000		9999	3350	0	0	0
2019/03/15 05:43:00	BASE	11.60	351	15.12	348	2.4	100	2.4	0	0	991.0	NA	0.0000		9999	3480	0	0	0
2019/03/15 05:44:00	BASE	12.08	353	15.12	348	2.4	100	2.4	0	0	991.0	NA	0.0000		9999	3580	0	0	0
2019/03/15 05:45:00	BASE	11.89	352	15.12	348	2.4	100	2.4	0	0	991.0	NA	0.0000		9999	3870	0	0	0
2019/03/15 05:46:00	BASE	11.56	349	15.12	348	2.4	100	2.4	0	0	991.0	NA	0.0000		9999	3970	0	0	0
2019/03/15 05:47:00	BASE	11.87	348	15.12	348	2.3	100	2.3	0	0	991.0	NA	0.0000		9999	4000	0	0	0
2019/03/15 05:48:00	BASE	12.23	352	15.12	348	2.3	100	2.3	0	0	990.9	NA	0.0000		9999	4040	0	0	0
2019/03/15 05:49:00	BASE	12.67	2	14.30	345	2.3	100	2.3	0	0	990.9	NA	0.0000		9999	4270	0	0	0
2019/03/15 05:50:00	BASE	13.28	1	14.71	1	2.3	100	2.3	0	0	990.9	NA	0.0000		9999	4300	0	0	0
2019/03/15 05:51:00	BASE	13.18	357	14.71	1	2.3	100	2.3	0	0	990.9	NA	0.0000		9999	2560	4330	0	0
2019/03/15 05:52:00	BASE	13.16	352	15.38	354	2.3	100	2.3	0	0	990.9	NA	0.0000		9999	3870	0	0	0
2019/03/15 05:53:00	BASE	14.41	352	16.31	354	2.3	100	2.3	0	0	990.9	NA	0.0000		9999	3710	0	0	0
2019/03/15 05:54:00	BASE	15.41	356	16.87	353	2.2	100	2.2	0	0	990.8	NA	0.0000		9999	3810	0	0	0
2019/03/15 05:55:00	BASE	15.39	359	16.87	353	2.2	100	2.2	0	0	990.8	NA	0.0000		9999	4130	0	0	0
2019/03/15 05:56:00	BASE	14.98	4	16.87	353	2.2	100	2.2	0	0	990.8	NA	0.0000		9999	4100	0	0	0
2019/03/15 05:57:00	BASE	15.38	8	17.18	10	2.3	100	2.3	0	0	990.7	NA	0.0000		9999	2690	4230	0	0
2019/03/15 05:58:00	BASE	15.25	10	17.18	10	2.3	100	2.3	0	0	990.8	NA	0.0000		9999	2230	2690	0	0
2019/03/15 05:59:00	BASE	14.43	7	17.18	10	2.3	100	2.3	0	0	990.7	NA	0.0000		9999	2430	4130	0	0
2019/03/15 06:00:00	BASE	14.56	8	17.18	10	2.3	100	2.3	0	0	990.8	NA	0.0000		9999	2590	4040	0	0
2019/03/15 06:01:00	BASE	15.11	12	17.18	10	2.3	100	2.3	0	0	990.7	NA	0.0000		9999	3940	0	0	0
2019/03/15 06:02:00	BASE	15.27	12	17.18	10	2.3	100	2.3	0	0	990.7	NA	0.0000		9999	3900	0	0	0
2019/03/15 06:03:01	BASE	14.55	12	17.18	10	2.3	100	2.3	0	0	990.7	NA	0.0000		9999	3900	0	0	0
2019/03/15 06:04:01	BASE	14.98	12	17.18	10	2.3	100	2.3	0	0	990.7	NA	0.0000		9999	3810	0	0	0
2019/03/15 06:05:01	BASE	15.58	11	17.18	10	2.3	100	2.3	0	0	990.7	NA	0.0000		9999	3670	0	0	0
2019/03/15 06:06:01	BASE	15.30	10	17.75	9	2.3	100	2.3	0	0	990.7	NA	0.0000		9999	3670	0	0	0
2019/03/15 06:07:04	BASE	15.04	9	17.75	9	2.4	100	2.4	0	0	990.7	NA	0.0000		9999	3640	0	0	0
2019/03/15 06:08:01	BASE	15.08	9	17.75	9	2.4	100	2.4	0	0	990.7	NA	0.0000		9999	3610	0	0	0
2019/03/15 06:09:01	BASE	14.85	10	17.75	9	2.4	100	2.4	0	0	990.7	NA	0.0000		9999	2400	0	0	0
2019/03/15 06:10:01	BASE	14.28	11	17.75	9	2.4	100	2.4	0	0	990.7	NA	0.0000		9999	3710	0	0	0
2019/03/15 06:11:01	BASE	14.37	8	17.75	9	2.4	100	2.4	0	0	990.7	NA	0.0000		9999	3710	0	0	0
2019/03/15 06:12:01	BASE	14.68	7	17.75	9	2.4	100	2.4	0	0	990.8	NA	0.0000		9999	3610	0	0	0
2019/03/15 06:13:01	BASE	14.93	10	17.75	9	2.4	100	2.4	0	0	990.8	NA	0.0000		9999	3610	0	0	0
2019/03/15 06:14:01	BASE	13.82	10	17.75	9	2.4	100	2.4	0	0	990.8	NA	0.0000		9999	3610	0	0	0
2019/03/15 06:15:01	BASE	12.83	2	17.75	9	2.4	100	2.4	0	0	990.8	NA	0.0000		9999	3580	0	0	0
2019/03/15 06:16:01	BASE	12.65	351	16.31	14	2.4	100	2.4	0	0	990.8	NA	0.0000		9999	3670	0	0	0
2019/03/15 06:17:01	BASE	12.14	348	16.31	14	2.4	100	2.4	0	0	990.7	NA	0.0000		9999	3380	0	0	0
2019/03/15 06:18:01	BASE	11.81	348	16.26	10	2.3	100	2.3	0	0	990.8	NA	0.0000		9999	2560	0	0	0
2019/03/15 06:19:01	BASE	12.30	349	16.26	10	2.3	100	2.3	0	0	990.7	NA	0.0000		9999	1350	0	0	0
2019/03/15 06:20:01	BASE	12.97	349	16.26	10	2.3	100	2.3	0	0	990.8	NA	0.0000		9999	3350	0	0	0
2019/03/15 06:21:01	BASE	13.34	350	16.26	10	2.4	100	2.4	0	0	990.8	NA	0.0000		9999	1480	0	0	0
2019/03/15 06:22:00	BASE	12.89	353	16.26	10	2.4	100	2.4	0	0	990.9	NA	0.0000		9999	1610	0	0	0
2019/03/15 06:23:00	BASE	12.04	353	15.90	351	2.4	100	2.4	0	0	990.9	NA	0.0000		9999	2850	0	0	0
2019/03/15 06:24:00	BASE	11.68	354	15.90	351	2.5	100	2.5	0	0	990.9	NA	0.0000		9999	1800	0	0	0
2019/03/15 06:25:00	BASE	11.20	356	15.90	351	2.5	100	2.5	0	0	990.9	NA	0.0000		9999	2620	3280	0	0
2019/03/15 06:26:00	BASE	10.92	353	15.90	351	2.4	100	2.4	0	0	990.9	NA	0.0000		9999	2360	3580	0	0
2019/03/15 06:27:00	BASE	11.05	350	15.90	351	2.4	100	2.4	0	0	990.9	NA	0.0000		9999	2430	0	0	0
2019/03/15 06:28:00	BASE	11.82	351	15.90	351	2.4	100	2.4	0	0	990.9	NA	0.0000		9999	2560	0	0	0
2019/03/15 06:29:00	BASE	12.70	351	15.90	351	2.4	100	2.4	0	0	990.8	NA	0.0000		9999	2130	0	0	0
2019/03/15 06:30:00	BASE	13.12	351	15.90	351	2.5	100	2.5	0	0	990.8	NA	0.0000		9999	1970	0	0	0
2019/03/15 06:31:00	BASE	13.50	350	15.54	352	2.5	100	2.5	0	0	990.8	NA	0.0000		9999	1970	0	0	0
2019/03/15 06:32:00	BASE	13.89	349	15.54	352	2.6	100	2.6	0	0	990.8	NA	0.0000		9999	1940	0	0	0
2019/03/15 06:33:01	BASE	14.48	352	17.29	354	2.6	100	2.6	0	0	990.7	NA	0.0000		9999	1800	0	0	0
2019/03/15 06:34:01	BASE	14.55	359	17.29	354	2.7	100	2.7	0	0	990.7	NA	0.0000		9999	1480	0	0	0
2019/03/15 06:35:01	BASE	14.21	1	17.29	354	2.7	100	2.7	0	0	990.7	NA	0.0000		9999	1050	0	0	0
2019/03/15 06:36:01	BASE	14.32	1	17.29	354	2.7	100	2.7	0	0	990.6	NA	0.0000		9999	1020	3150	0	0
2019/03/15 06:37:01	BASE	14.07	359	17.29	354	2.7	100	2.7	0	0	990.6	NA	0.0000		9999	1120	3180	0	0
2019/03/15 06:38:01	BASE	13.68	358	17.29	354	2.6	100	2.6	0	0	990.7	NA	0.0000		9999	2490	3120	0	0
2019/03/15 06:39:01	BASE	13.60	357	17.29	354	2.6	100	2.6	0	0	990.6	NA	0.0000		9999	390	3770	0	0
2019/03/15 06:40:01	BASE	13.64	354	17.29	354	2.5	100	2.5	0	0	990.5	NA	0.0000	UP	9999	2000	3740	0	0
2019/03/15 06:41:01	BASE	13.65	353	17.29	354	2.5	100	2.5	0	0	990.5	NA	0.0000	UP	9999	2920	3770	0	0
2019/03/15 06:42:01	BASE	13.98	358	17.29	354	2.5	100	2.5	0	0	990.5	NA	0.0000	UP	9999	3840	0	0	0
2019/03/15 06:43:01	BASE	15.37	2	17.13	1	2.4	100	2.4	0	0	990.4	NA	0.0000	UP	9999	3510	0	0	0
2019/03/15 06:44:01	BASE	16.25	4	17.59	2	2.4	100	2.4	0	0	990.4	NA	0.0000	UP	9999	3580	0	0	0
2019/03/15 06:45:01	BASE	15.94	5	17.59	2	2.4	100	2.4	0	0	990.4	NA	0.0000	UP	9999	3610	0	0	0
2019/03/15 06:46:01	BASE	15.71	3	18.11	2	2.3	100	2.3	0	0	990.5	NA	0.0000	UP	9999	3810	0	0	0
2019/03/15 06:47:01	BASE	15.60	2	18.11	2	2.3	100	2.3	0	0	990.5	NA	0.0000	UP	9999	2790	3940	0	0
2019/03/15 06:48:01	BASE	15.84	3	18.11	2	2.3	100	2.3	0	0	990.5	NA	0.0000	UP	9999	2690	0	0	0
2019/03/15 06:49:01	BASE	16.50	5	18.37	6	2.3	100	2.3	0	0	990.4	NA	0.0000	UP	9999	2720	3710	4460	0
2019/03/15 06:50:01	BASE	16.53	2	18.37	6	2.3	100	2.3	0	0	990.5	NA	0.0000	UP	9999	3640	0	0	0
2019/03/15 06:51:01	BASE	15.77	360	18.37	6	2.3	100	2.3	0	0	990.5	NA	0.0000		9999	3670	0	0	0
2019/03/15 06:52:01	BASE	14.95	358	18.37	6	2.4	100	2.4	0	0	990.5	NA	0.0000		9999	3670	0	0	0
2019/03/15 06:53:01	BASE	14.75	358	18.37	6	2.4	100	2.4	0	0	990.5	NA	0.0000	UP	9999	360	3580	0	0
2019/03/15 06:54:01	BASE	15.26	2	18.37	6	2.4	100	2.4	0	0	990.4	NA	0.0000	UP	9999	3580	0	0	0
2019/03/15 06:55:01	BASE	15.39	3	18.37	6	2.4	100	2.4	0	0	990.4	NA	0.0000	UP	9999	1380	3480	0	0
2019/03/15 06:56:00	BASE	15.07	2	18.37	6	2.4	100	2.4	0	0	990.4	NA	0.0000	UP	9999	3450	0	0	0
2019/03/15 06:57:00	BASE	15.13	4	18.37	6	2.4	100	2.4	0	0	990.3	NA	0.0000	UP	9999	3310	0	0	0
2019/03/15 06:58:00	BASE	15.34	5	18.37	6	2.5	100	2.5	0	0	990.3	NA	0.0000	UP	9999	3350	0	0	0
2019/03/15 06:59:00	BASE	14.96	4	17.85	360	2.5	100	2.5	0	0	990.3	NA	0.0000	UP	9999	3310	0	0	0
2019/03/15 07:00:00	BASE	14.46	3	17.85	360	2.5	100	2.5	0	0	990.3	NA	0.0000	UP	9999	3350	0	0	0
2019/03/15 07:01:00	BASE	14.01	1	17.85	360	2.5	100	2.5	0	0	990.3	NA	0.0000	UP	9999	3580	0	0	0
2019/03/15 07:02:00	BASE	13.79	2	17.85	360	2.5	100	2.5	0	0	990.3	NA	0.0000	UP	9999	3640	0	0	0
2019/03/15 07:03:00	BASE	14.04	4	17.85	360	2.4	100	2.4	0	0	990.2	NA	0.0000		9999	3740	0	0	0
2019/03/15 07:04:00	BASE	13.96	5	17.85	360	2.4	100	2.4	0	0	990.2	NA	0.0000		9999	3810	0	0	0
2019/03/15 07:05:00	BASE	14.02	4	16.67	353	2.4	100	2.4	0	0	990.2	NA	0.0000		9999	3710	0	0	0
2019/03/15 07:06:00	BASE	13.99	5	16.67	353	2.4	100	2.4	0	0	990.2	NA	0.0000		9999	3840	0	0	0
2019/03/15 07:07:00	BASE	13.68	7	16.41	6	2.4	100	2.4	0	0	990.1	NA	0.0000		9999	3740	5350	0	0
2019/03/15 07:08:00	BASE	14.69	9	16.98	8	2.4	100	2.4	0	0	990.0	NA	0.0000		9999	5250	0	0	0
2019/03/15 07:09:00	BASE	15.57	9	17.23	360	2.4	100	2.4	0	0	990.0	NA	0.0000		9999	4100	0	0	0
2019/03/15 07:10:00	BASE	15.55	9	17.23	360	2.4	100	2.4	0	0	990.1	NA	0.0000		9999	3670	4130	0	0
2019/03/15 07:11:00	BASE	15.74	8	18.01	8	2.5	100	2.5	0	0	990.1	NA	0.0000		9999	3610	0	0	0
2019/03/15 07:12:00	BASE	16.43	6	18.42	6	2.5	100	2.5	0	0	990.1	NA	0.0000		9999	3540	0	0	0
2019/03/15 07:13:00	BASE	17.23	6	18.47	9	2.5	100	2.5	0	0	990.1	NA	0.0000		9999	3510	0	0	0
2019/03/15 07:14:00	BASE	17.07	5	18.47	9	2.4	100	2.4	0	0	990.1	NA	0.0000		9999	2760	3610	0	0
2019/03/15 07:15:01	BASE	16.54	5	18.47	9	2.4	100	2.4	0	0	990.0	NA	0.0000		9999	2400	0	0	0
2019/03/15 07:16:01	BASE	16.98	7	19.39	5	2.4	100	2.4	0	0	990.0	NA	0.0000		9999	2260	0	0	0
2019/03/15 07:17:01	BASE	17.34	9	19.39	5	2.4	100	2.4	0	0	989.9	NA	0.0000		9999	4100	4660	0	0
2019/03/15 07:18:01	BASE	17.43	8	19.55	360	2.4	100	2.4	0	0	989.8	NA	0.0000		9999	3640	4530	0	0
2019/03/15 07:19:01	BASE	17.59	7	19.55	360	2.4	100	2.4	0	0	989.8	NA	0.0000		9999	4330	0	0	0
2019/03/15 07:20:01	BASE	17.49	9	19.96	8	2.4	100	2.4	0	0	989.8	NA	0.0000		9999	4430	0	0	0
2019/03/15 07:21:01	BASE	17.46	10	19.96	8	2.4	100	2.4	0	0	989.8	NA	0.0000		9999	4460	0	0	0
2019/03/15 07:22:01	BASE	17.04	12	19.96	8	2.4	100	2.4	0	0	989.8	NA	0.0000		9999	4430	0	0	0
2019/03/15 07:23:01	BASE	16.64	11	19.96	8	2.4	100	2.4	0	0	989.8	NA	0.0000		9999	5540	0	0	0
2019/03/15 07:24:01	BASE	16.62	9	19.96	8	2.4	100	2.4	0	0	989.8	NA	0.0000		9999	5540	0	0	0
2019/03/15 07:25:01	BASE	15.96	9	19.96	8	2.4	100	2.4	0	0	989.9	NA	0.0000		9999	5480	0	0	0
2019/03/15 07:26:01	BASE	15.61	9	19.96	8	2.4	100	2.4	0	0	989.9	NA	0.0000		9999	5020	0	0	0
2019/03/15 07:27:01	BASE	16.26	9	19.96	8	2.4	100	2.4	0	0	989.8	NA	0.0000		9999	5090	0	0	0
2019/03/15 07:28:00	BASE	16.59	8	19.96	8	2.4	100	2.4	0	0	989.8	NA	0.0000		9999	4890	0	0	0
2019/03/15 07:29:00	BASE	15.88	8	19.96	8	2.4	100	2.4	0	0	989.8	NA	0.0000		9999	4690	0	0	0
2019/03/15 07:30:00	BASE	15.35	8	19.03	8	2.4	100	2.4	0	0	989.8	NA	0.0000		9999	4530	0	0	0
2019/03/15 07:31:00	BASE	15.89	7	18.37	7	2.4	100	2.4	0	0	989.8	NA	0.0000		9999	4690	0	0	0
2019/03/15 07:32:00	BASE	15.98	8	18.37	7	2.4	100	2.4	0	0	989.7	NA	0.0000		9999	4590	0	0	0
2019/03/15 07:33:00	BASE	15.33	9	18.37	7	2.4	100	2.4	0	0	989.7	NA	0.0000		9999	4590	0	0	0
2019/03/15 07:34:00	BASE	15.53	6	18.37	7	2.4	100	2.4	0	0	989.7	NA	0.0000		9999	4890	0	0	0
2019/03/15 07:35:00	BASE	15.63	5	18.37	7	2.4	100	2.4	0	0	989.8	NA	0.0000		9999	4460	4990	0	0
2019/03/15 07:36:00	BASE	15.12	6	18.37	7	2.4	100	2.4	0	0	989.8	NA	0.0000		9999	4590	5180	0	0
2019/03/15 07:37:00	BASE	15.12	6	17.90	5	2.4	100	2.4	0	0	989.8	NA	0.0000		9999	1540	4270	0	0
2019/03/15 07:38:00	BASE	15.07	6	17.18	4	2.4	100	2.4	0	0	989.8	NA	0.0000		9999	4300	0	0	0
2019/03/15 07:39:00	BASE	15.09	5	17.18	4	2.4	100	2.4	0	0	989.9	NA	0.0000		9999	4200	0	0	0
2019/03/15 07:40:00	BASE	15.23	1	17.18	4	2.4	100	2.4	0	0	989.9	NA	0.0000		9999	4040	0	0	0
2019/03/15 07:41:00	BASE	15.01	4	16.98	4	2.4	100	2.4	0	0	989.9	NA	0.0000		9999	1870	3940	0	0
2019/03/15 07:42:00	BASE	14.98	10	16.98	4	2.4	100	2.4	0	0	989.8	NA	0.0000		9999	1870	4000	0	0
2019/03/15 07:43:00	BASE	15.86	12	17.65	16	2.4	100	2.4	0	0	989.8	NA	0.0000		9999	1940	0	0	0
2019/03/15 07:44:00	BASE	15.53	13	17.65	16	2.4	100	2.4	0	0	989.8	NA	0.0000		9999	1770	0	0	0
2019/03/15 07:45:00	BASE	14.62	13	17.65	16	2.4	100	2.4	0	0	989.8	NA	0.0000		9999	1870	0	0	0
2019/03/15 07:46:00	BASE	14.47	14	17.65	16	2.4	100	2.4	0	0	989.8	NA	0.0000		9999	1870	0	0	0
2019/03/15 07:47:00	BASE	14.01	16	17.65	16	2.4	100	2.4	0	0	989.8	NA	0.0000		9999	1900	0	0	0
2019/03/15 07:48:00	BASE	13.83	17	17.65	16	2.4	100	2.4	0	0	989.7	NA	0.0000		9999	1840	0	0	0
2019/03/15 07:49:01	BASE	13.68	17	17.65	16	2.5	100	2.5	0	0	989.7	NA	0.0000		9999	1800	0	0	0
2019/03/15 07:50:01	BASE	13.45	18	17.65	16	2.5	100	2.5	0	0	989.7	NA	0.0000		9999	1770	0	0	0
2019/03/15 07:51:01	BASE	13.95	19	17.65	16	2.5	100	2.5	0	0	989.7	NA	0.0000		9999	1840	0	0	0
2019/03/15 07:52:01	BASE	14.88	19	17.65	16	2.5	100	2.5	0	0	989.7	NA	0.0000		9999	1840	0	0	0
2019/03/15 07:53:01	BASE	14.95	18	16.93	7	2.5	100	2.5	0	0	989.7	NA	0.0000		9999	1900	0	0	0
2019/03/15 07:54:01	BASE	14.69	18	15.95	18	2.5	100	2.5	0	0	989.6	NA	0.0000		9999	2130	2920	0	0
2019/03/15 07:55:01	BASE	14.52	18	15.95	18	2.5	100	2.5	0	0	989.6	NA	0.0000		9999	2620	0	0	0
2019/03/15 07:56:01	BASE	14.72	17	16.31	14	2.5	100	2.5	0	0	989.6	NA	0.0000		9999	2920	0	0	0
2019/03/15 07:57:01	BASE	14.83	17	16.31	14	2.5	100	2.5	0	0	989.7	NA	0.0000		9999	3250	0	0	0
2019/03/15 07:58:01	BASE	14.54	17	16.31	14	2.4	100	2.4	0	0	989.6	NA	0.0000		9999	3120	0	0	0
2019/03/15 07:59:01	BASE	14.72	17	16.31	14	2.4	100	2.4	0	0	989.7	NA	0.0000		9999	3050	0	0	0
2019/03/15 08:00:01	BASE	14.95	15	16.31	14	2.4	100	2.4	0	0	989.7	NA	0.0000		9999	2950	0	0	0
2019/03/15 08:01:01	BASE	14.77	14	16.31	14	2.4	100	2.4	0	0	989.7	NA	0.0000		9999	3080	3870	0	0
2019/03/15 08:02:01	BASE	14.33	13	16.31	14	2.5	100	2.5	0	0	989.7	NA	0.0000		9999	3020	0	0	0
2019/03/15 08:03:00	BASE	14.57	13	16.31	14	2.5	100	2.5	0	0	989.7	NA	0.0000		9999	3080	0	0	0
2019/03/15 08:04:01	BASE	14.83	13	16.31	14	2.5	100	2.5	0	0	989.7	NA	0.0000		9999	820	0	0	0
2019/03/15 08:05:01	BASE	14.06	14	16.31	14	2.5	100	2.5	0	0	989.7	NA	0.0000		9999	690	0	0	0
2019/03/15 08:06:00	BASE	13.58	15	16.00	11	2.5	100	2.5	0	0	989.6	NA	0.0000	UP	9999	790	0	0	0
2019/03/15 08:07:00	BASE	14.19	16	16.00	11	2.5	100	2.5	0	0	989.6	NA	0.0000	UP	9999	3150	0	0	0
2019/03/15 08:08:00	BASE	15.28	19	16.62	20	2.5	100	2.5	0	0	989.6	NA	0.0000	UP	9999	3350	0	0	0
2019/03/15 08:09:00	BASE	15.87	20	16.62	19	2.5	100	2.5	0	0	989.6	NA	0.0000	UP	9999	1940	0	0	0
2019/03/15 08:10:00	BASE	15.74	20	16.62	20	2.5	100	2.5	0	0	989.5	NA	0.0000	UP	9999	2260	4040	0	0
2019/03/15 08:11:00	BASE	15.58	20	16.62	20	2.5	100	2.5	0	0	989.5	NA	0.0000	UP	9999	2950	0	0	0
2019/03/15 08:12:00	BASE	15.02	21	16.62	20	2.6	100	2.6	0	0	989.6	NA	0.0000	UP	9999	2720	3150	0	0
2019/03/15 08:13:01	BASE	14.37	22	16.62	20	2.6	100	2.6	0	0	989.6	NA	0.0000	UP	9999	3050	0	0	0
2019/03/15 08:14:01	BASE	13.92	23	16.62	20	2.6	100	2.6	0	0	989.5	NA	0.0000	UP	9999	3120	0	0	0
2019/03/15 08:15:01	BASE	13.65	24	16.62	20	2.6	100	2.6	0	0	989.5	NA	0.0000	UP	9999	3450	0	0	0
2019/03/15 08:16:01	BASE	13.68	24	16.62	20	2.7	100	2.7	0	0	989.6	NA	0.0000		9999	3610	0	0	0
2019/03/15 08:17:01	BASE	12.92	25	16.62	20	2.7	100	2.7	0	0	989.6	NA	0.0000		9999	3480	0	0	0
2019/03/15 08:18:01	BASE	12.64	25	16.62	20	2.7	100	2.7	0	0	989.6	NA	0.0000		9999	3280	0	0	0
2019/03/15 08:19:01	BASE	12.62	27	16.62	20	2.7	100	2.7	0	0	989.5	NA	0.0000		9999	3280	0	0	0
2019/03/15 08:20:01	BASE	12.38	29	16.20	19	2.8	100	2.8	0	0	989.5	NA	0.0000		9999	3450	0	0	0
2019/03/15 08:21:01	BASE	12.58	29	15.54	22	2.8	100	2.8	0	0	989.5	NA	0.0000		9999	3410	0	0	0
2019/03/15 08:22:01	BASE	13.15	31	15.07	32	2.8	100	2.8	0	0	989.4	NA	0.0000		9999	3580	0	0	0
2019/03/15 08:23:01	BASE	13.32	30	15.07	32	2.8	100	2.8	0	0	989.4	NA	0.0000		9999	3510	0	0	0
2019/03/15 08:24:01	BASE	12.93	29	15.07	32	2.8	100	2.8	0	0	989.4	NA	0.0000		9999	3610	0	0	0
2019/03/15 08:25:01	BASE	13.34	28	15.43	24	2.9	100	2.9	0	0	989.4	NA	0.0000		9999	3580	0	0	0
2019/03/15 08:26:01	BASE	13.01	26	15.43	24	2.9	100	2.9	0	0	989.5	NA	0.0000		9999	3580	0	0	0
2019/03/15 08:27:01	BASE	13.01	27	15.43	24	2.9	100	2.9	0	0	989.5	NA	0.0000		9999	3710	0	0	0
2019/03/15 08:28:01	BASE	13.87	29	15.43	24	2.8	100	2.8	0	0	989.4	NA	0.0000		9999	3840	0	0	0
2019/03/15 08:29:01	BASE	14.04	30	15.43	24	2.8	100	2.8	0	0	989.3	NA	0.0000		9999	3940	0	0	0
2019/03/15 08:30:01	BASE	13.73	30	15.43	24	2.8	100	2.8	0	0	989.3	NA	0.0000		9999	3970	0	0	0
2019/03/15 08:31:01	BASE	13.37	30	15.43	24	2.8	100	2.8	0	0	989.2	NA	0.0000		9999	3940	0	0	0
2019/03/15 08:32:01	BASE	13.51	31	15.43	24	2.9	100	2.9	0	0	989.2	NA	0.0000		9999	3810	0	0	0
2019/03/15 08:33:01	BASE	13.84	32	15.43	24	2.8	100	2.8	0	0	989.2	NA	0.0000		9999	3770	0	0	0
2019/03/15 08:34:01	BASE	13.73	33	15.43	24	2.8	100	2.8	0	0	989.1	NA	0.0000		9999	3810	4330	0	0
2019/03/15 08:35:01	BASE	13.55	32	15.28	35	2.8	100	2.8	0	0	989.1	NA	0.0000		9999	3670	0	0	0
2019/03/15 08:36:01	BASE	13.30	32	15.28	35	2.8	100	2.8	0	0	989.1	NA	0.0000		9999	3900	0	0	0
2019/03/15 08:37:01	BASE	13.30	33	15.28	35	2.7	100	2.7	0	0	989.1	NA	0.0000		9999	3940	0	0	0
2019/03/15 08:38:01	BASE	13.94	33	16.00	36	2.7	100	2.7	0	0	989.1	NA	0.0000		9999	3810	0	0	0
2019/03/15 08:39:01	BASE	13.50	31	16.00	36	2.7	100	2.7	0	0	989.1	NA	0.0000		9999	3740	0	0	0
2019/03/15 08:40:01	BASE	13.07	31	16.00	36	2.7	100	2.7	0	0	989.1	NA	0.0000		9999	3810	0	0	0
2019/03/15 08:41:01	BASE	13.49	34	16.31	35	2.7	100	2.7	0	0	989.1	NA	0.0000		9999	3640	0	0	0
2019/03/15 08:42:01	BASE	13.45	38	16.31	35	2.7	100	2.7	0	0	989.1	NA	0.0000		9999	3710	0	0	0
2019/03/15 08:43:01	BASE	13.02	38	16.31	35	2.7	100	2.7	0	0	989.1	NA	0.0000		9999	3640	0	0	0
2019/03/15 08:44:01	BASE	12.44	37	16.31	35	2.7	100	2.7	0	0	989.1	NA	0.0000		9999	3670	0	0	0
2019/03/15 08:45:01	BASE	12.55	37	16.31	35	2.7	100	2.7	0	0	989.0	NA	0.0000		9999	2760	0	0	0
2019/03/15 08:46:01	BASE	12.66	37	16.31	35	2.7	100	2.7	0	0	989.0	NA	0.0000		9999	3840	0	0	0
2019/03/15 08:47:01	BASE	11.59	38	16.31	35	2.7	100	2.7	0	0	989.0	NA	0.0000		9999	3940	0	0	0
2019/03/15 08:48:01	BASE	11.42	38	16.31	35	2.8	100	2.8	0	0	989.0	NA	0.0000		9999	3770	0	0	0
2019/03/15 08:49:01	BASE	11.82	39	16.31	35	2.8	100	2.8	0	0	989.0	NA	0.0000		9999	3810	0	0	0
2019/03/15 08:50:01	BASE	11.84	37	16.31	35	2.8	100	2.8	0	0	988.9	NA	0.0000		9999	3770	0	0	0
2019/03/15 08:51:01	BASE	11.90	35	15.54	41	2.8	100	2.8	0	0	988.9	NA	0.0000		9999	3770	0	0	0
2019/03/15 08:52:01	BASE	11.56	36	14.56	39	2.8	100	2.8	0	0	988.9	NA	0.0000		9999	3900	0	0	0
2019/03/15 08:53:01	BASE	11.75	36	14.56	39	2.8	100	2.8	0	0	988.9	NA	0.0000		9999	3810	0	0	0
2019/03/15 08:54:01	BASE	11.55	36	14.56	39	2.8	100	2.8	0	0	988.9	NA	0.0000		9999	3770	0	0	0
2019/03/15 08:55:01	BASE	10.95	36	13.94	36	2.8	100	2.8	0	0	988.8	NA	0.0000		9999	3840	0	0	0
2019/03/15 08:56:01	BASE	11.03	36	13.58	39	2.8	100	2.8	0	0	988.8	NA	0.0000		9999	3810	0	0	0
2019/03/15 08:57:01	BASE	10.91	34	13.58	39	2.8	100	2.8	0	0	988.9	NA	0.0000		9999	3740	0	0	0
2019/03/15 08:58:01	BASE	10.98	34	13.58	39	2.8	100	2.8	0	0	988.9	NA	0.0000		9999	3740	0	0	0
2019/03/15 08:59:01	BASE	11.85	36	13.74	31	2.8	100	2.8	0	0	988.8	NA	0.0000		9999	3740	0	0	0
2019/03/15 09:00:01	BASE	11.65	33	13.74	31	2.9	100	2.9	0	0	988.8	NA	0.0000		9999	3740	0	0	0
2019/03/15 09:01:01	BASE	10.84	32	13.74	31	2.9	100	2.9	0	0	988.8	NA	0.0000		9999	3710	0	0	0
2019/03/15 09:02:01	BASE	10.53	33	13.74	31	2.9	100	2.9	0	0	988.8	NA	0.0000		9999	3710	0	0	0
2019/03/15 09:03:01	BASE	9.60	32	13.74	31	3.0	100	3.0	0	0	988.9	NA	0.0000		9999	3710	0	0	0
2019/03/15 09:04:01	BASE	9.04	33	13.74	31	3.0	100	3.0	0	0	988.9	NA	0.0000		9999	3710	0	0	0
2019/03/15 09:05:01	BASE	10.44	34	14.97	36	2.9	100	2.9	0	0	988.8	NA	0.0000		9999	3710	0	0	0
2019/03/15 09:06:01	BASE	10.26	37	14.97	36	2.9	100	2.9	0	0	988.8	NA	0.0000		9999	3640	0	0	0
2019/03/15 09:07:01	BASE	8.30	36	14.97	36	2.9	100	2.9	0	0	988.8	NA	0.0000		9999	3640	0	0	0
2019/03/15 09:08:01	BASE	8.46	34	14.97	36	2.8	100	2.8	0	0	988.8	NA	0.0000		9999	3610	0	0	0
2019/03/15 09:09:01	BASE	9.96	40	14.97	36	2.8	100	2.8	0	0	988.7	NA	0.0000		9999	3670	0	0	0
2019/03/15 09:10:01	BASE	10.24	45	14.97	36	2.9	100	2.9	0	0	988.7	NA	0.0000		9999	3670	0	0	0
2019/03/15 09:11:01	BASE	9.26	44	14.97	36	2.9	100	2.9	0	0	988.7	NA	0.0000		9999	3670	0	0	0
2019/03/15 09:12:01	BASE	8.57	38	14.97	36	2.9	100	2.9	0	0	988.7	NA	0.0000		9999	3640	0	0	0
2019/03/15 09:13:01	BASE	9.02	39	14.97	36	2.9	100	2.9	0	0	988.7	NA	0.0000		9999	3580	0	0	0
2019/03/15 09:14:01	BASE	11.06	42	14.97	36	2.9	100	2.9	0	0	988.7	NA	0.0000		9999	3580	0	0	0
2019/03/15 09:15:01	BASE	12.02	41	13.17	42	2.9	100	2.9	0	0	988.7	NA	0.0000		9999	3220	0	0	0
2019/03/15 09:16:01	BASE	12.06	41	14.04	39	2.9	100	2.9	0	0	988.7	NA	0.0000		9999	3640	0	0	0
2019/03/15 09:17:01	BASE	12.18	39	14.04	39	2.9	100	2.9	0	0	988.7	NA	0.0000		9999	3640	0	0	0
2019/03/15 09:18:01	BASE	11.02	38	14.04	39	3.0	100	3.0	0	0	988.7	NA	0.0000		9999	3610	0	0	0
2019/03/15 09:19:01	BASE	10.30	39	14.04	39	3.0	100	3.0	0	0	988.7	NA	0.0000		9999	3580	0	0	0
2019/03/15 09:20:01	BASE	11.34	39	14.04	39	3.0	100	3.0	0	0	988.6	NA	0.0000		9999	3770	0	0	0
2019/03/15 09:21:01	BASE	11.03	40	14.04	39	3.0	100	3.0	0	0	988.6	NA	0.0000		9999	3640	0	0	0
2019/03/15 09:22:01	BASE	9.69	40	14.04	39	3.0	100	3.0	0	0	988.6	NA	0.0000		9999	3610	0	0	0
2019/03/15 09:23:01	BASE	10.07	41	14.04	39	3.0	100	3.0	0	0	988.5	NA	0.0000		9999	3580	0	0	0
2019/03/15 09:24:01	BASE	10.64	40	14.04	39	3.0	100	3.0	0	0	988.6	NA	0.0000		9999	3610	0	0	0
2019/03/15 09:25:01	BASE	10.54	37	14.04	39	3.0	100	3.0	0	0	988.6	NA	0.0000		9999	3540	0	0	0
2019/03/15 09:26:01	BASE	10.00	38	13.32	36	3.0	100	3.0	0	0	988.6	NA	0.0000		9999	3510	0	0	0
2019/03/15 09:27:01	BASE	9.70	36	13.32	36	3.0	100	3.0	0	0	988.7	NA	0.0000		9999	3580	0	0	0
2019/03/15 09:28:01	BASE	9.58	32	13.32	36	3.0	100	3.0	0	0	988.7	NA	0.0000		9999	3710	0	0	0
2019/03/15 09:29:01	BASE	9.14	30	13.32	36	3.0	100	3.0	0	0	988.7	NA	0.0000		9999	3640	0	0	0
2019/03/15 09:30:01	BASE	8.36	31	12.71	28	3.1	100	3.0	0	0	988.7	NA	0.0000		9999	3050	3610	0	0
2019/03/15 09:31:01	BASE	8.13	31	12.71	28	3.1	99	3.0	0	0	988.6	NA	0.0000		9999	2720	0	0	0
2019/03/15 09:32:01	BASE	8.65	31	12.71	28	3.1	99	3.0	0	0	988.6	NA	0.0000		9999	2590	0	0	0
2019/03/15 09:33:01	BASE	9.93	34	12.71	28	3.2	98	2.9	0	0	988.5	NA	0.0000		9999	2590	3670	0	0
2019/03/15 09:34:01	BASE	10.77	35	12.71	28	3.2	98	2.9	0	0	988.5	NA	0.0000		9999	3080	3640	0	0
2019/03/15 09:35:01	BASE	10.28	34	12.66	35	3.2	98	2.9	0	0	988.5	NA	0.0000		9999	3610	0	0	0
2019/03/15 09:36:01	BASE	9.55	27	12.66	35	3.2	97	2.9	0	0	988.4	NA	0.0000		9999	3580	0	0	0
2019/03/15 09:37:01	BASE	7.88	27	12.66	35	3.2	97	2.8	0	0	988.4	NA	0.0000		9999	3640	0	0	0
2019/03/15 09:38:01	BASE	7.24	37	12.66	35	3.3	96	2.7	0	0	988.4	NA	0.0000		9999	3670	0	0	0
2019/03/15 09:39:01	BASE	7.53	46	12.66	35	3.3	95	2.6	0	0	988.3	NA	0.0000		9999	3580	0	0	0
2019/03/15 09:40:01	BASE	8.60	47	12.66	35	3.3	95	2.5	0	0	988.3	NA	0.0000		9999	3580	0	0	0
2019/03/15 09:41:01	BASE	9.33	41	12.66	35	3.3	94	2.5	0	0	988.3	NA	0.0000		9999	3610	0	0	0
2019/03/15 09:42:01	BASE	8.22	35	12.66	35	3.3	94	2.4	0	0	988.3	NA	0.0000		9999	3640	0	0	0
2019/03/15 09:43:01	BASE	6.87	32	12.66	35	3.3	94	2.4	1	0	988.3	NA	0.0000		9999	3710	0	0	0
2019/03/15 09:44:01	BASE	6.76	31	12.50	12	3.2	95	2.5	1	0	988.3	NA	0.0000		9999	3580	0	0	0
2019/03/15 09:45:01	BASE	7.18	27	12.50	12	3.2	95	2.5	1	0	988.3	NA	0.0000		9999	3580	0	0	0
2019/03/15 09:46:01	BASE	6.65	29	11.37	37	3.2	95	2.5	1	0	988.3	NA	0.0000		9999	3610	0	0	0
2019/03/15 09:47:01	BASE	7.04	38	11.37	37	3.2	95	2.4	1	0	988.2	NA	0.0000		9999	3540	0	0	0
2019/03/15 09:48:01	BASE	7.31	36	11.37	37	3.2	94	2.4	1	0	988.2	NA	0.0000		9999	3540	0	0	0
2019/03/15 09:49:01	BASE	6.99	29	11.37	37	3.3	94	2.4	1	0	988.3	NA	0.0000		9999	3540	0	0	0
2019/03/15 09:50:01	BASE	7.45	32	10.49	41	3.3	94	2.4	1	0	988.2	NA	0.0000		9999	3670	4130	0	0
2019/03/15 09:51:01	BASE	8.03	37	10.19	33	3.3	94	2.4	1	0	988.2	NA	0.0000		9999	3610	0	0	0
2019/03/15 09:52:01	BASE	8.12	28	10.55	15	3.3	94	2.4	1	0	988.1	NA	0.0000		9999	3540	0	0	0
2019/03/15 09:53:01	BASE	8.65	18	11.78	23	3.3	93	2.4	1	0	988.1	NA	0.0000		9999	3450	0	0	0
2019/03/15 09:54:01	BASE	8.80	18	11.78	23	3.3	93	2.3	1	0	988.1	NA	0.0000		9999	3450	0	0	0
2019/03/15 09:55:01	BASE	8.60	18	11.78	23	3.3	93	2.3	1	0	988.0	NA	0.0000		9999	3450	0	0	0
2019/03/15 09:56:01	BASE	8.54	18	11.78	23	3.3	93	2.3	1	0	988.0	NA	0.0000		9999	3410	0	0	0
2019/03/15 09:57:01	BASE	8.33	21	11.78	23	3.3	93	2.2	1	0	987.9	NA	0.0000		9999	3380	0	0	0
2019/03/15 09:58:01	BASE	8.82	24	11.78	23	3.3	93	2.2	1	0	987.9	NA	0.0000		9999	3450	0	0	0
2019/03/15 09:59:01	BASE	8.93	22	11.78	23	3.2	93	2.2	1	0	987.9	NA	0.0000		9999	3710	0	0	0
2019/03/15 10:00:01	BASE	8.49	18	11.78	23	3.2	93	2.2	1	0	987.9	NA	0.0000		9999	3840	0	0	0
2019/03/15 10:01:01	BASE	9.23	8	11.78	23	3.2	93	2.2	1	0	987.9	NA	0.0000		9999	3770	0	0	0
2019/03/15 10:02:01	BASE	9.00	350	11.78	23	3.2	93	2.2	1	0	987.9	NA	0.0000		9999	3670	0	0	0
2019/03/15 10:03:01	BASE	6.62	339	10.91	346	3.1	93	2.2	2	0	987.9	NA	0.0000		9999	3640	0	0	0
2019/03/15 10:04:01	BASE	4.33	341	10.91	346	3.1	94	2.2	2	0	987.9	NA	0.0000		9999	3580	0	0	0
2019/03/15 10:05:01	BASE	4.08	342	10.91	346	3.0	95	2.2	2	0	987.9	NA	0.0000		9999	3480	0	0	0
2019/03/15 10:06:01	BASE	6.45	342	10.91	346	2.9	96	2.3	2	0	987.9	NA	0.0000		9999	3350	0	0	0
2019/03/15 10:07:01	BASE	8.04	339	10.91	346	2.9	97	2.4	2	0	987.8	NA	0.0000		9999	3410	0	0	0
2019/03/15 10:08:01	BASE	6.71	328	10.91	346	2.9	97	2.5	2	0	987.9	NA	0.0000		9999	3410	3870	0	0
2019/03/15 10:09:01	BASE	4.68	326	10.91	346	3.0	97	2.6	2	0	987.9	NA	0.0000		9999	3350	0	0	0
2019/03/15 10:10:01	BASE	4.63	333	10.91	346	3.0	97	2.6	2	0	987.9	NA	0.0000		9999	3410	0	0	0
2019/03/15 10:11:01	BASE	5.80	344	10.60	348	3.0	97	2.5	2	0	987.8	NA	0.0000		9999	3410	0	0	0
2019/03/15 10:12:01	BASE	9.66	5	15.59	20	3.0	97	2.5	2	0	987.6	NA	0.0000		9999	3380	0	0	0
2019/03/15 10:13:00	BASE	14.38	21	16.57	22	3.0	97	2.5	2	0	987.5	NA	0.0000	SQ	9999	3310	0	0	0
2019/03/15 10:14:01	BASE	15.14	23	16.57	22	2.9	97	2.6	3	0	987.5	NA	0.0000	SQ	9999	3310	0	0	0
2019/03/15 10:15:00	BASE	14.52	22	16.57	22	2.9	98	2.6	3	0	987.4	NA	0.0000		9999	3280	0	0	0
2019/03/15 10:16:01	BASE	13.68	24	16.57	22	2.9	98	2.7	3	0	987.3	NA	0.0000		9999	3350	0	0	0
2019/03/15 10:17:01	BASE	12.67	29	16.57	22	2.9	99	2.7	3	0	987.3	NA	0.0000		9999	3350	0	0	0
2019/03/15 10:18:01	BASE	13.09	34	16.57	22	2.9	99	2.7	3	0	987.2	NA	0.0000		9999	3410	0	0	0
2019/03/15 10:19:01	BASE	13.92	38	16.57	22	2.8	100	2.8	3	0	987.1	NA	0.0000		9999	3410	0	0	0
2019/03/15 10:20:01	BASE	13.43	39	16.57	22	2.8	100	2.8	3	0	987.1	NA	0.0000		9999	3350	0	0	0
2019/03/15 10:21:01	BASE	13.02	40	16.57	22	2.9	100	2.8	3	0	987.0	NA	0.0000		9999	3350	0	0	0
2019/03/15 10:22:01	BASE	13.64	42	16.57	22	2.9	99	2.8	3	0	987.0	NA	0.0000		9999	3350	0	0	0
2019/03/15 10:23:01	BASE	14.39	42	16.62	38	2.9	99	2.8	3	0	986.9	NA	0.0000		9999	3410	0	0	0
2019/03/15 10:24:01	BASE	14.69	42	16.62	38	3.0	99	2.8	4	0	986.9	NA	0.0000		9999	3410	0	0	0
2019/03/15 10:25:01	BASE	14.09	40	16.62	38	3.0	98	2.7	4	0	986.9	NA	0.0000		9999	3410	0	0	0
2019/03/15 10:26:01	BASE	13.57	37	16.62	38	3.0	98	2.7	5	0	986.9	NA	0.0000		9999	3410	0	0	0
2019/03/15 10:27:01	BASE	13.99	39	16.62	38	3.0	98	2.7	5	0	986.8	NA	0.0000		9999	3350	0	0	0
2019/03/15 10:28:01	BASE	14.39	39	16.62	38	3.0	98	2.7	6	0	986.8	NA	0.0000		9999	3380	0	0	0
2019/03/15 10:29:01	BASE	14.30	37	16.62	38	3.0	98	2.7	7	0	986.8	NA	0.0000		9999	3380	0	0	0
2019/03/15 10:30:01	BASE	14.28	37	16.62	38	3.0	98	2.7	7	0	986.8	NA	0.0000		9999	3380	0	0	0
2019/03/15 10:31:01	BASE	14.82	40	16.98	38	3.0	98	2.8	8	0	986.7	NA	0.0000		9999	3380	0	0	0
2019/03/15 10:32:01	BASE	14.97	41	16.98	38	3.0	98	2.7	9	0	986.7	NA	0.0000		9999	3350	0	0	0
2019/03/15 10:33:01	BASE	13.64	40	16.98	38	3.1	97	2.7	9	0	986.8	NA	0.0000		9999	3350	0	0	0
2019/03/15 10:34:01	BASE	13.27	40	16.98	38	3.1	97	2.7	9	0	986.7	NA	0.0000		9999	3380	0	0	0
2019/03/15 10:35:01	BASE	13.58	41	16.98	38	3.2	96	2.6	8	0	986.7	NA	0.0000		9999	3380	0	0	0
2019/03/15 10:36:01	BASE	12.61	41	16.98	38	3.3	95	2.5	8	0	986.7	NA	0.0000		9999	3380	0	0	0
2019/03/15 10:37:01	BASE	12.23	41	16.98	38	3.3	94	2.4	7	0	986.7	NA	0.0000		9999	3410	0	0	0
2019/03/15 10:38:01	BASE	13.03	42	16.98	38	3.3	93	2.3	7	0	986.6	NA	0.0000		9999	3450	0	0	0
2019/03/15 10:39:01	BASE	13.54	43	16.98	38	3.4	92	2.3	6	0	986.6	NA	0.0000		9999	3410	0	0	0
2019/03/15 10:40:01	BASE	13.16	43	16.98	38	3.4	92	2.2	6	0	986.6	NA	0.0000		9999	3350	0	0	0
2019/03/15 10:41:01	BASE	12.36	42	15.74	41	3.4	91	2.1	6	0	986.6	NA	0.0000		9999	3350	0	0	0
2019/03/15 10:42:01	BASE	11.87	43	15.74	41	3.4	91	2.0	7	0	986.6	NA	0.0000		9999	3350	0	0	0
2019/03/15 10:43:01	BASE	11.50	45	15.74	41	3.4	91	2.0	7	0	986.6	NA	0.0000		9999	3310	0	0	0
2019/03/15 10:44:01	BASE	10.88	45	15.74	41	3.4	91	2.0	8	0	986.6	NA	0.0000		9999	3250	0	0	0
2019/03/15 10:45:01	BASE	8.65	47	15.74	41	3.3	91	2.0	8	0	986.7	NA	0.0000		9999	3220	0	0	0
2019/03/15 10:46:01	BASE	4.68	45	15.74	41	3.3	91	2.0	9	0	986.7	NA	0.0000		9999	3220	0	0	0
2019/03/15 10:47:01	BASE	2.09	78	15.74	41	3.3	91	2.0	10	0	986.8	NA	0.0000		9999	3220	0	0	0
2019/03/15 10:48:01	BASE	0.87	62	15.74	41	3.3	91	2.0	10	0	986.8	NA	0.0000		9999	3120	0	0	0
2019/03/15 10:49:01	BASE	1.42	292	14.97	42	3.2	92	2.0	10	0	986.8	NA	0.0000		9999	3150	0	0	0
2019/03/15 10:50:01	BASE	1.70	278	13.53	41	3.2	92	2.0	9	0	986.7	NA	0.0000		9999	2890	0	0	0
2019/03/15 10:51:01	BASE	2.79	108	12.96	38	3.1	93	2.1	8	0	986.7	NA	0.0000		9999	3020	0	0	0
2019/03/15 10:52:01	BASE	3.85	134	12.55	43	3.1	93	2.1	7	0	986.7	NA	0.0000		9999	3020	0	0	0
2019/03/15 10:53:01	BASE	2.30	188	11.47	50	3.1	94	2.2	7	0	986.7	NA	0.0000		9999	2820	0	0	0
2019/03/15 10:54:01	BASE	2.22	207	9.52	51	3.1	94	2.2	7	0	986.7	NA	0.0000		9999	3150	0	0	0
2019/03/15 10:55:01	BASE	2.55	224	6.58	98	3.0	95	2.3	8	0	986.7	NA	0.0000		9999	2430	3150	0	0
2019/03/15 10:56:01	BASE	2.10	237	6.58	98	3.0	96	2.4	8	0	986.7	NA	0.0000		9999	2460	3280	0	0
2019/03/15 10:57:01	BASE	1.84	234	6.58	98	2.9	97	2.5	8	0	986.6	NA	0.0000		9999	2690	3250	0	0
2019/03/15 10:58:01	BASE	2.20	201	6.58	98	2.9	97	2.5	8	0	986.6	NA	0.0000		9999	2460	3280	0	0
2019/03/15 10:59:01	BASE	2.55	159	6.58	98	2.8	98	2.5	8	0	986.6	NA	0.0000		9999	2430	0	0	0
2019/03/15 11:00:01	BASE	2.24	160	6.58	98	2.8	99	2.6	9	0	986.6	NA	0.0000		9999	2490	3310	0	0
2019/03/15 11:01:01	BASE	1.83	177	3.65	134	2.7	99	2.5	9	0	986.6	NA	0.0000		9999	2430	3310	0	0
2019/03/15 11:02:01	BASE	1.74	179	3.40	221	2.6	99	2.5	9	0	986.6	NA	0.0000		9999	2660	3220	0	0
2019/03/15 11:03:01	BASE	1.79	172	3.40	221	2.5	100	2.5	10	0	986.6	NA	0.0000		9999	2460	3150	0	0
2019/03/15 11:04:01	BASE	2.13	162	3.09	240	2.4	100	2.4	10	0	986.6	NA	0.0000		9999	2360	0	0	0
2019/03/15 11:05:01	BASE	2.74	156	3.76	152	2.4	100	2.4	11	0	986.6	NA	0.0000		9999	2560	0	0	0
2019/03/15 11:06:01	BASE	3.24	154	4.68	151	2.3	100	2.3	12	0	986.6	NA	0.0000		9999	2490	0	0	0
2019/03/15 11:07:01	BASE	4.20	153	5.35	155	2.3	100	2.3	13	0	986.5	NA	0.0000		9000	2430	0	0	0
2019/03/15 11:08:00	BASE	4.85	150	5.35	155	2.2	100	2.2	13	0	986.5	NA	0.0000		7000	2560	3220	0	0
2019/03/15 11:09:01	BASE	4.46	148	5.35	155	2.2	100	2.2	13	0	986.5	NA	0.0000	BR	6000	590	2560	0	0
2019/03/15 11:10:01	BASE	4.00	153	5.35	155	2.2	100	2.2	12	0	986.5	NA	0.0000	UP BR	4800	2490	0	0	0
2019/03/15 11:11:00	BASE	3.81	162	5.35	155	2.1	100	2.1	12	0	986.5	NA	0.0000	UP BR	2900	2530	3280	0	0
2019/03/15 11:12:01	BASE	3.47	166	5.35	155	2.1	100	2.1	12	0	986.6	NA	0.0000	UP BR	2100	2460	0	0	0
2019/03/15 11:13:01	BASE	2.96	168	5.35	155	2.1	100	2.1	13	0	986.6	NA	0.0000	UP BR	2100	2590	0	0	0
2019/03/15 11:14:00	BASE	2.50	167	5.35	155	2.0	100	2.0	15	0	986.6	NA	0.0000	UP BR	2300	2720	0	0	0
2019/03/15 11:15:00	BASE	2.01	165	5.35	155	2.0	100	2.0	17	0	986.5	NA	0.0000	UP BR	2600	2430	0	0	0
2019/03/15 11:16:00	BASE	1.52	158	5.35	155	2.0	100	2.0	20	0	986.5	NA	0.0000	UP BR	2700	430	2430	0	0
2019/03/15 11:17:00	BASE	1.55	151	4.99	151	1.9	100	1.9	21	0	986.5	NA	0.0000	UP BR	3100	2400	0	0	0
2019/03/15 11:18:00	BASE	1.75	154	4.63	146	1.9	100	1.9	21	0	986.4	NA	0.0000	UP BR	3700	0	0	0	3150
2019/03/15 11:19:00	BASE	1.97	149	4.27	153	1.9	100	1.9	20	0	986.4	NA	0.0000	UP BR	4100	0	0	0	2990
2019/03/15 11:20:00	BASE	1.40	149	4.22	166	1.9	100	1.9	20	0	986.4	NA	0.0000	UP BR	4300	1120	2330	0	0
2019/03/15 11:21:00	BASE	1.00	152	3.91	163	1.9	100	1.9	20	0	986.4	NA	0.0000	UP BR	4400	850	0	0	0
2019/03/15 11:22:00	BASE	1.80	146	3.19	171	1.9	100	1.9	19	0	986.4	NA	0.0000	UP BR	4400	0	0	0	3120
2019/03/15 11:23:00	BASE	1.48	136	2.88	177	1.9	100	1.9	19	0	986.4	NA	0.0000	UP BR	4400	0	0	0	3180
2019/03/15 11:24:00	BASE	1.53	139	3.55	153	1.8	100	1.8	19	0	986.4	NA	0.0000	UP BR	5000	0	0	0	3150
2019/03/15 11:25:01	BASE	2.94	158	4.27	160	1.8	100	1.8	18	0	986.4	NA	0.0000	UP BR	5000	0	0	0	3120
2019/03/15 11:26:00	BASE	3.93	169	4.78	177	1.8	100	1.8	17	0	986.4	NA	0.0000	UP BR	3200	1410	0	0	0
2019/03/15 11:27:01	BASE	4.34	173	4.78	177	1.7	100	1.7	16	0	986.4	NA	0.0000	UP BR	1700	950	0	0	0
2019/03/15 11:28:01	BASE	4.94	173	6.48	175	1.7	100	1.7	15	0	986.3	NA	0.0000	UP BR	1300	850	0	0	0
2019/03/15 11:29:01	BASE	5.71	174	6.64	176	1.6	100	1.6	14	0	986.3	NA	0.0000	UP BR	1200	720	0	0	0
2019/03/15 11:30:01	BASE	5.58	167	6.64	176	1.6	100	1.6	14	0	986.3	NA	0.0000	UP BR	1100	720	0	0	0
2019/03/15 11:31:01	BASE	5.70	161	7.00	158	1.6	100	1.6	15	0	986.3	NA	0.0000	UP BR	1000	590	0	0	0
2019/03/15 11:32:01	BASE	5.76	159	7.00	158	1.6	100	1.6	18	0	986.3	NA	0.0000	UP BR	0900	590	0	0	0
2019/03/15 11:33:01	BASE	5.11	157	7.00	158	1.7	100	1.7	21	0	986.3	NA	0.0000	UP BR	0700	660	0	0	0
2019/03/15 11:34:01	BASE	4.94	159	7.00	158	1.7	100	1.7	24	0	986.3	NA	0.0000	UP BR	0650	950	0	0	0
2019/03/15 11:35:01	BASE	4.90	155	7.00	158	1.7	100	1.7	24	0	986.3	NA	0.0000	UP BR	0600	690	0	0	0
2019/03/15 11:36:01	BASE	5.23	154	7.00	158	1.8	100	1.8	25	0	986.3	NA	0.0000	UP FG	0600	390	0	0	0
2019/03/15 11:37:01	BASE	5.54	158	7.00	158	1.8	100	1.8	25	0	986.2	NA	0.0000	UP FG	0550	620	2330	0	0
2019/03/15 11:38:01	BASE	5.90	157	7.00	158	1.8	100	1.8	23	0	986.2	NA	0.0000	UP FG	0550	0	0	0	3150
2019/03/15 11:39:01	BASE	6.75	155	7.72	159	1.8	100	1.8	22	0	986.2	NA	0.0000	UP FG	0550	820	0	0	0
2019/03/15 11:40:01	BASE	7.15	157	7.72	159	1.8	100	1.8	21	0	986.2	NA	0.0000	UP FG	0550	0	0	0	2890
2019/03/15 11:41:01	BASE	7.09	160	7.72	159	1.8	100	1.8	20	0	986.2	NA	0.0000	UP FG	0550	690	0	0	0
2019/03/15 11:42:01	BASE	7.15	164	8.08	168	1.8	100	1.8	20	0	986.1	NA	0.0000	UP FG	0600	0	0	0	2950
2019/03/15 11:43:01	BASE	6.99	163	8.08	168	1.8	100	1.8	20	0	986.0	NA	0.0000	UP FG	0650	0	0	0	2790
2019/03/15 11:44:01	BASE	6.96	165	8.28	167	1.8	100	1.8	20	0	986.0	NA	0.2540	UP FG	0750	0	0	0	2690
2019/03/15 11:45:01	BASE	7.18	169	8.28	167	1.8	100	1.8	20	0	986.0	NA	0.0000	UP FG	0800	660	0	0	0
2019/03/15 11:46:01	BASE	7.20	157	8.28	167	1.8	100	1.8	19	0	986.0	NA	0.0000	UP FG	0800	850	0	0	0
2019/03/15 11:47:01	BASE	7.26	151	8.28	167	1.8	100	1.8	20	0	986.0	NA	0.0000	UP FG	0750	690	2100	0	0
2019/03/15 11:48:01	BASE	7.27	150	8.28	167	1.8	100	1.8	20	0	986.0	NA	0.0000	UP FG	0700	0	0	0	2530
2019/03/15 11:49:01	BASE	6.52	145	8.28	167	1.8	100	1.8	20	0	986.0	NA	0.0000	UP FG	0600	790	0	0	0
2019/03/15 11:50:01	BASE	6.28	142	8.28	167	1.8	100	1.8	20	0	986.0	NA	0.0000	UP FG	0650	980	0	0	0
2019/03/15 11:51:01	BASE	6.87	145	8.28	167	1.8	100	1.8	20	0	985.9	NA	0.0000	UP FG	0700	520	0	0	0
2019/03/15 11:52:01	BASE	6.86	152	8.28	167	1.8	100	1.8	21	0	985.9	NA	0.0000	UP FG	0800	490	0	0	0
2019/03/15 11:53:01	BASE	7.53	158	9.36	159	1.8	100	1.8	23	0	985.8	NA	0.0000	UP FG	0750	0	0	0	2460
2019/03/15 11:54:01	BASE	8.60	159	9.36	159	1.8	100	1.8	23	0	985.8	NA	0.0000	UP FG	0750	820	0	0	0
2019/03/15 11:55:01	BASE	8.41	160	9.36	159	1.8	100	1.8	24	0	985.8	NA	0.0000	-RA FG	0700	0	0	0	2690
2019/03/15 11:56:01	BASE	7.79	166	9.36	159	1.8	100	1.8	24	0	985.9	NA	0.0000	-RA FG	0650	850	0	0	0
2019/03/15 11:57:01	BASE	7.20	168	9.36	159	1.8	100	1.8	24	0	985.9	NA	0.0000	-RA FG	0650	0	0	0	2720
2019/03/15 11:58:01	BASE	6.39	167	9.36	159	1.8	100	1.8	22	0	985.9	NA	0.0000	-RA FG	0700	820	0	0	0
2019/03/15 11:59:01	BASE	5.62	160	9.36	159	1.8	100	1.8	21	0	985.9	NA	0.2540	-RA FG	0750	0	0	0	2460
2019/03/15 12:00:01	BASE	5.45	151	9.36	159	1.8	100	1.8	20	0	985.9	NA	0.0000	-RA FG	0750	890	0	0	0
2019/03/15 12:01:01	BASE	6.56	147	9.36	159	1.8	100	1.8	20	0	985.8	NA	0.0000	-RA FG	0750	1020	0	0	0
2019/03/15 12:02:01	BASE	7.58	145	9.36	159	1.8	100	1.8	18	0	985.7	NA	0.0000	-RA FG	0750	720	0	0	0
2019/03/15 12:03:01	BASE	8.08	142	9.77	137	1.9	100	1.9	18	0	985.7	NA	0.0000	-RA FG	0750	690	0	0	0
2019/03/15 12:04:01	BASE	9.24	137	11.32	134	1.9	100	1.9	18	0	985.6	NA	0.0000	-RA FG	0750	620	0	0	0
2019/03/15 12:05:01	BASE	9.52	134	11.32	134	1.9	100	1.9	19	0	985.6	NA	0.0000	-RA FG	0750	720	0	0	0
2019/03/15 12:06:01	BASE	9.65	137	12.04	142	2.0	100	2.0	19	0	985.5	NA	0.0000	-RA FG	0750	390	0	0	0
2019/03/15 12:07:01	BASE	11.39	139	13.38	136	2.1	100	2.1	20	0	985.4	NA	0.0000	-RA FG	0650	360	1840	0	0
2019/03/15 12:08:01	BASE	11.87	139	13.38	136	2.1	100	2.1	21	0	985.4	NA	0.0000	-RA FG	0700	720	1800	0	0
2019/03/15 12:09:01	BASE	10.49	140	13.38	136	2.2	100	2.2	22	0	985.4	NA	0.0000	-RA FG	0700	660	0	0	0
2019/03/15 12:10:01	BASE	9.48	144	13.38	136	2.2	100	2.2	21	0	985.4	NA	0.0000	RA FG	0650	390	0	0	0
2019/03/15 12:11:01	BASE	8.99	146	13.38	136	2.2	100	2.2	20	0	985.4	NA	0.0000	-RA FG	0650	390	0	0	0
2019/03/15 12:12:01	BASE	7.93	144	13.38	136	2.2	100	2.2	20	0	985.4	NA	0.0000	-RA FG	0550	920	1640	0	0
2019/03/15 12:13:01	BASE	7.23	142	13.38	136	2.1	100	2.1	21	0	985.4	NA	0.0000	-RA FG	0550	0	0	0	1840
2019/03/15 12:14:01	BASE	7.42	145	13.38	136	2.1	100	2.1	22	0	985.4	NA	0.2540	RA FG	0600	660	0	0	0
2019/03/15 12:15:01	BASE	8.25	151	13.38	136	2.0	100	2.0	23	0	985.4	NA	0.0000	RA FG	0650	950	0	0	0
2019/03/15 12:16:01	BASE	9.49	158	13.38	136	2.0	100	2.0	24	0	985.4	NA	0.0000	RA FG	0700	390	0	0	0
2019/03/15 12:17:01	BASE	9.70	156	12.30	135	2.0	100	2.0	26	0	985.3	NA	0.0000	RA FG	0700	430	0	0	0
2019/03/15 12:18:01	BASE	10.50	152	12.35	148	2.0	100	2.0	27	0	985.3	NA	0.0000	RA FG	0650	0	0	0	2200
2019/03/15 12:19:00	BASE	12.20	149	13.27	146	2.0	100	2.0	27	0	985.2	NA	0.0000	RA FG	0700	0	0	0	2260
2019/03/15 12:20:01	BASE	12.11	149	13.27	146	2.0	100	2.0	26	0	985.2	NA	0.2540	RA FG	0700	0	0	0	2100
2019/03/15 12:21:00	BASE	11.64	149	13.27	146	2.0	100	2.0	25	0	985.2	NA	0.0000	RA FG	0750	0	0	0	2330
2019/03/15 12:22:00	BASE	11.66	149	13.27	146	1.9	100	1.9	26	0	985.3	NA	0.0000	RA FG	0750	0	0	0	2330
2019/03/15 12:23:00	BASE	11.25	151	13.27	146	1.9	100	1.9	25	0	985.3	NA	0.0000	RA FG	0650	0	0	0	2430
2019/03/15 12:24:01	BASE	10.67	147	13.27	146	1.9	100	1.9	25	0	985.3	NA	0.0000	RA FG	0600	0	0	0	2460
2019/03/15 12:25:00	BASE	10.23	146	13.27	146	2.0	100	2.0	24	0	985.3	NA	0.0000	RA FG	0700	0	0	0	2460
2019/03/15 12:26:00	BASE	10.61	146	13.27	146	2.0	100	2.0	24	0	985.2	NA	0.0000	RA FG	1000	0	0	0	2530
2019/03/15 12:27:00	BASE	11.41	143	13.27	146	1.9	100	1.9	24	0	985.2	NA	0.0000	RA FG	1200	820	0	0	0
2019/03/15 12:28:00	BASE	11.11	143	13.27	146	1.9	100	1.9	25	0	985.2	NA	0.0000	-SN FG	0900	720	0	0	0
2019/03/15 12:29:00	BASE	10.42	147	12.35	135	1.9	100	1.9	27	0	985.1	NA	0.0000	-SN FG	0800	950	0	0	0
2019/03/15 12:30:00	BASE	10.62	148	12.35	135	1.9	100	1.9	30	0	985.1	NA	0.0000	-SN FG	0800	890	0	0	0
2019/03/15 12:31:00	BASE	10.50	147	12.35	135	1.9	100	1.9	32	0	985.0	NA	0.0000	-SN FG	0900	0	0	0	2560
2019/03/15 12:32:00	BASE	10.13	143	12.35	135	1.9	100	1.9	34	0	985.0	NA	0.2540	-SN FG	1000	0	0	0	2790
2019/03/15 12:33:00	BASE	10.73	140	12.45	139	1.9	100	1.9	35	0	984.9	NA	0.0000	-SN BR	1000	0	0	0	2850
2019/03/15 12:34:01	BASE	11.04	141	12.45	139	1.9	100	1.9	37	0	984.8	NA	0.0000	-SN BR	1100	0	0	0	2920
2019/03/15 12:35:01	BASE	11.48	139	13.17	135	1.9	100	1.9	39	0	984.8	NA	0.0000	-SN BR	1100	0	0	0	3050
2019/03/15 12:36:01	BASE	11.50	137	13.17	135	1.9	100	1.9	37	0	984.8	NA	0.0000	-SN BR	1100	0	0	0	3180
2019/03/15 12:37:00	BASE	10.70	138	13.17	135	1.9	100	1.9	35	0	984.7	NA	0.0000	-SN BR	1100	0	0	0	2660
2019/03/15 12:38:01	BASE	10.76	138	13.17	135	1.9	100	1.9	33	0	984.7	NA	0.0000	-SN BR	1100	0	0	0	2720
2019/03/15 12:39:01	BASE	11.32	137	13.17	135	1.9	100	1.9	33	0	984.6	NA	0.0000	-SN BR	1200	0	0	0	2790
2019/03/15 12:40:01	BASE	11.98	137	13.17	141	1.9	100	1.9	32	0	984.6	NA	0.0000	-SN BR	1300	0	0	0	2760
2019/03/15 12:41:01	BASE	11.30	135	13.17	141	1.9	100	1.9	31	0	984.7	NA	0.0000	-SN BR	1200	0	0	0	2950
2019/03/15 12:42:01	BASE	10.31	131	13.17	141	1.9	100	1.9	29	0	984.7	NA	0.0000	-SN BR	1200	0	0	0	2850
2019/03/15 12:43:01	BASE	11.01	133	13.22	132	1.8	100	1.8	26	0	984.6	NA	0.0000	-SN BR	1200	0	0	0	3220
2019/03/15 12:44:01	BASE	11.24	132	13.22	132	1.8	100	1.8	28	0	984.6	NA	0.0000	-SN BR	1200	0	0	0	3410
2019/03/15 12:45:00	BASE	10.52	128	13.22	132	1.8	100	1.8	32	0	984.6	NA	0.0000	-SN BR	1100	0	0	0	3510
2019/03/15 12:46:01	BASE	9.86	130	13.22	132	1.8	100	1.8	35	0	984.6	NA	0.0000	-SN BR	1100	3610	0	0	0
2019/03/15 12:47:00	BASE	10.16	134	13.22	132	1.8	100	1.8	36	0	984.6	NA	0.0000	BR	1100	2760	0	0	0
2019/03/15 12:48:01	BASE	10.76	135	13.22	132	1.8	100	1.8	38	0	984.6	NA	0.0000	BR	1100	2820	0	0	0
2019/03/15 12:49:01	BASE	10.63	135	13.22	132	1.9	100	1.9	40	0	984.6	NA	0.0000	BR	1100	3540	0	0	0
2019/03/15 12:50:01	BASE	11.00	136	13.22	132	1.9	100	1.9	43	0	984.6	NA	0.0000	BR	1100	3540	0	0	0
2019/03/15 12:51:01	BASE	11.41	138	13.22	132	1.9	100	1.9	46	0	984.5	NA	0.0000	BR	1000	2170	0	0	0
2019/03/15 12:52:01	BASE	11.48	138	13.22	132	1.9	100	1.9	49	0	984.5	NA	0.0000	BR	1000	3640	0	0	0
2019/03/15 12:53:01	BASE	11.15	139	12.96	139	1.9	100	1.9	51	0	984.5	NA	0.0000	BR	1000	2430	0	0	0
2019/03/15 12:54:01	BASE	10.67	140	12.96	139	2.0	100	2.0	52	0	984.5	NA	0.0000	BR	1000	3610	0	0	0
2019/03/15 12:55:00	BASE	10.83	139	12.96	139	2.0	100	2.0	52	0	984.5	NA	0.0000	BR	1000	2330	0	0	0
2019/03/15 12:56:00	BASE	10.77	138	12.96	139	2.0	100	2.0	51	0	984.5	NA	0.0000	BR	1000	2200	0	0	0
2019/03/15 12:57:00	BASE	9.94	139	12.96	139	2.0	100	2.0	49	0	984.5	NA	0.0000	BR	1000	0	0	0	3380
2019/03/15 12:58:01	BASE	9.83	140	12.96	139	2.0	100	2.0	48	0	984.5	NA	0.0000	BR	1000	0	0	0	3150
2019/03/15 12:59:00	BASE	10.11	140	12.96	139	2.0	100	2.0	46	0	984.5	NA	0.0000	BR	1000	0	0	0	3150
2019/03/15 13:00:01	BASE	9.94	142	12.96	139	2.0	100	2.0	44	0	984.5	NA	0.0000	BR	0900	0	0	0	3150
2019/03/15 13:01:00	BASE	9.83	145	12.60	140	2.1	100	2.1	42	0	984.4	NA	0.0000	BR	0900	0	0	0	3220
2019/03/15 13:02:00	BASE	10.31	148	11.99	143	2.0	100	2.0	39	0	984.3	NA	0.0000	BR	0900	0	0	0	2990
2019/03/15 13:03:01	BASE	10.90	150	11.99	143	2.0	100	2.0	38	0	984.2	NA	0.0000	BR	0900	0	0	0	3050
2019/03/15 13:04:00	BASE	10.75	150	11.99	143	2.0	100	2.0	37	0	984.2	NA	0.0000	BR	0900	0	0	0	3020
2019/03/15 13:05:01	BASE	10.46	149	11.99	143	2.0	100	2.0	36	0	984.2	NA	0.0000	BR	0900	0	0	0	3120
2019/03/15 13:06:00	BASE	10.26	147	11.99	143	1.9	100	1.9	34	0	984.2	NA	0.0000	BR	1200	0	0	0	2990
2019/03/15 13:07:00	BASE	10.07	146	11.99	143	1.9	100	1.9	33	0	984.2	NA	0.0000	-SN BR	1400	0	0	0	2890
2019/03/15 13:08:00	BASE	10.14	147	11.63	149	1.9	100	1.9	32	0	984.2	NA	0.0000	-SN BR	1300	0	0	0	2920
2019/03/15 13:09:00	BASE	10.81	148	12.24	152	1.9	100	1.9	32	0	984.1	NA	0.0000	-SN BR	1300	0	0	0	2990
2019/03/15 13:10:00	BASE	11.58	151	12.45	155	1.9	100	1.9	32	0	984.1	NA	0.0000	-SN BR	1300	0	0	0	2990
2019/03/15 13:11:00	BASE	11.91	154	12.45	155	1.9	100	1.9	31	0	984.0	NA	0.0000	-SN BR	1200	0	0	0	2850
2019/03/15 13:12:01	BASE	12.03	155	12.45	155	1.9	100	1.9	30	0	984.0	NA	0.0000	-SN BR	1100	0	0	0	2790
2019/03/15 13:13:00	BASE	12.16	157	12.71	156	1.8	100	1.8	30	0	983.9	NA	0.0000	-SN BR	1000	0	0	0	2760
2019/03/15 13:14:00	BASE	11.98	157	12.71	150	1.8	100	1.8	31	0	983.9	NA	0.0000	-SN BR	0900	0	0	0	2760
2019/03/15 13:15:00	BASE	11.63	155	12.71	150	1.8	100	1.8	32	0	984.0	NA	0.0000	-SN BR	0800	0	0	0	2760
2019/03/15 13:16:01	BASE	11.46	152	12.71	150	1.8	100	1.8	35	0	984.0	NA	0.0000	-SN BR	0750	0	0	0	2790
2019/03/15 13:17:00	BASE	11.04	148	12.71	150	1.8	100	1.8	39	0	984.0	NA	0.0000	-SN BR	0800	0	0	0	2790
2019/03/15 13:18:00	BASE	10.20	146	12.71	150	1.8	100	1.8	44	0	984.0	NA	0.2540	-SN BR	0800	0	0	0	2820
2019/03/15 13:19:00	BASE	9.75	146	12.71	150	1.8	100	1.8	48	0	984.0	NA	0.0000	-SN BR	1000	0	0	0	2790
2019/03/15 13:20:01	BASE	10.22	147	12.71	150	1.8	100	1.8	48	0	983.9	NA	0.0000	-SN BR	1400	0	0	0	2790
2019/03/15 13:21:00	BASE	10.57	147	12.71	150	1.8	100	1.8	45	0	983.9	NA	0.0000	-SN BR	1500	0	0	0	2820
2019/03/15 13:22:01	BASE	10.90	148	12.71	150	1.7	100	1.7	42	0	983.9	NA	0.0000	-SN BR	1700	0	0	0	2850
2019/03/15 13:23:00	BASE	10.83	147	12.71	150	1.7	100	1.7	40	0	983.9	NA	0.0000	-SN BR	2200	0	0	0	2820
2019/03/15 13:24:00	BASE	9.96	145	12.60	152	1.7	100	1.7	38	0	983.9	NA	0.0000	-SN BR	2700	0	0	0	2850
2019/03/15 13:25:01	BASE	9.52	146	12.60	152	1.7	100	1.7	36	0	983.9	NA	0.0000	-SN BR	3100	0	0	0	2820
2019/03/15 13:26:00	BASE	9.41	146	12.19	146	1.7	100	1.7	36	0	983.8	NA	0.0000	-SN BR	3200	0	0	0	2790
2019/03/15 13:27:00	BASE	9.48	143	11.94	152	1.7	100	1.7	37	0	983.7	NA	0.0000	-SN BR	2600	0	0	0	2760
2019/03/15 13:28:00	BASE	9.61	142	11.94	152	1.7	100	1.7	38	0	983.7	NA	0.0000	-SN BR	2500	0	0	0	2760
2019/03/15 13:29:00	BASE	9.11	144	11.94	152	1.7	100	1.7	40	0	983.7	NA	0.0000	-SN BR	2300	0	0	0	2620
2019/03/15 13:30:00	BASE	8.63	144	11.78	145	1.7	100	1.7	42	0	983.7	NA	0.0000	-SN BR	2200	0	0	0	2560
2019/03/15 13:31:00	BASE	8.81	143	11.78	145	1.7	100	1.7	45	0	983.7	NA	0.0000	-SN BR	2600	0	0	0	2490
2019/03/15 13:32:00	BASE	8.62	142	11.78	145	1.7	100	1.7	48	0	983.7	NA	0.0000	-SN BR	2400	0	0	0	2460
2019/03/15 13:33:00	BASE	8.18	139	10.85	145	1.7	100	1.7	50	0	983.7	NA	0.0000	-SN BR	2400	0	0	0	2560
2019/03/15 13:34:00	BASE	8.01	137	10.65	142	1.7	100	1.7	52	0	983.7	NA	0.0000	-SN BR	2400	0	0	0	2430
2019/03/15 13:35:00	BASE	8.34	138	10.65	142	1.7	100	1.7	53	0	983.6	NA	0.0000	-SN BR	2200	0	0	0	2430
2019/03/15 13:36:00	BASE	8.52	140	10.65	142	1.7	100	1.7	52	0	983.5	NA	0.0000	-SN BR	2400	590	0	0	0
2019/03/15 13:37:00	BASE	8.33	141	10.29	137	1.7	100	1.7	51	0	983.5	NA	0.0000	-SN BR	2500	560	0	0	0
2019/03/15 13:38:00	BASE	9.14	139	10.19	141	1.7	100	1.7	49	0	983.5	NA	0.2540	-SN BR	2600	560	0	0	0
2019/03/15 13:39:00	BASE	9.66	139	10.19	141	1.7	100	1.7	49	0	983.4	NA	0.0000	-SN BR	1100	590	0	0	0
2019/03/15 13:40:00	BASE	9.01	138	10.19	141	1.7	100	1.7	50	0	983.4	NA	0.0000	-SN BR	1400	590	0	0	0
2019/03/15 13:41:00	BASE	8.60	136	10.08	138	1.7	100	1.7	50	0	983.3	NA	0.0000	-SN BR	2200	0	0	0	2360
2019/03/15 13:42:00	BASE	8.91	133	10.55	131	1.7	100	1.7	51	0	983.3	NA	0.0000	-SN BR	2300	620	0	0	0
2019/03/15 13:43:00	BASE	9.47	133	10.55	131	1.7	100	1.7	53	0	983.3	NA	0.0000	-SN BR	2300	590	0	0	0
2019/03/15 13:44:00	BASE	9.77	135	10.60	137	1.7	100	1.7	57	0	983.3	NA	0.0000	-SN BR	1200	620	0	0	0
2019/03/15 13:45:01	BASE	9.74	134	10.60	137	1.6	100	1.6	61	0	983.3	NA	0.0000	-SN BR	0900	620	0	0	0
2019/03/15 13:46:00	BASE	9.53	133	10.60	137	1.6	100	1.6	62	0	983.3	NA	0.0000	-SN BR	1400	720	0	0	0
2019/03/15 13:47:00	BASE	9.34	132	10.60	137	1.6	100	1.6	61	0	983.2	NA	0.0000	-SN BR	1900	690	0	0	0
2019/03/15 13:48:00	BASE	9.32	134	10.65	133	1.6	100	1.6	59	0	983.1	NA	0.0000	-SN BR	0900	720	0	0	0
2019/03/15 13:49:00	BASE	10.05	133	11.94	128	1.6	100	1.6	58	0	983.1	NA	0.0000	-SN BR	1300	690	0	0	0
2019/03/15 13:50:01	BASE	11.20	128	12.24	122	1.6	100	1.6	58	0	983.1	NA	0.2540	-SN BR	0800	820	0	0	0
2019/03/15 13:51:00	BASE	11.54	126	12.24	127	1.6	100	1.6	57	0	983.0	NA	0.0000	-SN BR	1100	0	0	0	2490
2019/03/15 13:52:00	BASE	11.44	124	12.24	127	1.6	100	1.6	57	0	982.9	NA	0.0000	-SN BR	1100	0	0	0	2530
2019/03/15 13:53:00	BASE	11.37	123	12.45	119	1.6	100	1.6	56	0	982.9	NA	0.0000	-SN BR	1300	0	0	0	2490
2019/03/15 13:54:00	BASE	11.31	122	12.45	126	1.6	100	1.6	56	0	982.9	NA	0.0000	-SN BR	1100	0	0	0	2530
2019/03/15 13:55:00	BASE	11.60	121	12.86	123	1.6	100	1.6	57	0	982.8	NA	0.0000	-SN BR	1600	0	0	0	2430
2019/03/15 13:56:00	BASE	11.74	121	12.86	123	1.6	100	1.6	57	0	982.7	NA	0.0000	-SN BR	2400	0	0	0	2620
2019/03/15 13:57:00	BASE	12.04	121	13.17	119	1.6	100	1.6	58	0	982.6	NA	0.0000	-SN BR	2900	0	0	0	2620
2019/03/15 13:58:01	BASE	12.38	119	13.17	118	1.6	100	1.6	58	0	982.6	NA	0.0000	-SN BR	3100	0	0	0	2660
2019/03/15 13:59:00	BASE	12.19	117	13.17	118	1.6	100	1.6	57	0	982.6	NA	0.0000	-SN BR	3100	0	0	0	2620
2019/03/15 14:00:01	BASE	12.28	115	13.17	118	1.6	100	1.6	59	0	982.6	NA	0.0000	-SN BR	2800	0	0	0	2460
2019/03/15 14:01:00	BASE	12.06	115	13.17	118	1.6	100	1.6	62	0	982.7	NA	0.0000	-SN BR	2400	0	0	0	2330
2019/03/15 14:02:00	BASE	11.75	116	13.17	118	1.6	100	1.6	68	0	982.7	NA	0.0000	-SN BR	1900	490	0	0	0
2019/03/15 14:03:00	BASE	11.54	117	13.17	118	1.7	100	1.7	74	0	982.7	NA	0.0000	-SN BR	1800	460	0	0	0
2019/03/15 14:04:00	BASE	10.84	117	13.17	118	1.7	100	1.7	77	0	982.7	NA	0.0000	-SN BR	2100	460	0	0	0
2019/03/15 14:05:01	BASE	10.27	114	13.17	118	1.7	100	1.7	79	0	982.7	NA	0.0000	-SN BR	2000	360	0	0	0
2019/03/15 14:06:00	BASE	10.19	113	13.17	118	1.7	100	1.7	80	0	982.7	NA	0.0000	-SN BR	1600	330	0	0	0
2019/03/15 14:07:00	BASE	10.24	116	13.17	118	1.7	100	1.7	76	0	982.7	NA	0.0000	-SN BR	1700	360	0	0	0
2019/03/15 14:08:00	BASE	10.11	118	13.12	117	1.7	100	1.7	69	0	982.7	NA	0.0000	-SN BR	1900	360	0	0	0
2019/03/15 14:09:00	BASE	10.08	116	13.02	113	1.6	100	1.6	60	0	982.7	NA	0.0000	-SN BR	1200	390	0	0	0
2019/03/15 14:10:00	BASE	10.14	116	12.86	116	1.6	100	1.6	53	0	982.7	NA	0.0000	-SN BR	0900	430	0	0	0
2019/03/15 14:11:00	BASE	10.01	117	12.86	116	1.6	100	1.6	50	0	982.7	NA	0.0000	-SN BR	1600	390	0	0	0
2019/03/15 14:12:00	BASE	9.81	117	11.78	115	1.6	100	1.6	50	0	982.7	NA	0.2540	-SN BR	3000	430	0	0	0
2019/03/15 14:13:00	BASE	9.31	117	10.91	118	1.6	100	1.6	53	0	982.6	NA	0.0000	-SN BR	3000	390	0	0	0
2019/03/15 14:14:00	BASE	8.97	118	10.91	118	1.6	100	1.6	58	0	982.6	NA	0.0000	-SN BR	3500	430	0	0	0
2019/03/15 14:15:01	BASE	8.55	117	10.91	118	1.6	100	1.6	65	0	982.6	NA	0.0000	-SN BR	3900	490	0	0	0
2019/03/15 14:16:00	BASE	7.86	114	10.55	119	1.6	100	1.6	73	0	982.6	NA	0.0000	-SN BR	3600	460	0	0	0
2019/03/15 14:17:00	BASE	7.84	112	10.44	118	1.6	100	1.6	81	0	982.6	NA	0.0000	-SN BR	3200	490	0	0	0
2019/03/15 14:18:00	BASE	8.42	110	10.44	118	1.6	100	1.6	88	0	982.5	NA	0.0000	-SN BR	3900	490	0	0	0
2019/03/15 14:19:00	BASE	8.56	109	10.44	118	1.6	100	1.6	96	0	982.4	NA	0.0000	-SN BR	3800	520	0	0	0
2019/03/15 14:20:00	BASE	8.21	108	10.44	118	1.7	100	1.7	101	0	982.4	NA	0.0000	-SN BR	3800	560	0	0	0
2019/03/15 14:21:00	BASE	8.37	109	10.03	109	1.7	100	1.7	105	0	982.3	NA	0.0000	-SN BR	4200	620	0	0	0
2019/03/15 14:22:00	BASE	9.13	109	10.49	110	1.7	100	1.7	106	0	982.3	NA	0.0000	-SN BR	3600	620	0	0	0
2019/03/15 14:23:00	BASE	9.86	109	11.47	110	1.7	100	1.7	107	0	982.2	NA	0.0000	-SN BR	3800	0	0	0	3080
2019/03/15 14:24:00	BASE	9.92	111	11.47	110	1.7	100	1.7	105	0	982.2	NA	0.0000	-SN BR	3600	0	0	0	3080
2019/03/15 14:25:00	BASE	10.12	111	11.47	110	1.8	100	1.8	101	0	982.2	NA	0.0000	-SN BR	4100	22410	0	0	0
2019/03/15 14:26:00	BASE	10.25	110	11.47	110	1.8	100	1.8	93	0	982.1	NA	0.0000	-SN BR	4400	0	0	0	3180
2019/03/15 14:27:00	BASE	10.02	110	11.47	110	1.8	100	1.8	88	0	982.1	NA	0.0000	-SN BR	4000	0	0	0	3310
2019/03/15 14:28:00	BASE	9.95	112	11.47	110	1.9	100	1.9	83	0	982.0	NA	0.0000	-SN BR	4100	0	0	0	3350
2019/03/15 14:29:00	BASE	9.61	113	11.47	110	1.9	100	1.9	81	0	982.0	NA	0.0000	-SN BR	4100	0	0	0	3610
2019/03/15 14:30:01	BASE	9.59	112	11.47	110	1.9	100	1.9	81	0	982.0	NA	0.0000	-SN BR	4000	0	0	0	3580
2019/03/15 14:31:00	BASE	10.03	114	11.47	110	1.9	100	1.9	82	0	981.9	NA	0.0000	-SN BR	3600	0	0	0	3540
2019/03/15 14:32:00	BASE	10.20	115	11.47	110	2.0	100	2.0	84	0	981.8	NA	0.0000	-SN BR	3600	0	0	0	3580
2019/03/15 14:33:00	BASE	10.01	117	11.11	113	2.0	100	2.0	85	0	981.8	NA	0.0000	-SN BR	3500	0	0	0	3810
2019/03/15 14:34:00	BASE	9.43	119	11.11	113	2.0	100	2.0	86	0	981.8	NA	0.0000	-SN BR	3300	0	0	0	4000
2019/03/15 14:35:00	BASE	9.12	121	10.80	119	2.0	100	2.0	87	0	981.8	NA	0.2540	-SN BR	3200	0	0	0	4100
2019/03/15 14:36:00	BASE	8.87	123	10.80	119	2.0	100	2.0	88	0	981.8	NA	0.0000	-SN BR	3000	0	0	0	4560
2019/03/15 14:37:00	BASE	8.65	126	10.80	119	2.0	100	2.0	89	0	981.8	NA	0.0000	-SN BR	2900	0	0	0	4230
2019/03/15 14:38:00	BASE	8.62	126	10.75	121	2.0	100	2.0	92	0	981.8	NA	0.0000	-SN BR	2800	0	0	0	3810
2019/03/15 14:39:00	BASE	8.40	126	10.75	121	2.0	100	2.0	95	0	981.7	NA	0.0000	-SN BR	2700	0	0	0	4200
2019/03/15 14:40:01	BASE	8.23	128	10.75	121	2.0	100	2.0	99	0	981.7	NA	0.0000	BR	2600	0	0	0	3670
2019/03/15 14:41:00	BASE	8.08	129	10.75	121	2.0	100	2.0	100	0	981.6	NA	0.0000	BR	2500	0	0	0	4430
2019/03/15 14:42:00	BASE	7.79	127	10.75	121	2.0	100	2.0	100	0	981.6	NA	0.0000	BR	2400	0	0	0	4230
2019/03/15 14:43:00	BASE	7.36	124	10.29	125	2.0	100	2.0	101	0	981.6	NA	0.0000	BR	2300	0	0	0	4270
2019/03/15 14:44:00	BASE	7.56	119	10.29	125	2.0	100	2.0	100	0	981.6	NA	0.0000	BR	2200	22280	0	0	0
2019/03/15 14:45:00	BASE	7.89	112	9.67	121	2.0	100	2.0	98	0	981.5	NA	0.0000	BR	2200	0	0	0	5480
2019/03/15 14:46:00	BASE	7.88	109	9.67	121	2.0	100	2.0	97	0	981.5	NA	0.0000	BR	2100	0	0	0	6300
2019/03/15 14:47:00	BASE	8.24	106	9.72	96	2.1	100	2.1	97	0	981.5	NA	0.0000	BR	2000	4590	0	0	0
2019/03/15 14:48:00	BASE	9.07	103	10.44	99	2.2	100	2.2	98	0	981.5	NA	0.0000	BR	2000	4690	0	0	0
2019/03/15 14:49:00	BASE	9.35	104	10.44	99	2.3	100	2.3	99	0	981.5	NA	0.0000	BR	1900	4530	0	0	0
2019/03/15 14:50:00	BASE	9.05	102	10.44	99	2.3	100	2.3	102	0	981.4	NA	0.0000	BR	1900	4530	0	0	0
2019/03/15 14:51:00	BASE	8.92	101	10.44	99	2.4	100	2.4	104	0	981.4	NA	0.0000	BR	1800	4300	0	0	0
2019/03/15 14:52:00	BASE	8.79	103	10.44	99	2.4	100	2.4	105	0	981.4	NA	0.0000	BR	1800	4230	0	0	0
2019/03/15 14:53:00	BASE	8.77	107	10.44	99	2.4	100	2.4	106	0	981.4	NA	0.0000	BR	1700	4130	0	0	0
2019/03/15 14:54:00	BASE	8.76	111	10.44	99	2.4	100	2.4	106	0	981.3	NA	0.0000	BR	1700	4100	0	0	0
2019/03/15 14:55:00	BASE	8.69	113	10.44	99	2.4	100	2.4	106	0	981.2	NA	0.0000	BR	1600	3940	0	0	0
2019/03/15 14:56:00	BASE	8.67	115	10.44	99	2.4	100	2.4	106	0	981.2	NA	0.0000	BR	1600	3970	0	0	0
2019/03/15 14:57:00	BASE	8.75	118	10.44	99	2.4	100	2.4	107	0	981.2	NA	0.0000	BR	1600	4040	0	0	0
2019/03/15 14:58:00	BASE	8.95	122	10.03	105	2.4	100	2.4	109	0	981.1	NA	0.0000	BR	1500	23070	0	0	0
2019/03/15 14:59:00	BASE	9.08	124	9.98	105	2.4	100	2.4	110	0	981.0	NA	0.0000	BR	1500	3900	0	0	0
2019/03/15 15:00:01	BASE	9.12	125	9.98	105	2.3	100	2.3	109	0	981.0	NA	0.0000	BR	1500	3940	0	0	0
2019/03/15 15:01:00	BASE	8.77	126	9.98	105	2.3	100	2.3	106	0	981.0	NA	0.0000	BR	1500	0	0	0	4490
2019/03/15 15:02:00	BASE	8.19	129	9.57	126	2.2	100	2.2	102	0	981.0	NA	0.0000	BR	1400	0	0	0	4560
2019/03/15 15:03:00	BASE	8.31	133	9.57	126	2.2	100	2.2	100	0	980.9	NA	0.0000	BR	1400	750	0	0	0
2019/03/15 15:04:00	BASE	8.40	136	9.57	126	2.1	100	2.1	98	0	980.9	NA	0.0000	BR	1400	750	22900	0	0
2019/03/15 15:05:00	BASE	7.87	137	9.57	126	2.0	100	2.0	100	0	980.9	NA	0.0000	BR	2600	0	0	0	4760
2019/03/15 15:06:00	BASE	7.61	137	9.57	126	2.0	100	2.0	102	0	980.8	NA	0.0000	-SN BR	3700	690	0	0	0
2019/03/15 15:07:00	BASE	7.58	137	9.57	126	2.0	100	2.0	105	0	980.8	NA	0.0000	-SN BR	2900	720	0	0	0
2019/03/15 15:08:00	BASE	7.35	138	9.57	126	1.9	100	1.9	110	0	980.7	NA	0.0000	-SN BR	2500	0	0	0	4330
2019/03/15 15:09:00	BASE	7.11	141	9.52	126	1.9	100	1.9	118	0	980.7	NA	0.0000	-SN BR	2200	0	0	0	4130
2019/03/15 15:10:00	BASE	7.05	143	8.90	136	1.9	100	1.9	126	0	980.6	NA	0.0000	-SN BR	2200	0	0	0	3770
2019/03/15 15:11:00	BASE	6.90	146	8.90	136	1.8	100	1.8	131	0	980.6	NA	0.0000	-SN BR	2100	0	0	0	3770
2019/03/15 15:12:00	BASE	6.78	149	8.90	136	1.8	100	1.8	134	0	980.6	NA	0.0000	-SN BR	2100	20340	0	0	0
2019/03/15 15:13:00	BASE	6.16	153	8.54	138	1.8	100	1.8	135	0	980.6	NA	0.0000	-SN BR	2100	0	0	0	3280
2019/03/15 15:14:00	BASE	5.60	156	8.18	139	1.9	100	1.9	135	0	980.6	NA	0.0000	-SN BR	2000	0	0	0	2850
2019/03/15 15:15:00	BASE	5.44	159	8.08	138	1.9	100	1.9	134	0	980.5	NA	0.0000	-SN BR	2000	0	0	0	2890
2019/03/15 15:16:00	BASE	5.19	161	8.08	138	1.9	100	1.9	136	0	980.5	NA	0.0000	-SN BR	2000	820	0	0	0
2019/03/15 15:17:00	BASE	4.79	159	7.72	149	1.9	100	1.9	140	0	980.4	NA	0.0000	-SN BR	2000	750	0	0	0
2019/03/15 15:18:00	BASE	4.19	150	7.72	149	1.9	100	1.9	146	0	980.4	NA	0.0000	-SN BR	2000	720	0	0	0
2019/03/15 15:19:00	BASE	3.71	135	7.72	149	1.9	100	1.9	151	0	980.4	NA	0.0000	BR	1900	690	0	0	0
2019/03/15 15:20:00	BASE	3.43	130	7.72	149	1.8	100	1.8	151	0	980.4	NA	0.0000	BR	1900	690	0	0	0
2019/03/15 15:21:00	BASE	3.12	129	7.31	153	1.8	100	1.8	147	0	980.4	NA	0.0000	BR	1900	0	0	0	3670
2019/03/15 15:22:00	BASE	2.76	124	6.58	161	1.8	100	1.8	143	0	980.4	NA	0.0000	BR	1900	0	0	0	3670
2019/03/15 15:23:00	BASE	2.44	127	6.58	161	1.9	100	1.9	138	0	980.4	NA	0.0000	BR	1900	0	0	0	3580
2019/03/15 15:24:00	BASE	2.25	134	6.53	159	1.9	100	1.9	132	0	980.3	NA	0.0000	-SN BR	3000	22540	0	0	0
2019/03/15 15:25:00	BASE	2.08	147	5.45	161	1.9	100	1.9	127	0	980.3	NA	0.0000	-SN BR	4300	0	0	0	3280
2019/03/15 15:26:00	BASE	2.00	162	4.99	161	1.9	100	1.9	126	0	980.3	NA	0.0000	-SN BR	4400	0	0	0	4360
2019/03/15 15:27:00	BASE	1.92	167	4.58	128	1.9	100	1.9	126	0	980.2	NA	0.0000	-SN BR	4700	0	0	0	4460
2019/03/15 15:28:00	BASE	1.67	174	4.48	131	1.9	100	1.9	128	0	980.2	NA	0.0000	-SN BR	4400	4300	0	0	0
2019/03/15 15:29:00	BASE	1.32	182	4.01	148	1.8	100	1.8	134	0	980.1	NA	0.0000	-SN BR	5000	0	0	0	4360
2019/03/15 15:30:00	BASE	1.05	181	3.34	125	1.9	100	1.9	143	0	980.1	NA	0.0000	-SN BR	6000	0	0	0	4400
2019/03/15 15:31:00	BASE	0.88	184	3.24	115	1.9	100	1.9	155	0	980.0	NA	0.0000	-SN BR	7000	0	0	0	5250
2019/03/15 15:32:00	BASE	1.08	188	2.62	137	1.8	100	1.8	167	0	979.9	NA	0.0000	-SN BR	7000	0	0	0	4560
2019/03/15 15:33:00	BASE	1.38	189	2.62	137	1.8	100	1.8	176	0	979.9	NA	0.0000	-SN BR	7000	4200	0	0	0
2019/03/15 15:34:00	BASE	0.95	175	2.52	189	1.9	100	1.9	184	0	979.8	NA	0.0000	-SN BR	7000	0	0	0	6890
2019/03/15 15:35:00	BASE	0.52	151	2.52	189	1.9	100	1.9	193	0	979.8	NA	0.0000	-SN BR	7000	4200	21230	0	0
2019/03/15 15:36:00	BASE	1.10	137	2.37	171	1.9	100	1.9	202	0	979.8	NA	0.0000	-SN BR	7000	0	0	0	5910
2019/03/15 15:37:00	BASE	1.53	141	2.21	139	1.9	100	1.9	209	0	979.7	NA	0.0000	-SN BR	6000	4170	0	0	0
2019/03/15 15:38:00	BASE	1.83	146	2.57	140	1.9	100	1.9	220	0	979.6	NA	0.0000	-SN BR	6000	0	0	0	5610
2019/03/15 15:39:00	BASE	2.27	145	2.57	140	1.9	100	1.9	237	0	979.5	NA	0.0000	-SN BR	6000	4860	0	0	0
2019/03/15 15:40:00	BASE	2.92	143	4.63	141	1.9	100	1.9	252	0	979.4	NA	0.0000	-SN BR	6000	0	0	0	4990
2019/03/15 15:41:00	BASE	3.92	141	4.68	141	1.9	100	1.9	253	0	979.3	NA	0.0000	BR	6000	0	0	0	5150
2019/03/15 15:42:00	BASE	4.86	144	6.38	137	1.9	100	1.9	248	0	979.2	NA	0.0000	BR	6000	4270	0	0	0
2019/03/15 15:43:00	BASE	5.63	140	6.43	143	1.9	100	1.9	238	0	979.2	NA	0.0000	BR	6000	3940	0	0	0
2019/03/15 15:44:00	BASE	6.08	132	6.89	128	1.9	100	1.9	229	0	979.1	NA	0.0000	BR	8000	3770	0	0	0
2019/03/15 15:45:00	BASE	6.28	127	6.89	128	1.9	100	1.9	220	0	979.1	NA	0.0000	BR	9999	0	0	0	4460
2019/03/15 15:46:00	BASE	6.19	125	6.89	128	1.9	100	1.9	207	0	979.2	NA	0.0000	BR	9999	0	0	0	4000
2019/03/15 15:47:00	BASE	5.94	127	6.89	128	1.9	100	1.9	196	0	979.2	NA	0.0000	BR	9999	0	0	0	3870
2019/03/15 15:48:00	BASE	5.57	131	6.89	128	1.9	100	1.9	189	0	979.2	NA	0.0000	BR	9999	0	0	0	3970
2019/03/15 15:49:00	BASE	5.41	131	6.89	128	1.9	100	1.9	187	0	979.2	NA	0.0000	BR	9999	0	0	0	3900
2019/03/15 15:50:00	BASE	4.82	127	6.89	128	1.9	100	1.9	191	0	979.2	NA	0.0000	BR	9999	0	0	0	3670
2019/03/15 15:51:00	BASE	4.44	124	6.89	128	1.9	100	1.9	196	0	979.1	NA	0.0000	BR	9999	0	0	0	3480
2019/03/15 15:52:00	BASE	4.39	122	6.89	128	1.9	100	1.9	200	0	979.1	NA	0.0000	BR	9999	0	0	0	3510
2019/03/15 15:53:00	BASE	4.12	121	6.89	128	1.9	100	1.9	204	0	979.1	NA	0.0000	BR	9000	23200	0	0	0
2019/03/15 15:54:00	BASE	4.33	120	6.89	128	2.0	100	2.0	208	0	979.1	NA	0.0000	BR	7000	0	0	0	3350
2019/03/15 15:55:00	BASE	4.15	117	6.69	124	2.0	100	2.0	208	0	979.1	NA	0.0000	-SN BR	5000	0	0	0	3220
2019/03/15 15:56:00	BASE	3.47	114	6.12	135	2.0	100	2.0	206	0	979.1	NA	0.0000	-SN BR	5000	0	0	0	2990
2019/03/15 15:57:01	BASE	2.97	108	6.12	135	2.1	100	2.1	205	0	979.1	NA	0.0000	-SN BR	5000	0	0	0	3050
2019/03/15 15:58:00	BASE	2.87	100	5.92	117	2.1	100	2.1	206	0	979.1	NA	0.0000	-SN BR	6000	0	0	0	3280
2019/03/15 15:59:00	BASE	3.09	95	5.92	117	2.1	100	2.1	210	0	979.1	NA	0.0000	-SN BR	6000	0	0	0	2920
2019/03/15 16:00:00	BASE	3.20	94	5.92	117	2.1	100	2.1	215	0	979.0	NA	0.0000	-SN BR	6000	0	0	0	3120
2019/03/15 16:01:00	BASE	3.03	95	5.92	117	2.1	100	2.1	223	0	979.0	NA	0.0000	-SN BR	6000	0	0	0	2990
2019/03/15 16:02:00	BASE	2.66	99	5.92	117	2.1	100	2.1	233	0	978.9	NA	0.0000	-SN BR	7000	0	0	0	3410
2019/03/15 16:03:00	BASE	2.62	103	5.92	117	2.1	100	2.1	246	0	978.8	NA	0.0000	-SN BR	7000	0	0	0	3310
2019/03/15 16:04:00	BASE	3.04	100	4.17	109	2.1	100	2.1	262	0	978.7	NA	0.0000	-SN BR	7000	0	0	0	3120
2019/03/15 16:05:00	BASE	3.27	97	3.76	98	2.1	100	2.1	275	0	978.7	NA	0.0000	-SN BR	8000	20110	20740	0	0
2019/03/15 16:06:00	BASE	3.11	100	3.76	98	2.1	100	2.1	285	0	978.7	NA	0.0000	-SN BR	9000	0	0	0	7150
2019/03/15 16:07:00	BASE	3.26	109	4.32	109	2.1	100	2.1	284	0	978.6	NA	0.0000	-SN BR	9999	0	0	0	4720
2019/03/15 16:08:00	BASE	3.25	117	4.32	109	2.2	100	2.2	271	0	978.6	NA	0.0000	-SN BR	9999	0	0	0	5120
2019/03/15 16:09:00	BASE	3.00	123	4.32	109	2.2	100	2.2	258	0	978.5	NA	0.0000	-SN BR	9999	0	0	0	6920
2019/03/15 16:10:00	BASE	2.80	129	4.32	109	2.2	100	2.2	255	0	978.5	NA	0.0000	-SN BR	9999	4860	0	0	0
2019/03/15 16:11:00	BASE	3.00	133	4.32	109	2.2	100	2.2	246	0	978.5	NA	0.0000	-SN BR	9999	5090	0	0	0
2019/03/15 16:12:00	BASE	3.64	136	4.32	109	2.2	100	2.2	248	0	978.5	NA	0.0000	-SN BR	9999	6730	0	0	0
2019/03/15 16:13:00	BASE	4.03	133	4.63	130	2.2	100	2.2	234	0	978.4	NA	0.0000	-SN BR	9999	5840	0	0	0
2019/03/15 16:14:00	BASE	4.15	130	4.63	130	2.1	100	2.1	226	0	978.4	NA	0.0000	-SN	9999	5710	0	0	0
2019/03/15 16:15:00	BASE	4.22	128	4.89	126	2.0	100	2.0	225	0	978.4	NA	0.0000	-SN	9999	5680	0	0	0
2019/03/15 16:16:00	BASE	4.12	127	4.89	126	2.0	100	2.0	212	0	978.4	NA	0.0000		9999	2890	19060	0	0
2019/03/15 16:17:00	BASE	3.92	128	4.89	126	2.0	100	2.0	203	0	978.3	NA	0.0000		9999	2760	0	0	0
2019/03/15 16:18:00	BASE	3.90	128	4.89	126	2.0	100	2.0	197	0	978.4	NA	0.0000		9999	2720	0	0	0
2019/03/15 16:19:00	BASE	3.57	122	4.89	126	2.1	100	2.1	193	0	978.4	NA	0.0000		9999	2720	0	0	0
2019/03/15 16:20:00	BASE	3.16	115	4.89	126	2.2	100	2.2	191	0	978.4	NA	0.0000		9999	2720	0	0	0
2019/03/15 16:21:00	BASE	3.05	114	4.89	126	2.2	100	2.2	187	0	978.4	NA	0.0000		9999	2690	0	0	0
2019/03/15 16:22:00	BASE	2.79	115	4.89	126	2.3	100	2.3	178	0	978.3	NA	0.0000		9999	2690	4200	0	0
2019/03/15 16:23:00	BASE	2.41	112	4.89	126	2.3	100	2.3	169	0	978.3	NA	0.0000		9999	2720	0	0	0
2019/03/15 16:24:00	BASE	2.04	98	4.89	126	2.4	100	2.4	162	0	978.3	NA	0.0000		9999	2660	0	0	0
2019/03/15 16:25:00	BASE	1.26	69	4.37	127	2.3	100	2.3	159	0	978.3	NA	0.0000		9999	2660	0	0	0
2019/03/15 16:26:00	BASE	0.58	22	4.22	127	2.3	100	2.3	160	0	978.2	NA	0.0000		9999	2490	20440	0	0
2019/03/15 16:27:00	BASE	0.54	356	4.22	127	2.3	100	2.3	163	0	978.2	NA	0.0000		9999	2460	0	0	0
2019/03/15 16:28:00	BASE	0.92	358	3.60	128	2.2	100	2.2	167	0	978.1	NA	0.0000		9999	2460	0	0	0
2019/03/15 16:29:00	BASE	1.30	352	3.45	117	2.2	100	2.2	174	0	978.0	NA	0.0000		9999	2400	0	0	0
2019/03/15 16:30:00	BASE	1.10	339	3.45	117	2.1	100	2.1	183	0	977.9	NA	0.0000		9999	2400	0	0	0
2019/03/15 16:31:00	BASE	1.04	319	3.09	117	2.1	100	2.1	193	0	977.9	NA	0.0000		9999	2460	5250	0	0
2019/03/15 16:32:00	BASE	1.45	306	2.68	112	2.0	100	2.0	197	0	977.9	NA	0.0000		9999	2560	5280	0	0
2019/03/15 16:33:00	BASE	1.55	317	2.52	120	2.0	100	2.0	196	0	977.8	NA	0.0000		9999	2620	5350	0	0
2019/03/15 16:34:00	BASE	1.13	326	1.95	324	2.0	100	2.0	194	0	977.8	NA	0.0000		9999	2620	5320	0	0
2019/03/15 16:35:00	BASE	0.40	337	1.95	324	2.0	100	2.0	192	0	977.8	NA	0.0000		9999	2590	0	0	0
2019/03/15 16:36:00	BASE	0.00	337	1.95	324	2.0	100	2.0	189	0	977.8	NA	0.0000		9999	2560	5180	0	0
2019/03/15 16:37:00	BASE	0.00	321	1.95	324	2.0	100	2.0	188	0	977.7	NA	0.0000		9999	5150	0	0	0
2019/03/15 16:38:00	BASE	0.00	316	1.95	324	2.0	100	2.0	187	0	977.7	NA	0.0000		9999	5020	0	0	0
2019/03/15 16:39:00	BASE	0.00	330	1.95	324	2.1	100	2.1	188	0	977.6	NA	0.0000		9999	3410	0	0	0
2019/03/15 16:40:00	BASE	0.00	5	1.95	324	2.1	100	2.1	193	0	977.5	NA	0.0000		9999	5380	0	0	0
2019/03/15 16:41:00	BASE	0.00	14	1.95	324	2.1	100	2.1	199	0	977.4	NA	0.0000		9999	5250	0	0	0
2019/03/15 16:42:00	BASE	0.00	0	1.85	318	2.1	100	2.1	203	0	977.3	NA	0.0000		9999	5320	0	0	0
2019/03/15 16:43:00	BASE	0.00	12	1.54	318	2.1	100	2.1	206	0	977.3	NA	0.0000		9999	2620	0	0	0
2019/03/15 16:44:00	BASE	0.00	9	M	M	2.2	100	2.2	207	0	977.3	NA	0.0000		9999	2590	0	0	0
2019/03/15 16:45:00	BASE	0.05	354	1.18	348	2.3	100	2.3	206	0	977.3	NA	0.0000		9999	2400	0	0	0
2019/03/15 16:46:00	BASE	0.62	350	1.39	353	2.3	100	2.3	205	0	977.3	NA	0.0000		9999	4920	0	0	0
2019/03/15 16:47:00	BASE	1.67	347	2.78	347	2.3	100	2.3	205	0	977.3	NA	0.0000		9999	4890	0	0	0
2019/03/15 16:48:00	BASE	2.19	356	2.78	347	2.3	100	2.3	206	0	977.3	NA	0.0000		9999	4920	0	0	0
2019/03/15 16:49:00	BASE	2.23	5	2.78	347	2.2	100	2.2	207	0	977.3	NA	0.0000		9999	5540	0	0	0
2019/03/15 16:50:00	BASE	2.39	4	2.78	347	2.0	100	2.0	206	0	977.3	NA	0.0000		9999	9060	0	0	0
2019/03/15 16:51:00	BASE	2.49	356	2.78	347	1.9	100	1.9	205	0	977.3	NA	0.0000		9999	5320	0	0	0
2019/03/15 16:52:00	BASE	2.64	353	3.55	350	1.7	100	1.7	206	0	977.3	NA	0.0000		9999	5380	0	0	0
2019/03/15 16:53:00	BASE	2.78	351	3.55	350	1.7	100	1.7	208	0	977.3	NA	0.0000		9999	5350	5870	0	0
2019/03/15 16:54:00	BASE	2.88	350	3.91	360	1.7	100	1.7	211	0	977.3	NA	0.0000		9999	5320	5910	0	0
2019/03/15 16:55:00	BASE	3.55	347	4.58	337	1.7	100	1.7	214	0	977.3	NA	0.0000		9999	5320	0	0	0
2019/03/15 16:56:00	BASE	4.01	339	4.58	336	1.8	100	1.8	218	0	977.3	NA	0.0000		9999	5350	0	0	0
2019/03/15 16:57:00	BASE	4.03	337	4.68	338	1.8	100	1.8	222	0	977.2	NA	0.0000		9999	5350	0	0	0
2019/03/15 16:58:00	BASE	4.04	343	4.68	338	1.8	100	1.8	226	0	977.2	NA	0.0000		9999	5250	0	0	0
2019/03/15 16:59:00	BASE	3.98	347	4.68	338	1.7	100	1.7	229	0	977.0	NA	0.0000		9999	6530	0	0	0
2019/03/15 17:00:00	BASE	4.17	346	4.68	341	1.8	100	1.8	232	0	977.1	NA	0.0000		9999	5410	0	0	0
2019/03/15 17:01:00	BASE	4.16	347	4.68	341	1.8	100	1.8	231	0	977.0	NA	0.0000		9999	5380	5810	0	0
2019/03/15 17:02:00	BASE	3.72	348	4.68	341	1.8	100	1.8	226	0	977.0	NA	0.0000		9999	5380	5910	0	0
2019/03/15 17:03:00	BASE	3.32	348	4.68	341	1.7	100	1.7	220	0	977.0	NA	0.0000		9999	5250	0	0	0
2019/03/15 17:04:00	BASE	3.19	345	4.68	341	1.7	100	1.7	212	0	977.0	NA	0.0000		9999	5150	21360	22840	0
2019/03/15 17:05:00	BASE	3.34	343	4.68	341	1.7	100	1.7	201	0	977.0	NA	0.0000		9999	5020	0	0	0
2019/03/15 17:06:00	BASE	3.70	341	4.68	341	1.6	100	1.6	188	0	976.9	NA	0.0000		9999	4990	0	0	0
2019/03/15 17:07:00	BASE	3.77	340	4.68	341	1.6	100	1.6	178	0	976.9	NA	0.0000		9999	5020	0	0	0
2019/03/15 17:08:00	BASE	3.36	339	4.68	341	1.6	100	1.6	171	0	977.0	NA	0.0000		9999	4990	0	0	0
2019/03/15 17:09:00	BASE	3.03	337	4.68	341	1.7	100	1.7	165	0	977.0	NA	0.0000		9999	4890	0	0	0
2019/03/15 17:10:00	BASE	2.82	333	4.48	344	1.7	100	1.7	159	0	977.0	NA	0.0000		9999	4890	0	0	0
2019/03/15 17:11:00	BASE	2.63	327	4.01	341	1.7	100	1.7	154	0	976.9	NA	0.0000		9999	5020	0	0	0
2019/03/15 17:12:00	BASE	2.64	324	4.01	341	1.8	100	1.8	150	0	976.8	NA	0.0000		9999	4720	0	0	0
2019/03/15 17:13:00	BASE	3.06	322	4.01	341	1.8	100	1.8	145	0	976.8	NA	0.0000		9999	4720	0	0	0
2019/03/15 17:14:00	BASE	3.55	319	4.01	341	1.8	100	1.8	141	0	976.8	NA	0.0000		9999	4660	0	0	0
2019/03/15 17:15:00	BASE	3.81	320	4.12	320	1.8	100	1.8	138	0	976.8	NA	0.0000		9999	4860	0	0	0
2019/03/15 17:16:00	BASE	4.02	321	4.27	322	1.7	100	1.7	136	0	976.8	NA	0.0000		9999	4990	0	0	0
2019/03/15 17:17:00	BASE	3.92	323	4.27	322	1.6	100	1.6	136	0	976.7	NA	0.0000		9999	4790	0	0	0
2019/03/15 17:18:00	BASE	3.60	323	4.27	322	1.6	100	1.6	139	0	976.7	NA	0.0000		9999	4690	0	0	0
2019/03/15 17:19:00	BASE	3.48	327	4.27	322	1.5	100	1.5	144	0	976.7	NA	0.0000		9999	4660	0	0	0
2019/03/15 17:20:00	BASE	3.38	332	4.27	322	1.5	100	1.5	150	0	976.6	NA	0.0000		9999	4660	0	0	0
2019/03/15 17:21:00	BASE	2.86	342	4.27	322	1.5	100	1.5	154	0	976.6	NA	0.0000		9999	4590	0	0	0
2019/03/15 17:22:00	BASE	2.28	353	4.27	322	1.5	100	1.5	157	0	976.6	NA	0.0000		9999	4530	0	0	0
2019/03/15 17:23:00	BASE	2.00	353	4.27	322	1.6	100	1.6	157	0	976.6	NA	0.0000		9999	4630	0	0	0
2019/03/15 17:24:00	BASE	1.74	348	4.27	322	1.6	100	1.6	155	0	976.6	NA	0.0000		9999	5510	0	0	0
2019/03/15 17:25:00	BASE	1.63	359	4.27	322	1.6	100	1.6	151	0	976.5	NA	0.0000		9999	4690	0	0	0
2019/03/15 17:26:00	BASE	1.80	18	3.96	322	1.7	100	1.7	148	0	976.5	NA	0.0000		9999	0	0	0	6560
2019/03/15 17:27:00	BASE	1.97	18	3.70	333	1.7	100	1.7	146	0	976.5	NA	0.0000		9999	0	0	0	6270
2019/03/15 17:28:00	BASE	1.95	14	3.70	333	1.6	100	1.6	144	0	976.5	NA	0.0000		9999	21520	0	0	0
2019/03/15 17:29:00	BASE	2.08	18	3.70	333	1.6	100	1.6	142	0	976.5	NA	0.0000		9999	0	0	0	5410
2019/03/15 17:30:00	BASE	2.16	14	2.83	339	1.6	100	1.6	138	0	976.5	NA	0.0000		9999	0	0	0	4920
2019/03/15 17:31:00	BASE	2.21	16	2.78	6	1.6	100	1.6	132	0	976.5	NA	0.0000		9999	0	0	0	4760
2019/03/15 17:32:00	BASE	2.33	15	2.78	6	1.6	100	1.6	125	0	976.5	NA	0.0000		9999	0	0	0	4720
2019/03/15 17:33:00	BASE	2.12	9	2.78	6	1.6	100	1.6	120	0	976.6	NA	0.0000		9999	0	0	0	4660
2019/03/15 17:34:00	BASE	1.43	13	2.78	6	1.6	100	1.6	117	0	976.6	NA	0.0000		9999	0	0	0	4920
2019/03/15 17:35:00	BASE	1.13	6	2.78	6	1.6	100	1.6	116	0	976.6	NA	0.0000		9999	0	0	0	5410
2019/03/15 17:36:00	BASE	1.13	1	2.78	6	1.6	100	1.6	117	0	976.5	NA	0.0000		9999	21820	0	0	0
2019/03/15 17:37:00	BASE	0.61	20	2.78	6	1.6	100	1.6	118	0	976.4	NA	0.0000		9999	0	0	0	4860
2019/03/15 17:38:00	BASE	0.13	57	2.78	6	1.7	100	1.7	119	0	976.4	NA	0.0000		9999	0	0	0	4820
2019/03/15 17:39:00	BASE	0.00	120	2.78	6	1.8	100	1.8	120	0	976.4	NA	0.0000		9999	0	0	0	4230
2019/03/15 17:40:00	BASE	0.00	174	2.68	18	1.8	100	1.8	120	0	976.4	NA	0.0000		9999	0	0	0	4790
2019/03/15 17:41:00	BASE	0.00	187	2.68	18	2.0	100	2.0	119	0	976.4	NA	0.0000		9999	0	0	0	4300
2019/03/15 17:42:00	BASE	0.00	203	2.11	17	2.1	100	2.1	118	0	976.4	NA	0.0000		9999	0	0	0	4720
2019/03/15 17:43:00	BASE	0.00	195	1.85	13	2.2	100	2.2	116	0	976.4	NA	0.0000		9999	4630	0	0	0
2019/03/15 17:44:00	BASE	0.00	187	1.44	5	2.2	100	2.2	114	0	976.4	NA	0.0000		9999	4400	0	0	0
2019/03/15 17:45:00	BASE	0.14	254	1.34	360	2.2	100	2.2	112	0	976.3	NA	0.0000		9999	4720	0	0	0
2019/03/15 17:46:00	BASE	0.68	292	1.54	290	2.1	100	2.1	110	0	976.2	NA	0.0000		9999	4690	0	0	0
2019/03/15 17:47:00	BASE	1.52	269	2.47	247	2.0	100	2.0	109	0	976.2	NA	0.0000		9999	4200	0	0	0
2019/03/15 17:48:00	BASE	2.05	248	2.47	247	1.9	100	1.9	108	0	976.2	NA	0.0000		9999	4720	0	0	0
2019/03/15 17:49:00	BASE	2.12	247	2.47	247	1.8	100	1.8	108	0	976.2	NA	0.0000		9999	0	0	0	4920
2019/03/15 17:50:00	BASE	1.71	253	2.47	247	1.7	100	1.7	109	0	976.2	NA	0.0000		9999	4660	0	0	0
2019/03/15 17:51:00	BASE	1.35	262	2.47	247	1.6	100	1.6	113	0	976.1	NA	0.0000		9999	4660	0	0	0
2019/03/15 17:52:00	BASE	1.58	261	2.47	247	1.6	100	1.6	116	0	976.0	NA	0.0000		9999	5020	0	0	0
2019/03/15 17:53:00	BASE	2.06	253	2.57	248	1.6	100	1.6	119	0	976.0	NA	0.0000		9999	4890	0	0	0
2019/03/15 17:54:00	BASE	2.07	248	2.57	248	1.5	100	1.5	118	0	976.0	NA	0.0000		9999	4890	0	0	0
2019/03/15 17:55:00	BASE	1.60	250	2.57	248	1.6	100	1.6	115	0	976.0	NA	0.0000		9000	4820	0	0	0
2019/03/15 17:56:00	BASE	1.41	264	2.57	248	1.6	100	1.6	111	0	976.0	NA	0.0000		9000	4860	0	0	0
2019/03/15 17:57:00	BASE	1.64	284	2.57	248	1.6	100	1.6	105	0	976.0	NA	0.0000		9999	6400	0	0	0
2019/03/15 17:58:00	BASE	1.99	299	2.57	248	1.6	100	1.6	101	0	976.0	NA	0.0000		9999	4820	0	0	0
2019/03/15 17:59:00	BASE	2.16	306	2.57	248	1.7	100	1.7	97	0	976.0	NA	0.0000		9999	4720	0	0	0
2019/03/15 18:00:00	BASE	2.06	308	2.57	248	1.7	100	1.7	94	0	976.0	NA	0.0000		9999	4720	0	0	0
2019/03/15 18:01:00	BASE	2.06	312	2.57	248	1.7	100	1.7	90	0	976.0	NA	0.0000		9999	4720	0	0	0
2019/03/15 18:02:00	BASE	2.26	316	2.57	248	1.8	100	1.8	87	0	976.0	NA	0.0000		9999	4760	0	0	0
2019/03/15 18:03:00	BASE	2.28	317	2.47	320	1.7	100	1.7	84	0	975.9	NA	0.0000		9999	4790	0	0	0
2019/03/15 18:04:00	BASE	2.25	319	2.47	320	1.7	100	1.7	83	0	976.0	NA	0.0000		9999	4690	0	0	0
2019/03/15 18:05:00	BASE	2.16	320	2.47	320	1.6	100	1.6	81	0	976.0	NA	0.0000		9999	4760	0	0	0
2019/03/15 18:06:00	BASE	1.87	319	2.47	320	1.6	100	1.6	79	0	976.0	NA	0.0000		9999	4760	0	0	0
2019/03/15 18:07:00	BASE	1.34	311	2.47	320	1.6	100	1.6	76	0	976.0	NA	0.0000		9999	4720	0	0	0
2019/03/15 18:08:00	BASE	0.74	303	2.47	320	1.6	100	1.6	73	0	976.0	NA	0.0000		9000	4690	0	0	0
2019/03/15 18:09:00	BASE	0.32	303	2.47	320	1.6	100	1.6	72	0	975.9	NA	0.0000		9999	4660	0	0	0
2019/03/15 18:10:00	BASE	0.09	310	2.47	320	1.6	100	1.6	72	0	975.9	NA	0.0000		9999	4690	0	0	0
2019/03/15 18:11:00	BASE	0.00	321	2.47	320	1.6	100	1.6	73	0	975.9	NA	0.0000		9999	4630	0	0	0
2019/03/15 18:12:00	BASE	0.00	326	2.47	320	1.7	100	1.7	73	0	975.9	NA	0.0000		9999	4590	23820	0	0
2019/03/15 18:13:00	BASE	0.00	329	2.37	320	1.7	100	1.7	72	0	975.8	NA	0.0000		9999	4490	0	0	0
2019/03/15 18:14:00	BASE	0.13	327	2.26	320	1.7	100	1.7	70	0	975.8	NA	0.0000		9999	4560	0	0	0
2019/03/15 18:15:00	BASE	0.18	325	1.90	320	1.7	100	1.7	69	0	975.8	NA	0.0000		9999	4530	0	0	0
2019/03/15 18:16:00	BASE	0.05	322	1.49	314	1.7	100	1.7	68	0	975.8	NA	0.0000		9999	4490	0	0	0
2019/03/15 18:17:00	BASE	0.09	325	1.18	304	1.7	100	1.7	67	0	975.8	NA	0.0000		9999	4490	0	0	0
2019/03/15 18:18:00	BASE	0.27	337	1.18	335	1.6	100	1.6	67	0	975.8	NA	0.0000		9999	4530	0	0	0
2019/03/15 18:19:00	BASE	0.27	0	1.18	335	1.6	100	1.6	66	0	975.8	NA	0.0000		9999	4530	0	0	0
2019/03/15 18:20:00	BASE	0.65	4	1.44	349	1.6	100	1.6	66	0	975.7	NA	0.0000		9999	4560	0	0	0
2019/03/15 18:21:00	BASE	1.22	343	1.65	330	1.5	100	1.5	65	0	975.6	NA	0.0000		9999	4560	0	0	0
2019/03/15 18:22:00	BASE	1.33	336	1.65	330	1.5	100	1.5	64	0	975.6	NA	0.0000		9999	4590	0	0	0
2019/03/15 18:23:00	BASE	1.18	340	1.65	330	1.4	100	1.4	63	0	975.6	NA	0.0000		9999	4590	0	0	0
2019/03/15 18:24:00	BASE	0.64	347	1.65	330	1.4	100	1.4	63	0	975.6	NA	0.0000		9999	4590	0	0	0
2019/03/15 18:25:00	BASE	0.32	353	1.65	330	1.4	100	1.4	63	0	975.6	NA	0.0000		9999	4590	0	0	0
2019/03/15 18:26:00	BASE	0.41	359	1.65	330	1.4	100	1.4	63	0	975.6	NA	0.0000		9999	4590	0	0	0
2019/03/15 18:27:00	BASE	0.83	6	1.65	330	1.4	100	1.4	63	0	975.6	NA	0.0000		9999	4630	0	0	0
2019/03/15 18:28:00	BASE	0.91	11	1.65	330	1.4	100	1.4	63	0	975.6	NA	0.0000		9999	4690	0	0	0
2019/03/15 18:29:00	BASE	0.49	5	1.65	330	1.4	100	1.4	61	0	975.6	NA	0.0000		9999	4790	0	0	0
2019/03/15 18:30:00	BASE	0.84	356	1.65	330	1.4	100	1.4	59	0	975.6	NA	0.0000		9999	4720	0	0	0
2019/03/15 18:31:00	BASE	1.30	353	1.49	354	1.4	100	1.4	57	0	975.6	NA	0.0000		9999	4820	0	0	0
2019/03/15 18:32:00	BASE	1.26	351	1.49	354	1.4	100	1.4	55	0	975.6	NA	0.0000		9999	0	0	0	5090
2019/03/15 18:33:00	BASE	0.96	340	1.49	354	1.5	100	1.4	54	0	975.6	NA	0.0000		9999	0	0	0	5050
2019/03/15 18:34:00	BASE	0.35	326	1.49	354	1.5	100	1.5	52	0	975.6	NA	0.0000	UP	9999	0	0	0	4690
2019/03/15 18:35:00	BASE	0.00	324	1.49	354	1.5	100	1.5	51	0	975.6	NA	0.0000	UP	9999	0	0	0	4660
2019/03/15 18:36:00	BASE	0.00	329	1.49	354	1.6	100	1.6	49	0	975.6	NA	0.0000	UP	9999	0	0	0	4530
2019/03/15 18:37:00	BASE	0.19	324	1.49	354	1.6	100	1.6	48	0	975.6	NA	0.0000	UP	9999	620	0	0	0
2019/03/15 18:38:00	BASE	0.90	317	1.59	319	1.6	100	1.6	46	0	975.6	NA	0.0000	UP	9000	0	0	0	4230
2019/03/15 18:39:00	BASE	1.37	325	1.59	319	1.6	100	1.6	46	0	975.6	NA	0.0000	UP	8000	0	0	0	4230
2019/03/15 18:40:00	BASE	1.12	343	1.59	319	1.6	100	1.6	46	0	975.6	NA	0.0000	UP BR	8000	0	0	0	3970
2019/03/15 18:41:00	BASE	0.46	351	1.59	319	1.5	100	1.5	46	0	975.6	NA	0.0000	UP BR	8000	0	0	0	4100
2019/03/15 18:42:00	BASE	0.41	343	1.59	319	1.5	100	1.5	46	0	975.6	NA	0.0000	UP BR	6000	0	0	0	3900
2019/03/15 18:43:00	BASE	1.05	326	1.59	319	1.4	100	1.4	47	0	975.6	NA	0.0000	UP BR	4700	0	0	0	3870
2019/03/15 18:44:00	BASE	1.42	302	1.80	290	1.3	100	1.3	47	0	975.6	NA	0.0000	UP BR	3200	300	0	0	0
2019/03/15 18:45:00	BASE	1.61	281	1.95	266	1.2	100	1.2	47	0	975.6	NA	0.0000	UP BR	4400	0	0	0	3610
2019/03/15 18:46:00	BASE	1.82	263	2.11	256	1.1	100	1.1	47	0	975.6	NA	0.0000	UP BR	6000	0	0	0	3480
2019/03/15 18:47:00	BASE	1.86	249	2.21	254	1.1	100	1.1	47	0	975.5	NA	0.0000	UP BR	5000	0	0	0	3540
2019/03/15 18:48:00	BASE	1.55	252	2.21	254	1.1	100	1.1	47	0	975.5	NA	0.0000	UP BR	5000	0	0	0	3250
2019/03/15 18:49:00	BASE	0.67	245	2.21	254	1.1	100	1.1	47	0	975.4	NA	0.0000	UP BR	6000	330	0	0	0
2019/03/15 18:50:00	BASE	0.05	227	2.21	254	1.2	100	1.2	47	0	975.4	NA	0.0000	UP BR	5000	0	0	0	2890
2019/03/15 18:51:00	BASE	0.70	221	2.21	254	1.2	100	1.2	48	0	975.4	NA	0.0000	UP BR	4500	0	0	0	2850
2019/03/15 18:52:00	BASE	1.46	201	3.45	159	1.2	100	1.2	49	0	975.5	NA	0.0000	UP BR	5000	0	0	0	2890
2019/03/15 18:53:00	BASE	2.42	174	4.01	159	1.2	100	1.2	48	0	975.4	NA	0.0000	UP BR	6000	0	0	0	2890
2019/03/15 18:54:00	BASE	2.75	166	4.01	159	1.3	100	1.3	48	0	975.5	NA	0.0000	UP BR	3900	330	0	0	0
2019/03/15 18:55:00	BASE	2.01	158	4.01	159	1.3	100	1.3	49	0	975.6	NA	0.0000	UP BR	2600	0	0	0	2690
2019/03/15 18:56:00	BASE	1.62	131	4.01	159	1.4	100	1.4	49	0	975.6	NA	0.0000	UP BR	2600	330	0	0	0
2019/03/15 18:57:00	BASE	1.67	104	4.01	159	1.5	100	1.5	48	0	975.6	NA	0.0000	UP BR	2800	0	0	0	2590
2019/03/15 18:58:00	BASE	2.36	116	4.01	159	1.5	100	1.5	49	0	975.6	NA	0.0000	UP BR	2800	330	0	0	0
2019/03/15 18:59:00	BASE	3.11	129	4.73	142	1.5	100	1.5	48	0	975.6	NA	0.0000	UP BR	2600	0	0	0	2400
2019/03/15 19:00:00	BASE	3.85	131	5.71	134	1.5	100	1.5	48	0	975.6	NA	0.0000	UP BR	2400	0	0	0	3050
2019/03/15 19:01:00	BASE	4.70	130	5.71	134	1.5	100	1.5	47	0	975.6	NA	0.0000	UP BR	1900	0	0	0	2400
2019/03/15 19:02:00	BASE	4.95	120	5.71	134	1.5	100	1.5	46	0	975.6	NA	0.0000	UP BR	1600	0	0	0	2490
2019/03/15 19:03:00	BASE	4.34	121	5.71	134	1.6	100	1.6	45	0	975.6	NA	0.0000	UP BR	1400	0	0	0	2950
2019/03/15 19:04:00	BASE	3.47	121	5.71	134	1.7	100	1.7	44	0	975.6	NA	0.0000	UP BR	1300	0	0	0	2850
2019/03/15 19:05:00	BASE	2.63	111	5.71	134	1.7	100	1.7	43	0	975.7	NA	0.0000	UP BR	1300	0	0	0	2890
2019/03/15 19:06:00	BASE	2.03	90	5.71	134	1.6	100	1.6	43	0	975.6	NA	0.0000	UP BR	1300	0	0	0	2920
2019/03/15 19:07:00	BASE	1.59	57	5.71	134	1.6	100	1.6	42	0	975.6	NA	0.0000	UP BR	1300	0	0	0	2560
2019/03/15 19:08:00	BASE	1.37	35	5.71	134	1.5	100	1.5	42	0	975.6	NA	0.0000	UP BR	1300	0	0	0	2430
2019/03/15 19:09:00	BASE	1.06	17	5.71	134	1.4	100	1.4	41	0	975.6	NA	0.0000	UP BR	1300	0	0	0	2430
2019/03/15 19:10:00	BASE	0.96	9	5.71	134	1.3	100	1.3	40	0	975.6	NA	0.0000	UP BR	1300	1020	0	0	0
2019/03/15 19:11:00	BASE	1.31	5	5.56	115	1.2	100	1.2	39	0	975.6	NA	0.0000	UP BR	1300	0	0	0	2200
2019/03/15 19:12:00	BASE	1.55	359	4.94	120	1.1	100	1.1	38	0	975.6	NA	0.0000	UP BR	1300	0	0	0	2130
2019/03/15 19:13:00	BASE	1.66	358	4.06	130	1.1	100	1.1	37	0	975.6	NA	0.0000	BR	1300	0	0	0	2130
2019/03/15 19:14:00	BASE	1.32	2	2.62	124	1.0	100	1.0	35	0	975.6	NA	0.0000	BR	2200	430	0	0	0
2019/03/15 19:15:00	BASE	0.81	6	2.52	118	1.0	100	1.0	34	0	975.6	NA	0.0000	UP BR	3500	390	0	0	0
2019/03/15 19:16:00	BASE	0.94	354	1.95	346	1.0	100	1.0	32	0	975.6	NA	0.0000	UP BR	3900	0	0	0	1970
2019/03/15 19:17:00	BASE	1.34	341	1.95	346	0.9	100	0.9	31	0	975.6	NA	0.0000	UP BR	4100	0	0	0	1900
2019/03/15 19:18:00	BASE	0.90	306	1.95	346	1.0	100	1.0	30	0	975.5	NA	0.0000	UP BR	4900	360	0	0	0
2019/03/15 19:19:00	BASE	0.22	271	1.95	346	1.0	100	1.0	29	0	975.5	NA	0.0000	UP BR	4600	360	0	0	0
2019/03/15 19:20:00	BASE	0.70	317	2.06	299	1.1	100	1.1	28	0	975.6	NA	0.0000	UP BR	4800	390	0	0	0
2019/03/15 19:21:00	BASE	1.38	305	2.06	293	1.1	100	1.1	28	0	975.6	NA	0.0000	-SN BR	4200	360	0	0	0
2019/03/15 19:22:00	BASE	1.63	282	2.11	254	1.2	100	1.2	28	0	975.5	NA	0.0000	-SN BR	4500	360	0	0	0
2019/03/15 19:23:00	BASE	1.19	277	2.11	254	1.2	100	1.2	28	0	975.5	NA	0.0000	-SN BR	4800	330	0	0	0
2019/03/15 19:24:00	BASE	0.58	287	2.11	254	1.2	100	1.2	29	0	975.6	NA	0.0000	-SN BR	4800	360	0	0	0
2019/03/15 19:25:00	BASE	0.38	269	2.11	254	1.1	100	1.1	29	0	975.5	NA	0.2540	-SN BR	3000	330	0	0	0
2019/03/15 19:26:00	BASE	0.13	213	2.11	254	1.2	100	1.2	30	0	975.6	NA	0.0000	-SN BR	2600	330	0	0	0
2019/03/15 19:27:00	BASE	0.34	253	2.11	254	1.2	100	1.2	30	0	975.5	NA	0.0000	-SN BR	3000	360	0	0	0
2019/03/15 19:28:00	BASE	1.16	351	2.78	49	1.3	100	1.3	31	0	975.4	NA	0.0000	-SN BR	3500	360	0	0	0
2019/03/15 19:29:00	BASE	2.25	48	2.98	53	1.3	100	1.3	31	0	975.5	NA	0.0000	-SN BR	4400	430	0	0	0
2019/03/15 19:30:00	BASE	2.73	76	3.34	100	1.2	100	1.2	31	0	975.6	NA	0.0000	-SN BR	4300	720	0	0	0
2019/03/15 19:31:00	BASE	2.29	72	3.34	100	1.2	100	1.2	31	0	975.6	NA	0.0000	-SN BR	7000	0	0	0	2000
2019/03/15 19:32:00	BASE	1.99	46	3.55	32	1.1	100	1.1	30	0	975.6	NA	0.0000	-SN BR	4400	430	0	0	0
2019/03/15 19:33:00	BASE	1.98	53	4.17	31	1.0	100	1.0	29	0	975.6	NA	0.0000	-SN BR	4100	0	0	0	2330
2019/03/15 19:34:00	BASE	1.29	87	4.17	31	1.0	100	1.0	28	0	975.7	NA	0.0000	-SN BR	5000	490	0	0	0
2019/03/15 19:35:00	BASE	0.57	81	4.17	31	0.9	100	0.9	28	0	975.7	NA	0.0000	-SN BR	9999	1570	0	0	0
2019/03/15 19:36:00	BASE	1.11	116	4.17	31	0.9	100	0.9	27	0	975.8	NA	0.0000	-SN BR	9999	0	0	0	2560
2019/03/15 19:37:00	BASE	3.02	162	6.38	174	1.0	100	1.0	25	0	975.8	NA	0.0000	-SN BR	9999	0	0	0	2400
2019/03/15 19:38:00	BASE	3.52	156	6.38	174	1.1	100	1.1	24	0	975.8	NA	0.0000	-SN BR	9999	560	0	0	0
2019/03/15 19:39:00	BASE	3.41	144	6.38	174	1.2	100	1.2	22	0	975.8	NA	0.0000	-SN BR	9999	590	0	0	0
2019/03/15 19:40:00	BASE	3.31	145	6.38	174	1.3	100	1.3	21	0	975.8	NA	0.0000	-SN BR	9999	560	0	0	0
2019/03/15 19:41:00	BASE	5.35	156	11.63	154	1.4	100	1.4	21	0	975.8	NA	0.0000	-SN BR	9999	590	1800	0	0
2019/03/15 19:42:00	BASE	9.56	157	13.27	163	1.4	100	1.4	20	0	975.7	NA	0.0000	-SN BR	9999	0	0	0	2130
2019/03/15 19:43:00	BASE	11.88	149	17.03	127	1.5	100	1.5	20	0	975.7	NA	0.0000	-SN	9000	430	0	0	0
2019/03/15 19:44:00	BASE	14.21	148	17.03	147	1.5	100	1.5	19	0	975.6	NA	0.0000	-SN	4000	460	0	0	0
2019/03/15 19:45:00	BASE	15.81	153	18.78	157	1.6	100	1.6	18	0	975.6	NA	0.0000	-SN BR	3300	520	0	0	0
2019/03/15 19:46:00	BASE	15.04	154	18.78	157	1.7	100	1.7	19	0	975.6	NA	0.0000	-SN BR	2800	1900	0	0	0
2019/03/15 19:47:00	BASE	14.45	152	18.78	157	1.7	100	1.7	18	0	975.6	NA	0.0000	-SN BR	2300	460	0	0	0
2019/03/15 19:48:00	BASE	16.32	151	20.32	149	1.8	100	1.8	17	0	975.6	NA	0.0000	-SN BR	2300	430	0	0	0
2019/03/15 19:49:00	BASE	17.03	153	20.32	149	1.8	100	1.8	17	0	975.6	NA	0.0000	-SN BR	1300	390	1380	0	0
2019/03/15 19:50:00	BASE	16.58	155	20.32	149	1.8	100	1.8	17	0	975.6	NA	0.0000	-SN BR	1700	460	1310	0	0
2019/03/15 19:51:00	BASE	16.98	156	20.32	149	1.8	100	1.8	18	0	975.6	NA	0.2540	-SN BR	1200	360	0	0	0
2019/03/15 19:52:00	BASE	16.41	153	20.32	149	1.8	100	1.8	18	0	975.6	NA	0.0000	-SN BR	1400	0	0	0	2430
2019/03/15 19:53:00	BASE	15.97	148	20.32	149	1.8	100	1.8	19	0	975.6	NA	0.0000	-SN BR	1100	850	0	0	0
2019/03/15 19:54:00	BASE	16.26	146	20.32	149	1.8	100	1.8	19	0	975.6	NA	0.0000	-SN BR	1400	0	0	0	2430
2019/03/15 19:55:00	BASE	15.97	146	20.32	149	1.8	100	1.8	19	0	975.6	NA	0.0000	-SN BR	2000	430	0	0	0
2019/03/15 19:56:00	BASE	15.43	147	20.32	149	1.8	100	1.8	19	0	975.6	NA	0.0000	-SN BR	2400	430	0	0	0
2019/03/15 19:57:00	BASE	15.40	149	20.32	149	1.8	100	1.8	18	0	975.6	NA	0.0000	-SN BR	2000	390	0	0	0
2019/03/15 19:58:00	BASE	15.36	150	19.29	151	1.8	100	1.8	19	0	975.6	NA	0.0000	-SN BR	2200	360	0	0	0
2019/03/15 19:59:00	BASE	15.44	148	19.29	151	1.8	100	1.8	20	0	975.6	NA	0.0000	-SN BR	1300	390	0	0	0
2019/03/15 20:00:00	BASE	15.10	146	19.29	151	1.7	100	1.7	20	0	975.6	NA	0.0000	-SN BR	2000	430	0	0	0
2019/03/15 20:01:00	BASE	13.77	147	18.42	151	1.7	100	1.7	21	0	975.7	NA	0.0000	-SN BR	2700	390	0	0	0
2019/03/15 20:02:00	BASE	12.66	149	18.26	158	1.7	100	1.7	21	0	975.7	NA	0.0000	-SN BR	3200	390	0	0	0
2019/03/15 20:03:00	BASE	12.34	150	18.26	158	1.7	100	1.7	21	0	975.8	NA	0.0000	-SN BR	2400	390	0	0	0
2019/03/15 20:04:00	BASE	12.09	151	18.21	159	1.7	100	1.7	21	0	975.8	NA	0.0000	-SN BR	2200	390	0	0	0
2019/03/15 20:05:00	BASE	12.74	148	18.01	151	1.6	100	1.6	20	0	975.8	NA	0.0000	-SN BR	3300	430	0	0	0
2019/03/15 20:06:00	BASE	13.82	145	18.01	151	1.6	100	1.6	21	0	975.8	NA	0.0000	-SN BR	1300	430	0	0	0
2019/03/15 20:07:00	BASE	14.47	145	17.23	149	1.6	100	1.6	20	0	975.8	NA	0.0000	-SN BR	1700	0	0	0	2490
2019/03/15 20:08:00	BASE	14.38	145	17.23	149	1.6	100	1.6	20	0	975.8	NA	0.0000	-SN BR	2200	430	0	0	0
2019/03/15 20:09:00	BASE	14.50	145	18.01	153	1.6	100	1.6	20	0	975.9	NA	0.0000	-SN BR	3100	0	0	0	2620
2019/03/15 20:10:00	BASE	15.01	148	18.01	153	1.7	100	1.7	20	0	975.9	NA	0.0000	-SN BR	2500	390	0	0	0
2019/03/15 20:11:00	BASE	14.51	148	18.01	153	1.7	100	1.7	20	0	975.9	NA	0.0000	-SN BR	2200	390	0	0	0
2019/03/15 20:12:00	BASE	14.00	146	18.01	153	1.7	100	1.7	20	0	976.0	NA	0.0000	-SN BR	2700	460	0	0	0
2019/03/15 20:13:00	BASE	12.83	146	18.01	153	1.7	100	1.7	19	0	976.0	NA	0.0000	-SN BR	4600	430	0	0	0
2019/03/15 20:14:00	BASE	11.65	149	18.01	153	1.7	100	1.7	18	0	976.0	NA	0.0000	-SN BR	3700	0	0	0	2300
2019/03/15 20:15:00	BASE	11.47	152	18.01	153	1.6	100	1.6	18	0	976.0	NA	0.0000	-SN BR	2800	390	0	0	0
2019/03/15 20:16:00	BASE	11.68	149	18.01	153	1.6	100	1.6	17	0	976.0	NA	0.0000	-SN BR	3100	390	0	0	0
2019/03/15 20:17:00	BASE	11.51	145	18.01	153	1.6	100	1.6	17	0	975.7	NA	0.2540	-SN BR	2800	360	0	0	0
2019/03/15 20:18:00	BASE	11.61	145	18.01	153	1.6	100	1.6	17	0	976.0	NA	0.0000	-SN BR	3100	390	0	0	0
2019/03/15 20:19:00	BASE	11.57	145	16.57	150	1.6	100	1.6	18	0	976.1	NA	0.0000	-SN BR	3300	390	0	0	0
2019/03/15 20:20:00	BASE	10.99	146	15.54	145	1.6	100	1.6	19	0	976.2	NA	0.0000	-SN BR	2600	390	0	0	0
2019/03/15 20:21:00	BASE	10.65	146	15.38	134	1.6	100	1.6	20	0	976.1	NA	0.0000	-SN BR	3000	390	0	0	0
2019/03/15 20:22:00	BASE	10.35	147	15.38	134	1.6	100	1.6	20	0	976.2	NA	0.0000	-SN BR	4300	390	0	0	0
2019/03/15 20:23:00	BASE	10.39	152	13.68	149	1.6	100	1.6	18	0	976.2	NA	0.0000	-SN BR	5000	360	0	0	0
2019/03/15 20:24:00	BASE	9.32	155	13.68	149	1.6	100	1.6	18	0	976.2	NA	0.0000	-SN BR	4400	390	0	0	0
2019/03/15 20:25:00	BASE	8.68	167	13.68	149	1.6	100	1.6	16	0	976.2	NA	0.0000	-SN BR	4000	360	0	0	0
2019/03/15 20:26:00	BASE	9.03	179	13.32	144	1.5	100	1.5	14	0	976.2	NA	0.0000	-SN BR	3900	260	0	0	0
2019/03/15 20:27:00	BASE	9.93	182	13.32	144	1.4	100	1.4	16	0	976.2	NA	0.0000	-SN BR	2000	0	0	0	950
2019/03/15 20:28:00	BASE	11.13	180	13.27	166	1.3	100	1.3	16	0	976.3	NA	0.0000	-SN BR	1900	230	0	0	0
2019/03/15 20:29:00	BASE	11.97	173	13.27	166	1.1	100	1.1	15	0	976.3	NA	0.0000	-SN BR	2000	230	0	0	0
2019/03/15 20:30:00	BASE	11.75	172	13.27	166	1.0	100	1.0	14	0	976.4	NA	0.0000	-SN BR	2100	300	0	0	0
2019/03/15 20:31:00	BASE	10.79	177	13.27	166	0.9	100	0.9	12	0	976.4	NA	0.0000	-SN BR	2200	200	0	0	0
2019/03/15 20:32:00	BASE	11.30	181	13.68	180	0.8	100	0.8	15	0	976.4	NA	0.0000	-SN BR	1700	0	0	0	690
2019/03/15 20:33:00	BASE	11.31	183	13.68	180	0.8	100	0.8	13	0	976.4	NA	0.0000	-SN BR	1500	0	0	0	1480
2019/03/15 20:34:00	BASE	9.76	180	13.68	180	0.7	100	0.7	12	0	976.5	NA	0.0000	-SN BR	1700	0	0	0	920
2019/03/15 20:35:00	BASE	8.81	176	13.68	180	0.7	100	0.7	14	0	976.5	NA	0.0000	-SN BR	1500	0	0	0	890
2019/03/15 20:36:00	BASE	8.83	174	13.68	180	0.7	100	0.7	15	0	976.6	NA	0.2540	-SN BR	1600	0	0	0	1150
2019/03/15 20:37:00	BASE	8.24	172	13.68	180	0.6	100	0.6	14	0	976.6	NA	0.0000	-SN BR	1500	0	0	0	1310
2019/03/15 20:38:00	BASE	7.46	171	13.68	180	0.6	100	0.6	13	0	976.6	NA	0.0000	-SN BR	1400	0	0	0	1250
2019/03/15 20:39:00	BASE	6.78	171	13.68	180	0.6	100	0.6	12	0	976.6	NA	0.0000	-SN BR	1600	0	0	0	1150
2019/03/15 20:40:00	BASE	6.66	175	13.68	180	0.6	100	0.6	12	0	976.7	NA	0.0000	-SN BR	1400	0	0	0	1150
2019/03/15 20:41:00	BASE	7.84	176	13.68	180	0.6	100	0.6	13	0	976.7	NA	0.0000	-SN BR	1700	0	0	0	620
2019/03/15 20:42:00	BASE	8.14	165	11.83	181	0.6	100	0.6	14	0	976.6	NA	0.0000	-SN BR	1700	0	0	0	1480
2019/03/15 20:43:00	BASE	7.28	153	10.24	180	0.6	100	0.6	13	0	976.7	NA	0.0000	-SN BR	1600	230	0	0	0
2019/03/15 20:44:00	BASE	6.85	151	10.24	180	0.6	100	0.6	13	0	976.7	NA	0.0000	-SN BR	1900	360	0	0	0
2019/03/15 20:45:00	BASE	6.65	154	10.24	180	0.6	100	0.6	14	0	976.7	NA	0.0000	-SN BR	2100	360	0	0	0
2019/03/15 20:46:00	BASE	6.35	157	9.67	169	0.6	100	0.6	14	0	976.7	NA	0.0000	-SN BR	2200	360	0	0	0
2019/03/15 20:47:00	BASE	6.37	157	9.67	169	0.6	100	0.6	14	0	976.7	NA	0.0000	-SN BR	2300	390	0	0	0
2019/03/15 20:48:00	BASE	5.86	154	9.67	169	0.6	100	0.6	14	0	976.7	NA	0.0000	-SN BR	2400	390	0	0	0
2019/03/15 20:49:00	BASE	5.22	149	9.67	169	0.6	100	0.6	13	0	976.8	NA	0.0000	-SN BR	4700	360	0	0	0
2019/03/15 20:50:00	BASE	5.28	144	9.67	169	0.7	100	0.7	13	0	976.8	NA	0.0000	-SN BR	3800	360	0	0	0
2019/03/15 20:51:00	BASE	5.19	141	9.67	169	0.7	100	0.7	12	0	976.9	NA	0.2540	-SN BR	2500	360	0	0	0
2019/03/15 20:52:00	BASE	4.76	142	7.72	159	0.6	100	0.6	12	0	976.9	NA	0.0000	-SN BR	2300	330	0	0	0
2019/03/15 20:53:00	BASE	4.35	142	7.72	159	0.6	100	0.6	12	0	977.0	NA	0.0000	-SN BR	2300	330	0	0	0
2019/03/15 20:54:00	BASE	4.01	142	7.46	147	0.6	100	0.6	11	0	977.0	NA	0.0000	-SN BR	2300	330	0	0	0
2019/03/15 20:55:00	BASE	3.78	145	7.46	147	0.6	100	0.6	11	0	977.0	NA	0.0000	-SN BR	2100	330	0	0	0
2019/03/15 20:56:00	BASE	3.79	147	7.46	147	0.6	100	0.6	11	0	977.0	NA	0.0000	-SN BR	2000	330	0	0	0
2019/03/15 20:57:00	BASE	4.14	150	6.69	157	0.6	100	0.6	10	0	977.1	NA	0.0000	-SN BR	1900	300	0	0	0
2019/03/15 20:58:00	BASE	4.16	157	6.12	142	0.6	100	0.6	10	0	977.1	NA	0.0000	-SN BR	1700	230	0	0	0
2019/03/15 20:59:00	BASE	3.60	171	6.12	142	0.6	100	0.6	9	0	977.2	NA	0.0000	-SN BR	1300	0	0	0	720
2019/03/15 21:00:00	BASE	3.93	179	6.12	142	0.6	100	0.6	9	0	977.2	NA	0.0000	-SN BR	0800	0	0	0	660
2019/03/15 21:01:00	BASE	4.58	187	5.25	196	0.6	100	0.6	9	0	977.2	NA	0.0000	-SN BR	0800	0	0	0	720
2019/03/15 21:02:00	BASE	4.51	190	5.25	196	0.6	100	0.6	9	0	977.3	NA	0.0000	-SN BR	0900	0	0	0	890
2019/03/15 21:03:00	BASE	4.25	186	5.25	196	0.6	100	0.6	9	0	977.3	NA	0.0000	-SN BR	0900	0	0	0	820
2019/03/15 21:04:00	BASE	4.38	185	5.25	196	0.5	100	0.5	9	0	977.3	NA	0.0000	-SN BR	1000	0	0	0	750
2019/03/15 21:05:00	BASE	4.07	180	5.25	196	0.5	100	0.5	10	0	977.3	NA	0.0000	+SN BR	0750	0	0	0	660
2019/03/15 21:06:00	BASE	3.24	179	5.25	196	0.5	100	0.5	10	0	977.3	NA	0.0000	+SN BR	0700	0	0	0	620
2019/03/15 21:07:00	BASE	2.97	187	5.25	196	0.5	100	0.5	10	0	977.3	NA	0.0000	+SN BR	0700	0	0	0	790
2019/03/15 21:08:00	BASE	2.78	189	5.25	196	0.5	100	0.5	11	0	977.3	NA	0.0000	SN FG	0650	0	0	0	720
2019/03/15 21:09:00	BASE	2.53	187	5.25	196	0.5	100	0.5	10	0	977.3	NA	0.0000	SN FG	0650	0	0	0	620
2019/03/15 21:10:00	BASE	2.17	189	5.25	196	0.4	100	0.4	11	0	977.3	NA	0.0000	SN FG	0550	0	0	0	560
2019/03/15 21:11:00	BASE	1.85	179	4.99	184	0.4	100	0.4	11	0	977.3	NA	0.0000	SN FG	0600	0	0	0	660
2019/03/15 21:12:00	BASE	1.77	175	4.99	184	0.4	100	0.4	11	0	977.3	NA	0.2540	SN FG	0600	0	0	0	790
2019/03/15 21:13:00	BASE	1.74	181	4.99	184	0.4	100	0.4	11	0	977.4	NA	0.0000	+SN FG	0600	0	0	0	690
2019/03/15 21:14:00	BASE	1.72	179	3.81	182	0.4	100	0.4	11	0	977.4	NA	0.0000	+SN FG	0550	0	0	0	920
2019/03/15 21:15:00	BASE	2.21	177	3.76	192	0.4	100	0.4	10	0	977.4	NA	0.0000	+SN FG	0500	0	0	0	890
2019/03/15 21:16:00	BASE	2.65	172	3.76	192	0.4	100	0.4	9	0	977.4	NA	0.0000	+SN FG	0600	0	0	0	820
2019/03/15 21:17:00	BASE	2.36	174	3.65	181	0.4	100	0.4	9	0	977.5	NA	0.0000	+SN FG	0800	0	0	0	790
2019/03/15 21:18:00	BASE	2.57	196	3.65	181	0.4	100	0.4	8	0	977.6	NA	0.0000	+SN FG	0650	0	0	0	720
2019/03/15 21:19:00	BASE	3.31	207	4.48	210	0.5	100	0.5	8	0	977.6	NA	0.0000	+SN FG	0800	0	0	0	620
2019/03/15 21:20:00	BASE	3.99	216	6.69	209	0.5	100	0.5	9	0	977.6	NA	0.0000	+SN FG	1500	260	0	0	0
2019/03/15 21:21:00	BASE	5.86	222	9.26	210	0.5	100	0.5	9	0	977.7	NA	0.0000	SN FG	1800	300	0	0	0
2019/03/15 21:22:00	BASE	7.81	211	10.24	211	0.5	100	0.5	10	0	977.7	NA	0.0000	SN FG	2100	300	0	0	0
2019/03/15 21:23:00	BASE	8.26	201	10.24	211	0.5	100	0.5	10	0	977.7	NA	0.0000	-SN FG	2000	260	0	0	0
2019/03/15 21:24:00	BASE	8.12	200	10.24	211	0.6	100	0.6	10	0	977.7	NA	0.0000	SN BR	2100	260	0	0	0
2019/03/15 21:25:00	BASE	8.72	199	10.96	199	0.6	100	0.6	10	0	977.8	NA	0.0000	-SN BR	2100	230	0	0	0
2019/03/15 21:26:00	BASE	8.59	199	10.96	199	0.6	100	0.6	11	0	977.8	NA	0.0000	-SN BR	2100	260	0	0	0
2019/03/15 21:27:00	BASE	7.91	199	10.96	199	0.7	100	0.7	11	0	977.8	NA	0.0000	-SN BR	2200	260	0	0	0
2019/03/15 21:28:00	BASE	9.27	199	11.68	195	0.7	100	0.7	11	0	977.8	NA	0.0000	-SN BR	2200	0	0	0	3250
2019/03/15 21:29:00	BASE	10.05	201	11.68	195	0.7	100	0.7	12	0	977.8	NA	0.0000	-SN BR	2600	0	0	0	2820
2019/03/15 21:30:00	BASE	9.43	203	11.68	195	0.7	100	0.7	12	0	977.8	NA	0.0000	-SN BR	4000	360	0	0	0
2019/03/15 21:31:00	BASE	8.90	207	11.68	195	0.7	100	0.7	12	0	977.8	NA	0.0000	-SN BR	7000	360	0	0	0
2019/03/15 21:32:00	BASE	9.03	206	11.68	195	0.7	100	0.7	11	0	977.8	NA	0.0000	-SN BR	9999	390	0	0	0
2019/03/15 21:33:00	BASE	9.19	207	11.68	195	0.7	100	0.7	11	0	977.9	NA	0.0000	-SN BR	9999	360	0	0	0
2019/03/15 21:34:00	BASE	9.10	210	11.68	195	0.7	100	0.7	10	0	977.9	NA	0.0000	-SN BR	9999	390	0	0	0
2019/03/15 21:35:00	BASE	9.14	210	11.68	195	0.7	100	0.7	10	0	977.9	NA	0.0000	-SN BR	9999	430	1770	0	0
2019/03/15 21:36:00	BASE	9.21	211	11.68	195	0.7	100	0.7	11	0	977.9	NA	0.0000	-SN BR	9999	390	0	0	0
2019/03/15 21:37:00	BASE	8.92	212	11.68	195	0.7	100	0.7	11	0	978.0	NA	0.0000	-SN BR	8000	390	0	0	0
2019/03/15 21:38:00	BASE	9.01	214	12.04	215	0.7	100	0.7	12	0	978.1	NA	0.0000	-SN BR	9999	430	1870	0	0
2019/03/15 21:39:00	BASE	9.29	216	12.04	215	0.7	100	0.7	12	0	978.0	NA	0.0000	-SN BR	9999	430	1800	0	0
2019/03/15 21:40:00	BASE	9.60	216	12.04	215	0.7	100	0.7	13	0	978.1	NA	0.0000	-SN	9999	430	1800	0	0
2019/03/15 21:41:00	BASE	9.95	218	12.04	215	0.7	100	0.7	14	0	978.1	NA	0.0000	-SN	9999	1870	0	0	0
2019/03/15 21:42:00	BASE	9.89	219	12.45	220	0.7	100	0.7	14	0	978.1	NA	0.2540	-SN	9999	1800	0	0	0
2019/03/15 21:43:00	BASE	10.70	216	12.45	209	0.7	100	0.7	15	0	978.1	NA	0.0000	-SN	9999	2070	0	0	0
2019/03/15 21:44:00	BASE	10.34	214	12.45	209	0.7	100	0.7	15	0	978.1	NA	0.0000	-SN	9999	2100	0	0	0
2019/03/15 21:45:00	BASE	9.23	213	12.45	209	0.7	100	0.7	15	0	978.1	NA	0.0000	-SN	9999	0	0	0	6990
2019/03/15 21:46:00	BASE	9.58	217	12.45	209	0.8	100	0.8	15	0	978.1	NA	0.0000	-SN	9999	2200	0	0	0
2019/03/15 21:47:00	BASE	9.57	221	12.45	209	0.8	100	0.8	15	0	978.2	NA	0.0000	-SN	9999	0	0	0	7420
2019/03/15 21:48:00	BASE	9.63	221	12.45	209	0.8	100	0.8	15	0	978.2	NA	0.0000		9999	2170	0	0	0
2019/03/15 21:49:00	BASE	10.05	220	12.45	209	0.8	100	0.8	16	0	978.2	NA	0.0000		9999	2200	0	0	0
2019/03/15 21:50:00	BASE	10.59	220	12.45	209	0.8	100	0.8	17	0	978.2	NA	0.0000		9999	2330	0	0	0
2019/03/15 21:51:00	BASE	11.18	222	12.45	209	0.8	100	0.8	17	0	978.3	NA	0.0000		9999	2260	0	0	0
2019/03/15 21:52:00	BASE	10.43	224	12.45	209	0.8	100	0.8	18	0	978.3	NA	0.0000		9999	2260	0	0	0
2019/03/15 21:53:00	BASE	10.40	227	13.53	223	0.8	100	0.8	20	0	978.2	NA	0.0000		9999	2260	0	0	0
2019/03/15 21:54:00	BASE	12.02	227	13.68	222	0.8	100	0.8	21	0	978.2	NA	0.0000		9999	2260	0	0	0
2019/03/15 21:55:00	BASE	11.65	226	13.68	222	0.8	100	0.8	23	0	978.3	NA	0.0000		9999	2360	0	0	0
2019/03/15 21:56:00	BASE	10.94	226	13.68	222	0.8	100	0.8	26	0	978.2	NA	0.0000		9999	5050	7220	0	0
2019/03/15 21:57:00	BASE	11.50	231	15.54	228	0.8	100	0.8	27	0	978.3	NA	0.0000		9999	6230	0	0	0
2019/03/15 21:58:00	BASE	11.01	232	15.54	228	0.9	100	0.9	29	0	978.3	NA	0.0000		9999	6370	0	0	0
2019/03/15 21:59:00	BASE	11.30	230	15.54	228	0.9	100	0.9	32	0	978.3	NA	0.0000		9999	6400	0	0	0
2019/03/15 22:00:00	BASE	11.84	231	15.54	228	0.9	100	0.9	35	0	978.3	NA	0.0000		9999	7190	0	0	0
2019/03/15 22:01:00	BASE	10.18	231	15.54	228	0.9	100	0.9	38	0	978.4	NA	0.0000		9999	920	6920	0	0
2019/03/15 22:02:00	BASE	8.86	231	15.54	228	0.9	100	0.9	41	0	978.4	NA	0.0000		9999	6790	0	0	0
2019/03/15 22:03:00	BASE	11.07	231	15.54	228	0.9	100	0.9	45	0	978.4	NA	0.0000		9999	1350	7870	0	0
2019/03/15 22:04:00	BASE	13.14	231	15.54	228	0.9	100	0.9	48	0	978.4	NA	0.0000		9999	7420	0	0	0
2019/03/15 22:05:00	BASE	11.95	231	15.54	228	0.9	100	0.9	49	0	978.5	NA	0.0000		9999	7450	0	0	0
2019/03/15 22:06:00	BASE	10.29	233	15.54	228	1.0	100	1.0	49	0	978.5	NA	0.0000		9999	820	1380	0	0
2019/03/15 22:07:00	BASE	9.75	234	15.48	230	1.0	100	1.0	49	0	978.5	NA	0.0000		9999	1410	7840	0	0
2019/03/15 22:08:00	BASE	10.29	238	15.48	230	1.0	100	1.0	49	0	978.5	NA	0.0000		9999	980	1410	7970	0
2019/03/15 22:09:00	BASE	10.66	239	15.48	230	1.0	100	1.0	48	0	978.5	NA	0.0000		9999	920	1440	8170	0
2019/03/15 22:10:00	BASE	11.16	236	15.48	230	1.0	100	1.0	48	0	978.6	NA	0.0000		9999	1380	8170	0	0
2019/03/15 22:11:00	BASE	11.51	234	15.48	230	1.0	100	1.0	46	0	978.6	NA	0.0000		9999	750	8240	0	0
2019/03/15 22:12:00	BASE	12.73	233	16.67	236	1.1	100	1.1	44	0	978.6	NA	0.0000		9999	6530	8100	0	0
2019/03/15 22:13:00	BASE	12.74	233	16.67	236	1.1	100	1.1	41	0	978.7	NA	0.0000		9999	4820	6560	0	0
2019/03/15 22:14:00	BASE	10.95	231	16.67	236	1.1	100	1.1	38	0	978.7	NA	0.0000		9999	4720	7710	0	0
2019/03/15 22:15:00	BASE	10.60	232	16.67	236	1.1	100	1.1	34	0	978.8	NA	0.0000		9999	4890	7780	0	0
2019/03/15 22:16:00	BASE	11.03	233	16.67	236	1.1	100	1.1	31	0	978.9	NA	0.0000		9999	6040	0	0	0
2019/03/15 22:17:00	BASE	11.53	232	16.67	236	1.0	100	1.0	28	0	978.9	NA	0.0000		9999	6760	0	0	0
2019/03/15 22:18:00	BASE	11.36	233	16.67	236	1.0	100	1.0	25	0	978.9	NA	0.0000		9999	6920	8530	0	0
2019/03/15 22:19:00	BASE	10.54	234	16.67	236	1.0	100	1.0	22	0	978.9	NA	0.0000		9999	720	6270	0	0
2019/03/15 22:20:00	BASE	9.79	235	16.67	236	1.0	100	1.0	20	0	979.0	NA	0.0000		9999	6170	7250	0	0
2019/03/15 22:21:00	BASE	10.54	236	16.67	236	1.0	100	1.0	19	0	979.0	NA	0.0000		9999	6660	0	0	0
2019/03/15 22:22:00	BASE	9.74	237	13.79	232	1.0	100	1.0	18	0	979.0	NA	0.0000		9999	6630	0	0	0
2019/03/15 22:23:00	BASE	8.65	238	13.79	232	1.0	100	1.0	17	0	979.1	NA	0.0000		9999	6590	8240	0	0
2019/03/15 22:24:00	BASE	8.96	241	13.79	232	1.0	100	1.0	16	0	979.1	NA	0.0000		9999	6630	8170	0	0
2019/03/15 22:25:00	BASE	9.18	245	13.79	232	1.0	100	1.0	15	0	979.1	NA	0.0000		9999	6590	8530	0	0
2019/03/15 22:26:00	BASE	9.70	244	13.02	233	1.0	100	1.0	15	0	979.1	NA	0.0000		9999	6500	8330	0	0
2019/03/15 22:27:00	BASE	9.51	243	13.02	233	1.0	100	1.0	14	0	979.2	NA	0.0000		9999	6630	7870	0	0
2019/03/15 22:28:00	BASE	8.67	246	13.02	233	1.1	100	1.1	14	0	979.2	NA	0.0000		9999	6990	7710	8300	0
2019/03/15 22:29:00	BASE	8.42	246	13.02	233	1.1	100	1.1	13	0	979.2	NA	0.0000		9999	7020	7680	0	0
2019/03/15 22:30:00	BASE	8.77	244	13.02	233	1.1	100	1.1	12	0	979.2	NA	0.0000		9999	1900	7120	0	0
2019/03/15 22:31:00	BASE	9.12	242	11.27	243	1.1	100	1.1	12	0	979.2	NA	0.0000		9999	1900	0	0	0
2019/03/15 22:32:00	BASE	8.31	243	11.27	243	1.1	100	1.1	11	0	979.3	NA	0.0000		9999	1900	0	0	0
2019/03/15 22:33:00	BASE	7.22	241	11.27	243	1.1	100	1.1	11	0	979.3	NA	0.0000		9999	620	1870	0	0
2019/03/15 22:34:00	BASE	7.01	237	11.27	243	1.1	100	1.1	10	0	979.3	NA	0.0000		9999	1710	0	0	0
2019/03/15 22:35:00	BASE	6.65	238	11.27	243	1.1	100	1.1	10	0	979.4	NA	0.0000		9999	750	1740	0	0
2019/03/15 22:36:00	BASE	6.46	243	11.27	243	1.2	100	1.2	10	0	979.4	NA	0.0000		9999	820	1770	0	0
2019/03/15 22:37:00	BASE	6.56	245	11.06	248	1.2	100	1.2	9	0	979.5	NA	0.0000		9999	1570	0	0	0
2019/03/15 22:38:00	BASE	6.67	247	11.06	248	1.2	100	1.2	9	0	979.5	NA	0.0000		9999	1540	0	0	0
2019/03/15 22:39:00	BASE	7.71	243	12.45	232	1.2	100	1.2	9	0	979.4	NA	0.0000		9999	1800	0	0	0
2019/03/15 22:40:00	BASE	9.14	238	12.45	232	1.2	100	1.2	9	0	979.5	NA	0.0000		9999	1900	0	0	0
2019/03/15 22:41:00	BASE	9.45	240	12.45	232	1.2	100	1.2	9	0	979.5	NA	0.0000		9999	1870	0	0	0
2019/03/15 22:42:00	BASE	8.73	241	12.45	232	1.2	100	1.2	10	0	979.5	NA	0.0000		9999	1670	0	0	0
2019/03/15 22:43:00	BASE	8.47	241	12.45	232	1.2	100	1.2	9	0	979.5	NA	0.0000		9999	1940	0	0	0
2019/03/15 22:44:00	BASE	9.70	242	13.02	254	1.2	100	1.2	9	0	979.5	NA	0.0000		9999	1840	0	0	0
2019/03/15 22:45:00	BASE	9.96	241	13.02	254	1.2	100	1.2	9	0	979.5	NA	0.0000		9999	1900	0	0	0
2019/03/15 22:46:00	BASE	9.35	241	13.02	254	1.2	100	1.2	8	0	979.6	NA	0.0000		9999	1510	1870	0	0
2019/03/15 22:47:01	BASE	8.92	246	13.02	254	1.2	100	1.2	7	0	979.6	NA	0.0000		9999	1870	0	0	0
2019/03/15 22:48:00	BASE	8.43	248	13.02	254	1.2	100	1.2	6	0	979.6	NA	0.0000		9999	2100	8240	0	0
2019/03/15 22:49:00	BASE	8.68	249	13.02	254	1.2	100	1.2	5	0	979.6	NA	0.0000		9999	2030	8330	0	0
2019/03/15 22:50:00	BASE	9.66	246	13.02	254	1.2	100	1.2	4	0	979.7	NA	0.0000		9999	2030	8500	0	0
2019/03/15 22:51:00	BASE	9.47	241	13.02	254	1.2	100	1.2	3	0	979.7	NA	0.0000		9999	1540	2030	0	0
2019/03/15 22:52:00	BASE	8.50	238	13.02	254	1.2	100	1.2	3	0	979.8	NA	0.0000		9999	1480	0	0	0
2019/03/15 22:53:00	BASE	7.87	238	13.02	254	1.2	100	1.2	2	0	979.8	NA	0.0000		9999	980	0	0	0
2019/03/15 22:54:00	BASE	7.20	244	11.83	243	1.2	100	1.2	2	0	979.8	NA	0.0000		9999	980	0	0	0
2019/03/15 22:55:00	BASE	7.31	249	11.83	243	1.2	100	1.2	2	0	979.8	NA	0.0000		9999	690	0	0	0
2019/03/15 22:56:00	BASE	8.07	248	11.83	243	1.2	100	1.2	1	0	979.8	NA	0.0000		9999	660	0	0	0
2019/03/15 22:57:00	BASE	8.21	242	11.83	243	1.2	100	1.2	1	0	979.9	NA	0.0000		9999	660	0	0	0
2019/03/15 22:58:00	BASE	7.27	240	11.83	243	1.2	100	1.2	1	0	979.9	NA	0.0000		9999	660	0	0	0
2019/03/15 22:59:00	BASE	6.01	244	11.83	243	1.2	100	1.2	1	0	979.9	NA	0.0000		9999	660	0	0	0
2019/03/15 23:00:00	BASE	5.78	243	11.21	238	1.2	100	1.2	1	0	980.0	NA	0.0000		9999	590	0	0	0
2019/03/15 23:01:00	BASE	6.28	244	11.21	238	1.2	100	1.2	1	0	980.1	NA	0.0000		9999	590	0	0	0
2019/03/15 23:02:00	BASE	6.67	246	11.21	238	1.2	100	1.2	1	0	980.1	NA	0.0000		9999	620	0	0	0
2019/03/15 23:03:00	BASE	6.79	246	11.21	238	1.2	100	1.2	1	0	980.1	NA	0.0000		9999	560	0	0	0
2019/03/15 23:04:00	BASE	7.35	247	11.21	238	1.2	100	1.2	1	0	980.1	NA	0.0000		9999	660	0	0	0
2019/03/15 23:05:00	BASE	7.69	248	11.21	238	1.2	100	1.2	1	0	980.1	NA	0.0000		9999	590	0	0	0
2019/03/15 23:06:00	BASE	7.51	251	9.67	235	1.2	100	1.2	1	0	980.1	NA	0.0000		9999	590	0	0	0
2019/03/15 23:07:00	BASE	7.77	253	9.67	235	1.2	100	1.2	1	0	980.2	NA	0.0000		9999	560	0	0	0
2019/03/15 23:08:00	BASE	8.04	251	10.80	234	1.2	100	1.2	1	0	980.2	NA	0.0000		9999	560	0	0	0
2019/03/15 23:09:00	BASE	9.14	246	11.42	247	1.2	100	1.2	1	0	980.2	NA	0.0000		9999	750	0	0	0
2019/03/15 23:10:00	BASE	10.71	243	13.38	233	1.2	100	1.2	1	0	980.2	NA	0.0000		9999	980	0	0	0
2019/03/15 23:11:00	BASE	11.13	245	13.38	233	1.2	100	1.2	1	0	980.2	NA	0.0000		9999	790	0	0	0
2019/03/15 23:12:00	BASE	10.22	246	13.38	233	1.2	100	1.2	1	0	980.2	NA	0.0000		9999	980	0	0	0
2019/03/15 23:13:00	BASE	10.05	247	13.38	233	1.2	100	1.2	1	0	980.2	NA	0.0000		9999	1120	0	0	0
2019/03/15 23:14:00	BASE	10.87	250	13.38	233	1.2	100	1.2	0	0	980.3	NA	0.0000		9999	1310	0	0	0
2019/03/15 23:15:00	BASE	11.17	249	13.38	233	1.2	100	1.2	0	0	980.3	NA	0.0000		9999	1310	0	0	0
2019/03/15 23:16:00	BASE	11.19	246	13.38	233	1.2	100	1.2	0	0	980.3	NA	0.0000		9999	720	1410	0	0
2019/03/15 23:17:00	BASE	11.84	247	13.84	243	1.2	100	1.2	0	0	980.4	NA	0.0000		9999	660	1410	0	0
2019/03/15 23:18:00	BASE	12.64	248	14.51	245	1.2	100	1.2	0	0	980.4	NA	0.0000		9999	720	1640	0	0
2019/03/15 23:19:00	BASE	13.40	246	16.05	241	1.2	100	1.2	0	0	980.4	NA	0.0000		9999	720	0	0	0
2019/03/15 23:20:00	BASE	13.89	247	16.10	245	1.2	100	1.2	0	0	980.4	NA	0.0000		9999	720	1440	0	0
2019/03/15 23:21:00	BASE	13.57	250	16.10	245	1.2	100	1.2	0	0	980.4	NA	0.0000		9999	720	0	0	0
2019/03/15 23:22:00	BASE	13.71	252	16.10	245	1.2	100	1.2	0	0	980.4	NA	0.0000		9999	690	1440	0	0
2019/03/15 23:23:00	BASE	13.29	252	16.10	245	1.2	100	1.2	0	0	980.5	NA	0.0000		9999	690	1540	0	0
2019/03/15 23:24:00	BASE	12.84	251	16.10	245	1.2	100	1.2	0	0	980.6	NA	0.0000		9999	750	1540	0	0
2019/03/15 23:25:00	BASE	13.39	249	16.10	245	1.2	100	1.2	0	0	980.6	NA	0.0000		9999	720	1610	0	0
2019/03/15 23:26:00	BASE	13.38	249	16.10	245	1.2	100	1.2	0	0	980.7	NA	0.0000		9999	720	0	0	0
2019/03/15 23:27:00	BASE	13.14	248	16.10	245	1.2	100	1.2	0	0	980.6	NA	0.0000		9999	690	0	0	0
2019/03/15 23:28:00	BASE	13.00	248	16.10	245	1.2	100	1.2	0	0	980.7	NA	0.0000		9999	620	0	0	0
2019/03/15 23:29:00	BASE	12.86	249	16.10	245	1.2	100	1.2	0	0	980.7	NA	0.0000		9999	620	0	0	0
2019/03/15 23:30:00	BASE	12.28	249	15.84	245	1.2	100	1.2	0	0	980.8	NA	0.0000		9999	590	0	0	0
2019/03/15 23:31:00	BASE	12.13	249	15.74	252	1.2	100	1.2	0	0	980.9	NA	0.0000		9999	560	0	0	0
2019/03/15 23:32:00	BASE	12.25	250	15.74	252	1.2	100	1.2	0	0	980.9	NA	0.0000		9999	520	0	0	0
2019/03/15 23:33:00	BASE	12.24	249	15.74	252	1.2	100	1.2	0	0	981.0	NA	0.0000		9999	560	0	0	0
2019/03/15 23:34:00	BASE	12.19	250	15.74	252	1.1	100	1.1	0	0	981.0	NA	0.0000		9999	520	0	0	0
2019/03/15 23:35:00	BASE	11.55	249	15.74	252	1.1	100	1.1	0	0	981.0	NA	0.0000		9999	520	0	0	0
2019/03/15 23:36:00	BASE	11.20	248	15.48	250	1.1	100	1.1	0	0	981.1	NA	0.0000		9999	490	0	0	0
2019/03/15 23:37:00	BASE	11.67	248	15.48	250	1.1	100	1.1	0	0	981.1	NA	0.0000		9999	460	0	0	0
2019/03/15 23:38:00	BASE	11.94	246	15.48	250	1.1	100	1.1	0	0	981.2	NA	0.0000		9999	460	0	0	0
2019/03/15 23:39:00	BASE	12.46	245	14.20	242	1.1	100	1.1	0	0	981.2	NA	0.0000		9999	460	0	0	0
2019/03/15 23:40:00	BASE	12.73	245	15.48	239	1.1	100	1.1	0	0	981.2	NA	0.0000		9999	430	0	0	0
2019/03/15 23:41:00	BASE	12.03	244	15.48	239	1.1	100	1.1	0	0	981.2	NA	0.0000		9999	390	0	0	0
2019/03/15 23:42:00	BASE	11.83	246	15.48	239	1.1	100	1.1	0	0	981.2	NA	0.0000		9999	390	0	0	0
2019/03/15 23:43:00	BASE	11.43	246	15.48	239	1.1	100	1.1	0	0	981.3	NA	0.0000		9999	360	0	0	0
2019/03/15 23:44:00	BASE	10.20	244	15.48	239	1.1	100	1.1	0	0	981.3	NA	0.0000		9999	360	0	0	0
2019/03/15 23:45:00	BASE	10.17	244	15.48	239	1.1	100	1.1	0	0	981.4	NA	0.0000		9999	330	0	0	0
2019/03/15 23:46:00	BASE	11.27	243	15.48	239	1.0	100	1.0	0	0	981.4	NA	0.0000		9999	330	0	0	0
2019/03/15 23:47:00	BASE	11.28	243	15.48	239	1.0	100	1.0	0	0	981.4	NA	0.0000		9999	330	0	0	0
2019/03/15 23:48:00	BASE	10.80	244	15.48	239	1.0	100	1.0	0	0	981.5	NA	0.0000		9999	360	0	0	0
2019/03/15 23:49:00	BASE	11.38	247	15.48	239	1.0	100	1.0	0	0	981.5	NA	0.0000		9999	390	0	0	0
2019/03/15 23:50:00	BASE	10.56	248	14.61	245	1.0	100	1.0	0	0	981.5	NA	0.0000		9999	390	0	0	0
2019/03/15 23:51:00	BASE	9.14	247	14.61	245	1.0	100	1.0	0	0	981.5	NA	0.0000		9999	360	0	0	0
2019/03/15 23:52:01	BASE	10.00	245	14.61	245	1.0	100	1.0	0	0	981.5	NA	0.0000		9999	360	0	0	0
2019/03/15 23:53:00	BASE	10.31	243	14.61	245	1.0	100	1.0	0	0	981.5	NA	0.0000		9999	330	0	0	0
2019/03/15 23:54:00	BASE	9.51	243	14.61	245	1.0	100	1.0	0	0	981.6	NA	0.0000		9999	330	0	0	0
2019/03/15 23:55:00	BASE	8.82	243	14.61	245	1.0	100	1.0	0	0	981.6	NA	0.0000		9999	330	0	0	0
2019/03/15 23:56:00	BASE	8.77	244	14.61	245	1.0	100	1.0	0	0	981.6	NA	0.0000		9999	330	0	0	0
2019/03/15 23:57:00	BASE	9.09	247	14.61	245	1.0	100	1.0	0	0	981.6	NA	0.0000		9999	300	0	0	0
2019/03/15 23:58:00	BASE	8.46	249	14.61	245	1.0	100	1.0	0	0	981.6	NA	0.0000		9999	330	0	0	0
2019/03/15 23:59:00	BASE	7.57	252	11.99	242	1.0	100	1.0	0	0	981.7	NA	0.0000		9999	330	0	0	0